[[{"header":{"parameterUnit":"m.s-1","parameterCategory":1,"la1":30.6,"la2":29.2853,"lo1":-89.7004,"lo2":-87.6739,"dy":0.0162,"dx":0.0183,"nx":112,"ny":82,"refTime":"2023-04-26T00:00:00:Z","depth":0,"parameterNumber":2,"parameterNumberName":"U-component_of_WINDS"},"data":[0.0,0.0,0.0,0.0,0.0,0.0,0.0,0.0,0.0,0.0,0.0,0.0,0.0,0.0,0.0,0.0,0.0,0.0,0.0,0.0,0.0,0.0,0.0,0.0,0.0,0.0,0.0,0.0,0.0,0.0,0.0,0.0,0.0,0.0,0.0,0.0,0.0,0.0,0.0,0.0,0.0,0.0,0.0,0.0,0.0,0.0,0.0,0.0,0.0,0.0,0.0,0.0,0.0,0.0,0.0,0.0,0.0,0.0,0.0,0.0,0.0,0.0,0.0,0.0,0.0,0.0,0.0,0.0,0.0,0.0,0.0,0.0,0.0,0.0,0.0,0.0,0.0,0.0,0.0,0.0,0.0,0.0,0.0,0.0,0.0,0.0,0.0,0.0,0.0,0.0,0.678,0.6637,0.6819,0.6589,0.58,0.6569,0.6862,0.6249,0.0,0.0,0.0,0.0,0.0,0.0,0.0,0.0,0.0,0.0,0.0,0.0,0.0,0.0,0.0,0.0,0.0,0.0,0.0,0.0,0.0,0.0,0.0,0.0,0.0,0.0,0.0,0.0,0.0,0.0,0.0,0.0,0.0,0.0,0.0,0.0,0.0,0.0,0.0,0.0,0.0,0.0,0.0,0.0,0.0,0.0,0.0,0.0,0.0,0.0,0.0,0.0,0.0,0.0,0.0,0.0,0.0,0.0,0.0,0.0,0.0,0.0,0.0,0.0,0.0,0.0,0.0,0.0,0.0,0.0,0.0,0.0,0.0,0.0,0.0,0.0,0.0,0.0,0.0,0.0,0.0,0.0,0.0,0.0,0.0,0.0,0.0,0.0,0.0,0.0,0.0,0.0,0.0,0.0,0.0,0.0,0.0,0.0,0.0,0.0,0.0,0.0,0.0,0.0,0.6034,0.4702,0.5229,0.5583,0.5397,0.5378,0.5906,0.7125,0.0,0.0,0.0,0.0,0.0,0.0,0.0,0.0,0.0,0.0,0.0,0.0,0.0,0.0,0.0,0.0,0.0,0.0,0.0,0.0,0.0,0.0,0.0,0.0,0.0,0.0,0.0,0.0,0.0,0.0,0.0,0.0,0.0,0.0,0.0,0.0,0.0,0.0,0.0,0.0,0.0,0.0,0.0,0.0,0.0,0.0,0.0,0.0,0.0,0.0,0.0,0.0,0.0,0.0,0.0,0.0,0.0,0.0,0.0,0.0,0.0,0.0,0.0,0.0,0.0,0.0,0.0,0.0,0.0,0.0,0.0,0.0,0.0,0.0,0.0,0.0,0.0,0.0,0.0,0.0,0.0,0.0,0.0,0.0,0.0,0.0,0.0,0.0,0.0,0.0,0.0,0.0,0.0,0.0,0.0,0.0,0.0,0.0,0.0,0.0,0.0,0.0,0.0,0.6709,0.5704,0.4447,0.4948,0.5284,0.5143,0.5059,0.5071,0.5261,0.7614,0.0,0.0,0.0,0.0,0.0,0.0,0.0,0.0,0.0,0.0,0.0,0.0,0.0,0.0,0.0,0.0,0.0,0.0,0.0,0.0,0.0,0.0,0.0,0.0,0.0,0.0,0.0,0.0,0.0,0.0,0.0,0.0,0.0,0.0,0.0,0.0,0.0,0.0,0.0,0.0,0.0,0.0,0.0,0.0,0.0,0.0,0.0,0.0,0.0,0.0,0.0,0.0,0.0,0.0,0.0,0.0,0.0,0.0,0.0,0.0,0.0,0.0,0.0,0.0,0.0,0.0,0.0,0.0,0.0,0.0,0.0,0.0,0.0,0.0,0.0,0.0,0.0,0.0,0.0,0.0,0.0,0.0,0.0,0.0,0.0,0.0,0.0,0.0,0.0,0.0,0.0,0.0,0.0,0.0,0.0,0.0,0.0,0.0,0.0,0.0,0.0,0.0,0.5413,0.5001,0.4302,0.4635,0.4825,0.4627,0.4607,0.4258,0.351,0.67,0.0,0.0,0.0,0.0,0.0,0.0,0.0,0.0,0.0,0.0,0.0,0.0,0.0,0.0,0.0,0.0,0.0,0.0,0.0,0.0,0.0,0.0,0.0,0.0,0.0,0.0,0.0,0.0,0.0,0.0,0.0,0.0,0.0,0.0,0.0,0.0,0.0,0.0,0.0,0.0,0.0,0.0,0.0,0.0,0.0,0.0,0.0,0.0,0.0,0.0,0.0,0.0,0.0,0.0,0.0,0.0,0.0,0.0,0.0,0.0,0.0,0.0,0.0,0.0,0.0,0.0,0.0,0.0,0.0,0.0,0.0,0.0,0.0,0.0,0.0,0.0,0.0,0.0,0.0,0.0,0.0,0.0,0.0,0.0,0.0,0.0,0.0,0.0,0.0,0.0,0.0,0.0,0.0,0.0,0.0,0.0,0.0,0.0,0.0,0.0,0.0,0.0,0.4449,0.3459,0.3383,0.3578,0.3647,0.3443,0.3425,0.3382,0.3323,0.6173,0.0,0.0,0.0,0.0,0.0,0.0,0.0,0.0,0.0,0.0,0.0,0.0,0.0,0.0,0.0,0.0,0.0,0.0,0.0,0.0,0.0,0.0,0.0,0.0,0.0,0.0,0.0,0.0,0.0,0.0,0.0,0.0,0.0,0.0,0.0,0.0,0.0,0.0,0.0,0.0,0.0,0.0,0.0,0.0,0.0,0.0,0.0,0.0,0.0,0.0,0.0,0.0,0.0,0.0,0.0,0.0,0.0,0.0,0.0,0.0,0.0,0.0,0.0,0.0,0.0,0.0,0.0,0.0,0.0,0.0,0.0,0.0,0.0,0.0,0.0,0.0,0.0,0.0,0.0,0.0,0.0,0.0,0.0,0.0,0.0,0.0,0.0,0.0,0.0,0.0,0.0,0.0,0.0,0.0,0.0,0.0,0.0,0.0,0.0,0.0,0.0,0.0,0.3984,0.3054,0.0,0.2373,0.2666,0.3264,0.3306,0.3416,0.3645,0.0,0.0,0.0,0.0,0.0,0.0,0.0,0.0,0.0,0.0,0.0,0.0,0.0,0.0,0.0,0.0,0.0,0.0,0.0,0.0,0.0,0.0,0.0,0.0,0.0,0.0,0.0,0.0,0.0,0.0,0.0,0.0,0.0,0.0,0.0,0.0,0.0,0.0,0.0,0.0,0.0,0.0,0.0,0.0,0.0,0.0,0.0,0.0,0.0,0.0,0.0,0.0,0.0,0.0,0.0,0.0,0.0,0.0,0.0,0.0,0.0,0.0,0.0,0.0,0.0,0.0,0.0,0.0,0.0,0.0,0.0,0.0,0.0,0.0,0.0,0.0,0.0,0.0,0.0,0.0,0.0,0.0,0.0,0.0,0.0,0.0,0.0,0.0,0.0,0.0,0.0,0.0,0.0,0.0,0.0,0.0,0.0,0.0,0.0,0.0,0.0,0.0,0.4054,0.295,0.1969,0.0,0.1164,0.1468,0.2196,0.2246,0.2672,0.3655,0.0,0.0,0.0,0.0,0.0,0.0,0.0,0.0,0.0,0.0,0.0,0.0,0.0,0.0,0.0,0.0,0.0,0.0,0.0,0.0,0.0,0.0,0.0,0.0,0.0,0.0,0.0,0.0,0.0,0.0,0.0,0.0,0.0,0.0,0.0,0.0,0.0,0.0,0.0,0.0,0.0,0.0,0.0,0.0,0.0,0.0,0.0,0.0,0.0,0.0,0.0,0.0,0.0,0.0,0.0,0.0,0.0,0.0,0.0,0.0,0.0,0.0,0.0,0.0,0.0,0.0,0.0,0.0,0.0,0.0,0.0,0.0,0.0,0.0,0.0,0.0,0.0,0.0,0.0,0.0,0.0,0.0,0.0,0.0,0.0,0.0,0.0,0.0,0.0,0.0,0.0,0.0,0.0,0.0,0.0,0.0,0.0,0.0,0.0,0.0,0.0,0.0,0.2748,0.1074,0.0,0.0,0.0,0.0,0.0,0.0,0.0931,0.0,0.0,0.0,0.0,0.0,0.0,0.0,0.0,0.0,0.0,0.0,0.0,0.0,0.0,0.0,0.0,0.0,0.0,0.0,0.0,0.0,0.0,0.0,0.0,0.0,0.0,0.0,0.0,0.0,0.0,0.0,0.0,0.0,0.0,0.0,0.0,0.0,0.0,0.0,0.0,0.0,0.0,0.0,0.0,0.0,0.0,0.0,0.0,0.0,0.0,0.0,0.0,0.0,0.0,0.0,0.0,0.0,0.0,0.0,0.0,0.0,0.0,0.0,0.0,0.0,0.0,0.0,0.0,0.0,0.0,0.0,0.0,0.0,0.0,0.0,0.0,0.0,0.0,0.0,0.0,0.0,0.0,0.0,0.0,0.0,0.0,0.0,0.0,0.0,0.0,0.0,0.0,0.0,0.0,0.0,0.0,0.0,0.0,0.0,0.0,0.0,0.0,0.0,0.2956,0.1074,0.0,0.0,0.0,0.0,0.0,0.0,0.0808,0.2681,0.0,0.0,0.0,0.0,0.0,0.0,0.0,0.0,0.0,0.0,0.0,0.0,0.0,0.0,0.0,0.0,0.0,0.0,0.0,0.0,0.0,0.0,0.0,0.0,0.0,0.0,0.0,0.0,0.0,0.0,0.0,0.0,0.0,0.0,0.0,0.0,0.0,0.0,0.0,0.0,0.0,0.0,0.0,0.0,0.0,0.0,0.0,0.0,0.0,0.0,0.0,0.0,0.0,0.0,0.0,0.0,0.0,0.0,0.0,0.0,0.0,0.0,0.0,0.0,0.0,0.0,0.0,0.0,0.0,0.0,0.0,0.0,0.0,0.0,0.0,0.0,0.0,0.0,0.0,0.0,0.0,0.0,0.0,0.0,0.0,0.0,0.0,0.0,0.0,0.0,0.0,0.0,0.0,0.0,0.0,0.0,0.0,0.0,0.0,0.0,0.0,0.0,0.3564,0.1299,0.0,0.0,0.0,0.0,0.0,0.0,0.0449,0.1504,0.0,0.0,0.0,0.0,0.0,0.0,0.0,0.0,0.0,0.0,0.0,0.0,0.0,0.0,0.0,0.0,0.0,0.0,0.0,0.0,0.0,0.0,0.0,0.0,0.0,0.0,0.0,0.0,0.0,0.0,0.0,0.0,0.0,0.0,0.0,0.0,0.0,0.0,0.0,0.0,0.0,0.0,0.0,0.0,0.0,0.0,0.0,0.0,0.0,0.0,0.0,0.0,0.0,0.0,0.0,0.0,0.0,0.0,0.0,0.0,0.0,0.0,0.0,0.0,0.0,0.0,0.0,0.0,0.0,0.0,0.0,0.0,0.0,0.0,0.0,0.0,0.0,0.0,0.0,0.0,0.0,0.0,0.0,0.0,0.0,0.0,0.0,0.0,0.0,0.0,0.0,0.0,0.0,0.0,0.0,0.0,0.0,0.0,0.0,0.0,0.0,0.0,0.4428,0.1654,0.0,0.0,0.0,0.0,0.0,0.0,0.0,0.0,0.0,0.0,0.0,0.0,0.0,0.0,0.0,0.0,0.0,0.0,0.0,0.0,0.0,0.0,0.0,0.0,0.0,0.0,0.0,0.0,0.0,0.0,0.0,0.0,0.0,0.0,0.0,0.0,0.0,0.0,0.0,0.0,0.0,0.0,0.0,0.0,0.0,0.0,0.0,0.0,0.0,0.0,0.0,0.0,0.0,0.0,0.0,0.0,0.0,0.0,0.0,0.0,0.0,0.0,0.0,0.0,0.0,0.0,0.0,0.0,0.5925,0.0,0.0,0.0,0.0,0.0,0.0,0.0,0.0,0.0,0.0,0.0,0.0,0.0,0.0,0.0,0.0,0.0,0.0,0.0,0.0,0.0,0.0,0.0,0.0,0.0,0.0,0.0,0.0,0.0,0.0,0.0,0.0,0.0,0.0,0.0,0.0,0.0,0.0,0.0,0.0,0.0,0.507,0.1898,0.0,0.0,0.0,0.0,0.0,0.0,0.0,0.0,0.0678,0.0,0.0,0.0,0.0,0.0,0.0,0.0,0.0,0.0,0.0,0.0,0.0,0.0,0.0,0.0,0.0,0.0,0.0,0.0,0.0,0.0,0.0,0.0,0.0,0.0,0.0,0.0,0.0,0.0,0.0,0.0,0.0,0.0,0.0,0.0,0.0,0.0,0.0,0.0,0.0,0.0,0.0,0.0,0.0,0.0,0.0,0.0,0.0,0.0,0.0,0.0,0.0,0.0,0.0,0.0,0.0,0.0,0.0,0.0,0.0,0.3947,0.0,0.0,0.0,0.0,0.0,0.0,0.0,0.0,0.0,0.0,0.0,0.0,0.0,0.0,0.0,0.0,0.0,0.0,0.0,0.0,0.0,0.0,0.0,0.0,0.0,0.0,0.0,0.0,0.0,0.0,0.0,0.0,0.0,0.0,0.0,0.0,0.0,0.0,0.0,0.0,0.5383,0.2034,0.0,0.0,0.0,0.0,0.0,0.0,0.0,0.0,0.0,0.0,0.0,0.0,0.0,0.0,0.0,0.0,0.0,0.0,0.0,0.0,0.0,0.0,0.0,0.0,0.0,0.0,0.0,0.0,0.0,0.0,0.0,0.0,0.0,0.0,0.0,0.0,0.0,0.0,0.0,0.0,0.0,0.0,0.0,0.0,0.0,0.0,0.0,0.0,0.0,0.0,0.0,0.0,0.0,0.0,0.0,0.0,0.0,0.0,0.0,0.0,0.0,0.0,0.1923,0.2051,0.2198,0.2043,0.1769,0.1457,0.2348,0.1785,0.0411,0.0,0.0,0.0,0.0,0.0,0.0,0.0,0.0,0.0,0.0,0.0,0.0,0.0,0.0,0.0,0.0,0.0,0.0,0.0,0.0,0.0,0.0,0.0,0.0,0.0,0.1885,0.1988,0.0,0.0,0.0,0.0,0.0,0.0,0.0,0.0,0.0,0.0,0.0,0.0,0.5476,0.2105,0.0,0.0,0.0,0.0,0.0,0.0,0.0,0.0,0.0,0.0,0.0,0.0,0.0,0.0,0.0,0.0,0.0,0.0,0.0,0.0,0.0,0.0,0.0,0.0,0.0,0.0,0.0,0.0,0.0,0.0,0.0,0.0,0.0,0.0,0.0,0.0,0.0,0.0,0.0,0.0,0.0,0.0,-0.1276,-0.0744,0.0,0.0,0.0,0.0,0.0,0.0,0.0,0.0,0.0,0.0,0.0,0.0,0.0,0.1607,0.1285,0.1233,0.1137,0.1047,0.107,0.0929,0.0684,0.0426,0.0276,0.0228,0.0379,0.0,0.1348,0.1945,0.0,0.0,0.0,0.0,0.0,0.0,0.0,0.0,0.0,0.0,0.0,0.0,0.0,0.0,0.0,0.0,0.0,0.0,0.0,0.0,0.0,0.0,0.1664,0.1766,0.181,0.1886,0.0,0.2631,0.3242,0.3655,0.0,0.0,0.0,0.0,0.0,0.0,0.0,0.0,0.5231,0.2008,0.0,0.0,0.0,0.0,0.0,0.0,0.0,0.0,0.0,0.0,0.0,0.0428,0.0,0.0,0.0,0.0,0.0,0.0,0.0,0.0,0.0,0.0,0.0,0.0,0.0,0.0,0.0,0.0,0.0,0.0,0.0,0.0,0.0,0.0,0.0,0.0,0.0,0.0,0.0,0.0,0.0,-0.2494,-0.1356,-0.0566,-0.0291,0.0,0.0,0.0,0.0,0.0,0.0,0.0,0.0,0.0,0.0,0.0918,0.1084,0.1052,0.0789,0.0735,0.0735,0.0782,0.0668,0.0537,0.0386,0.0202,0.0075,0.0,0.0,0.0295,0.0799,0.1094,0.1412,0.1772,0.0,0.0,0.0,0.0,0.2599,0.2396,0.2259,0.2183,0.0,0.0,0.0,0.0,0.0,0.0,0.0,0.0,0.0,0.0,0.0,0.0,0.0,0.2021,0.2173,0.2307,0.2359,0.2611,0.297,0.0,0.3901,0.456,0.5777,0.0,0.0,0.0,0.0,0.6879,0.487,0.1933,0.0,0.0,0.0,0.0,0.0,0.0,0.0,0.0,0.0,0.0,0.0,0.0,0.07,0.0,0.0,0.0,0.0,0.0,0.0,0.0,0.0,0.0,0.0,0.0,0.0,0.0,0.0,0.0,0.0,0.0,0.0,0.0,0.0,0.0,0.0,0.0,0.0,0.0,0.0,0.0,0.0,-0.2604,-0.1529,-0.0354,0.0026,0.0445,0.0,0.0,0.0,0.0,0.0,0.0,0.1311,0.1266,0.1133,0.0906,0.0806,0.0686,0.0532,0.0435,0.0483,0.0626,0.0397,0.0304,0.0285,0.0204,0.0098,0.0,0.0,0.0059,0.0166,0.0404,0.0718,0.1093,0.1397,0.1549,0.1623,0.2028,0.1907,0.1546,0.1696,0.16,0.1447,0.1497,0.0,0.1724,0.205,0.0,0.0,0.0,0.0,0.1974,0.1847,0.2027,0.2228,0.2205,0.2454,0.2693,0.2724,0.2834,0.3001,0.0,0.35,0.4003,0.5039,0.0,0.0,0.0,0.0,0.5228,0.3938,0.1563,0.0,0.0,0.0,0.0,0.0,0.0,0.0,0.0,0.0,0.0,0.0,0.0,0.0,0.0,0.0,0.0,0.0,0.0,0.0,0.0,0.0,0.0,0.0,0.0,0.0,0.0,0.0,0.0,0.0,0.0,0.0,0.0,0.0,0.0,0.0,0.0,0.0,0.0,0.0,0.0,0.0,0.0,0.0,-0.016,0.0383,0.0,0.0,0.0,0.0,0.2039,0.1471,0.1339,0.1918,0.172,0.1359,0.0913,0.0883,0.0879,0.0867,0.0568,0.0404,0.0421,0.0155,0.0022,0.0022,0.0022,0.0,0.0,0.0,0.0,0.0022,0.0166,0.0415,0.0724,0.0744,0.0827,0.0926,0.083,0.0783,0.0734,0.0546,0.0479,0.0504,0.0687,0.1021,0.1406,0.1881,0.2001,0.0,0.0,0.2008,0.1974,0.1847,0.1806,0.1901,0.2136,0.2454,0.2757,0.3035,0.3466,0.3644,0.0,0.2649,0.2846,0.3987,0.0,0.431,0.4,0.4306,0.3923,0.2085,0.0756,0.0,0.0,0.0,0.0,0.0,0.0,0.0,0.0,0.0,0.0,0.0,0.0,0.0,0.0,0.3366,0.0,0.0,0.0,0.0,0.0,0.0,0.0,0.0,0.0,0.0,0.0,0.0,0.0,0.0,0.0,0.0,0.0,0.0,0.0,0.0,0.0,0.0,0.0,0.0,0.0,0.0,0.0,0.0,-0.0547,-0.0203,0.0,0.0964,0.07,0.0659,0.1022,0.1074,0.121,0.1409,0.1158,0.0953,0.079,0.0487,0.0318,0.0325,0.0189,0.013,0.0145,0.0049,0.0,0.0,0.0,0.0,0.0,0.0,0.0,0.0,0.0042,0.0146,0.0257,0.0447,0.0541,0.06,0.0775,0.083,0.0827,0.0742,0.0712,0.0736,0.0802,0.0928,0.1108,0.1459,0.1549,0.1593,0.1822,0.1865,0.1852,0.182,0.1931,0.2084,0.2172,0.2584,0.2982,0.3068,0.3387,0.3564,0.3305,0.3249,0.3432,0.4007,0.3766,0.3616,0.3934,0.3262,0.2425,0.1661,0.1139,0.0687,0.0301,0.026,0.0186,0.0012,0.0,0.0,0.0,0.0,0.0,0.0,0.0,0.0,0.0,0.2296,0.3026,0.0,0.0,0.0,0.0,0.0,0.0,0.0,0.0,0.0,0.0,0.0,0.0,0.0,0.0,0.0,0.0,0.0,0.0,0.0,0.0,0.0,0.0,0.0,0.0,0.0,0.0,-0.1345,-0.0545,-0.0203,0.0201,0.0852,0.065,0.0588,0.0784,0.0888,0.0992,0.103,0.0828,0.0626,0.0462,0.0,-0.0159,0.0,-0.0293,-0.028,0.0,-0.0157,-0.0153,0.0,0.0,0.0,0.0,0.0,0.0,0.0,0.0,0.0,0.0023,0.0204,0.0273,0.0301,0.0519,0.0602,0.0605,0.0588,0.0596,0.0603,0.0692,0.0731,0.0796,0.1088,0.1232,0.1354,0.1657,0.1767,0.1813,0.1845,0.1975,0.2062,0.2062,0.2433,0.281,0.281,0.3025,0.3217,0.3217,0.3293,0.3431,0.3708,0.3192,0.2904,0.3441,0.2531,0.176,0.161,0.1402,0.1113,0.0708,0.0612,0.0496,0.0319,0.0488,0.0438,0.0027,0.0,0.0185,0.0591,0.0611,0.0781,0.1175,0.1931,0.2342,0.238,0.0,0.0,0.0,0.0,0.0,0.0,0.0,0.0,0.0,0.0,0.0,0.0,0.0,0.0,0.0,0.0,0.0,0.0,0.0,0.0,0.0,0.0,0.0,-0.1978,-0.1546,-0.0937,-0.0089,0.0404,0.081,0.1217,0.09,0.0943,0.1523,0.0993,0.0717,0.0886,0.0727,0.0433,0.0,-0.0451,-0.05,-0.0034,-0.086,-0.0869,-0.0028,-0.0508,-0.0478,-0.0028,-0.0028,0.0,0.0,0.0,0.0,0.0,0.0,0.0,0.0,0.0,0.0,0.0,0.0,0.0,0.0,0.0,0.0,0.0045,0.0292,0.0379,0.0455,0.0781,0.1062,0.131,0.1533,0.1665,0.1809,0.1925,0.1882,0.1791,0.1798,0.2012,0.2202,0.221,0.2473,0.2723,0.2713,0.2659,0.271,0.3033,0.2598,0.2249,0.2392,0.2173,0.0,0.1813,0.1446,0.1202,0.1211,0.1032,0.0909,0.0902,0.1432,0.1271,0.0135,0.0044,0.0556,0.173,0.1792,0.2324,0.3485,0.2353,0.2325,0.3506,0.0,0.0,0.0,0.0,0.0,0.0,0.0,0.0,0.0,0.0,0.0,0.0,0.0,0.0,0.0,0.0,0.0,0.0,0.0,0.0,0.0,0.0,-0.1783,-0.1528,-0.0843,-0.0275,-0.005,0.0099,0.0247,0.0356,0.0248,0.0244,0.0439,0.029,0.0193,0.024,-0.0185,-0.0536,-0.0649,-0.0787,-0.0791,-0.0639,-0.0889,-0.0844,-0.0514,-0.1088,-0.107,-0.0505,-0.0505,-0.0308,0.0,0.0,0.0,0.0,0.0,0.0,0.0,0.0,0.0,0.0,0.0,0.0,0.0,0.0,0.0,0.0,0.008,0.0111,0.0174,0.0442,0.059,0.0697,0.1014,0.1113,0.1164,0.1191,0.1314,0.1484,0.1612,0.2021,0.2388,0.2536,0.2792,0.2958,0.286,0.2642,0.2521,0.2756,0.2672,0.2588,0.2606,0.2259,0.0,0.1824,0.1397,0.116,0.1267,0.1214,0.1119,0.0916,0.0828,0.1019,0.1564,0.1002,0.08,0.1126,0.1573,0.2324,0.3485,0.1523,0.1483,0.0,0.0,0.0,0.0,0.0,0.0,0.0,0.0,0.0,0.0,0.0,0.0,0.0,0.0,0.0,0.0,0.0,0.0,0.0,0.0,0.0,0.0,-0.1758,-0.1183,-0.0832,-0.03,0.0,0.0,0.0,0.0,0.0,0.0,-0.0105,-0.0412,-0.0464,-0.0615,-0.0906,-0.1233,-0.1446,-0.146,-0.1627,-0.1517,-0.0996,-0.1381,-0.1165,-0.0396,-0.0968,-0.0936,-0.0393,-0.0393,-0.0262,0.0,0.0,0.0,0.0,0.0,0.0,0.0,0.0,0.0,0.0,0.0,0.0,0.0,0.0,0.0,0.0,0.0,0.0,0.0031,0.0183,0.0305,0.046,0.073,0.099,0.1208,0.1273,0.1469,0.1702,0.1827,0.2083,0.2333,0.2457,0.2609,0.2694,0.2612,0.0,0.0,0.2382,0.2364,0.2337,0.2394,0.208,0.183,0.1809,0.1435,0.1211,0.1297,0.1303,0.129,0.1275,0.1155,0.0,0.0,0.0,0.137,0.1284,0.1779,0.0,0.0,0.0,0.1169,0.2032,0.0,0.0,0.0,0.3576,0.3642,0.0,0.0,0.0,0.0,0.0,0.0,0.0,0.0,0.0,0.0,0.0,0.0,0.0,0.0,0.0,0.0,-0.1317,-0.0665,-0.0352,-0.0281,-0.0219,0.0,-0.0168,-0.0224,-0.0113,-0.0225,-0.0498,-0.1177,-0.1226,-0.1526,-0.2145,0.0,0.0,0.0,0.0,-0.2297,-0.1217,-0.1953,-0.1579,-0.0079,-0.0552,-0.0552,-0.0079,-0.0079,-0.004,0.0,0.0,0.0,0.0,0.0,0.0,0.0,0.0,0.0,0.0,0.0,0.0,0.0,0.0,0.0,0.0,0.0,0.0,0.0,0.0,0.0164,0.038,0.0565,0.0995,0.1442,0.1561,0.1838,0.2069,0.2081,0.216,0.2238,0.2258,0.2258,0.2251,0.2238,0.2124,0.2055,0.2035,0.1892,0.1847,0.1967,0.1785,0.1655,0.1765,0.1507,0.1336,0.135,0.0,0.0,0.1779,0.1931,0.1714,0.0989,0.1647,0.197,0.1814,0.2136,0.1919,0.1023,0.1453,0.114,0.0,0.1067,0.1587,0.1587,0.1587,0.2137,0.0,0.0,0.0,0.0,0.0,0.0,0.0,0.0,0.0,0.0,0.0,0.0,0.0,0.0,0.0,-0.3223,-0.2068,-0.1443,-0.207,-0.2173,-0.1665,-0.0175,-0.1023,-0.1525,-0.0928,-0.1418,-0.1835,-0.1989,-0.1989,-0.2038,-0.2189,-0.2666,-0.2942,-0.2942,-0.2434,-0.2052,-0.1832,-0.14,-0.0984,-0.058,0.0,0.0,-0.058,-0.058,-0.0373,0.0,0.0,0.0,0.0,0.0,0.0,0.0,0.0,0.0,0.0,0.0,0.0,0.0,0.0,0.0,0.0,0.0,0.0,0.0,0.0,0.0036,0.0,0.0136,0.0231,0.0326,0.0329,0.0819,0.134,0.144,0.197,0.2472,0.2571,0.2598,0.2557,0.2465,0.2417,0.2355,0.2184,0.1967,0.1813,0.1847,0.1799,0.173,0.1641,0.1579,0.1586,0.1682,0.1696,0.1737,0.1799,0.1977,0.1843,0.125,0.1516,0.1721,0.1799,0.1872,0.1837,0.1634,0.1266,0.0715,0.0,0.0233,0.0342,0.0342,0.0342,0.047,0.0,0.0,0.0,0.0,0.0,0.0,0.0,0.0,0.0,0.0,0.0,-0.4274,-0.4065,0.0,-0.3508,-0.3255,-0.2607,-0.2238,-0.2645,-0.3013,-0.278,-0.1417,-0.1908,-0.2174,-0.1717,-0.1973,-0.2341,-0.2785,-0.2785,-0.2901,-0.3345,-0.3621,-0.3593,-0.3209,-0.2835,-0.2291,-0.1558,-0.1206,-0.0783,-0.0369,-0.0648,-0.0647,-0.0369,-0.037,-0.0231,0.0,0.0,0.0,0.0,0.0,0.0,0.0,0.0,0.0,0.0,0.0,0.0,0.0,0.0,0.0,0.0,0.0,0.0,0.0,0.0,0.0,0.0,0.0,0.0178,0.0361,0.0353,0.0768,0.1222,0.1291,0.1773,0.2292,0.2424,0.2598,0.2712,0.2712,0.2589,0.2458,0.2361,0.2157,0.1981,0.1906,0.1854,0.1779,0.1703,0.1696,0.1724,0.1799,0.1806,0.1806,0.1806,0.1895,0.1825,0.1574,0.1493,0.1561,0.1799,0.1651,0.1629,0.1806,0.1511,0.1209,0.09,0.0597,0.0292,0.0007,0.0312,0.0292,0.0,0.0,0.0,0.0,0.0,0.0,0.0,-0.3747,-0.3655,-0.4359,-0.461,-0.4603,-0.4153,-0.4103,-0.4033,-0.3533,-0.3234,-0.3127,-0.3266,-0.3742,-0.3773,-0.3036,-0.2943,-0.2797,-0.2527,-0.261,-0.2992,-0.3637,-0.3615,-0.3828,-0.4504,-0.4532,-0.4125,-0.3345,-0.3178,-0.247,-0.1115,-0.0955,-0.0574,0.0,0.0,0.0,0.0,0.0,0.0,0.0,0.0,0.0,0.0,0.0,0.0,0.0,0.0,0.0,0.0,0.0,0.0,0.0,0.0,0.0,0.0,0.0,0.0,0.0,0.0,0.0,0.0,0.0,0.0266,0.0582,0.0561,0.0876,0.1201,0.1191,0.1617,0.2057,0.2166,0.249,0.2767,0.2779,0.2679,0.2571,0.2418,0.2351,0.2271,0.2057,0.1947,0.1872,0.1872,0.1872,0.1872,0.1872,0.1845,0.1789,0.1718,0.1651,0.1623,0.1623,0.1363,0.1363,0.1696,0.1452,0.1452,0.1806,0.1806,0.1806,0.1799,0.1318,0.0821,0.0364,0.0787,0.0753,-0.5482,-0.58,-0.5628,-0.4822,-0.4706,-0.464,0.0,-0.4126,-0.4153,-0.4479,-0.4372,-0.4284,-0.4409,-0.4214,-0.4355,-0.5351,-0.4557,-0.4182,-0.5173,-0.5101,-0.4879,-0.4668,-0.4532,-0.4243,-0.3643,-0.4094,-0.4481,-0.4736,-0.4624,-0.4602,-0.4667,-0.4594,-0.4181,-0.34,-0.2674,-0.1922,-0.1115,-0.0425,-0.0104,0.0,0.0,0.0,0.0,0.0,0.0,0.0,0.0,0.0,0.0,0.0,0.0,0.0,0.0,0.0,0.0,0.0,0.0,0.0,0.0,0.0,0.0,0.0,0.0,0.0,0.0,0.0,0.0,0.0,0.0039,0.0078,0.0078,0.0429,0.078,0.0777,0.1472,0.2166,0.2205,0.266,0.2882,0.2397,0.2686,0.2812,0.2187,0.2484,0.266,0.2244,0.2171,0.2157,0.2157,0.2157,0.2157,0.2157,0.2043,0.1813,0.1396,0.1136,0.1003,0.1003,0.0959,0.1074,0.1341,0.1319,0.1452,0.1806,0.1806,0.1806,0.1806,0.1737,0.1669,0.16,0.1367,0.138,-0.6416,-0.6538,-0.6253,-0.5731,-0.5466,-0.5358,-0.517,-0.5194,-0.5259,-0.5321,-0.5425,-0.5603,-0.6316,-0.5842,-0.5663,-0.6645,-0.5892,-0.5281,-0.5534,-0.5406,-0.5209,-0.506,-0.5188,-0.5042,-0.4259,-0.4875,-0.518,-0.4841,-0.4809,-0.4823,-0.4823,-0.468,-0.408,-0.2928,-0.2422,-0.1663,-0.0493,-0.0165,0.0,0.0,0.0,0.0,0.0,0.0,0.0,0.0,0.0,0.0,0.0,0.0,0.0,0.0,0.0,0.0,0.0,0.0,0.0,0.0,0.0,0.0,0.0,0.0,0.0,0.0,0.0,0.0,0.0,0.0,0.0,0.0,0.0,0.0128,0.0295,0.0288,0.0814,0.1343,0.1424,0.1752,0.2008,0.1863,0.1951,0.1939,0.1636,0.1821,0.1895,0.1705,0.2085,0.2333,0.2224,0.1983,0.1755,0.1483,0.1393,0.1291,0.1084,0.0965,0.0892,0.0892,0.0714,0.0825,0.1274,0.1216,0.1414,0.1913,0.2001,0.2023,0.2023,0.2023,0.1954,0.1806,0.1815,0.1876,-0.707,-0.7012,-0.6907,-0.6481,-0.6171,-0.5942,-0.5976,-0.6105,-0.62,-0.6159,-0.6213,-0.6549,-0.7483,-0.7025,-0.6656,-0.7352,-0.6757,-0.6129,-0.5741,-0.5642,-0.556,-0.5402,-0.5919,-0.594,-0.4971,-0.5457,-0.5576,-0.4869,-0.4911,-0.4979,-0.4979,-0.4836,-0.4036,-0.2554,-0.238,-0.1543,0.0,0.0,0.0,0.0,0.0,0.0,0.0,0.0,0.0,0.0,0.0,0.0,0.0,0.0,0.0,0.0,0.0,0.0,0.0,0.0,0.0,0.0,0.0,0.0,0.0,0.0,0.0,0.0,0.0,0.0,0.0,0.0,0.0,0.0,0.0,0.0,0.0,0.0,0.0396,0.0791,0.0859,0.1188,0.1445,0.143,0.1442,0.1363,0.1183,0.13,0.1415,0.1318,0.1856,0.2186,0.197,0.1709,0.1378,0.1005,0.0891,0.0821,0.0779,0.0692,0.0646,0.0646,0.0549,0.0715,0.1219,0.1284,0.1529,0.205,0.2157,0.2211,0.2211,0.2211,0.2097,0.1913,0.2177,0.2398,-0.741,-0.7374,-0.7541,-0.7032,-0.6604,-0.6281,-0.6424,-0.6573,-0.6634,-0.6491,-0.6349,-0.6513,-0.7162,-0.7062,-0.7007,-0.7285,-0.7045,-0.6602,-0.5915,-0.6007,-0.6137,-0.5965,-0.6982,-0.7171,0.0,-0.5876,-0.5754,-0.5108,-0.5121,-0.5121,-0.5121,-0.4992,-0.4174,-0.2577,-0.2512,-0.1693,0.0,0.0,0.0,0.0,0.0,0.0,0.0,0.0,0.0,0.0,0.0,0.0,0.0,0.0,0.0,0.0,0.0,0.0,0.0,0.0,0.0,0.0,0.0,0.0,0.0,0.0,0.0,0.0,0.0,0.0,0.0,0.0,0.0,0.0,0.0,0.0,0.0,0.0,0.044,0.0885,0.091,0.1376,0.1633,0.105,0.1371,0.154,0.0853,0.1292,0.1666,0.1349,0.1502,0.1556,0.1365,0.1302,0.1237,0.1104,0.0855,0.0628,0.042,0.0168,0.0028,0.0028,0.0446,0.0805,0.1086,0.1529,0.1921,0.2176,0.2211,0.2211,0.2211,0.2211,0.2204,0.2197,0.2403,0.2954,-0.9835,-1.0077,-1.0211,-1.0229,-0.9114,-0.8081,-0.8295,-0.7547,-0.681,-0.6654,-0.6349,-0.6357,-0.7122,-0.7102,-0.7017,-0.7263,-0.7333,-0.7032,-0.6029,-0.6036,-0.5942,-0.5639,-0.6256,-0.6318,0.0,0.0,0.0,-0.5241,-0.5732,-0.5921,-0.5349,-0.5142,-0.4552,-0.3542,-0.3413,-0.257,-0.0849,-0.0849,-0.0597,0.0,0.0,0.0,0.0,0.0,0.0,0.0,0.0,0.0,0.0,0.0,0.0,0.0,0.0,0.0,0.0,0.0,0.0,0.0,0.0,0.0,0.0,0.0,0.0,0.0,0.0,0.0,0.0,0.0,0.0,0.0,0.0,0.0,0.0,0.0,0.015,0.0301,0.0293,0.0446,0.0552,0.0348,0.0446,0.0543,0.0291,0.0436,0.0576,0.0461,0.1003,0.128,0.0944,0.09,0.0759,0.0425,0.0294,0.0214,0.0149,0.0058,0.0141,0.0449,0.0615,0.095,0.1538,0.1807,0.2086,0.2381,0.2483,0.253,0.253,0.253,0.2483,0.241,0.2843,0.3139,-1.1049,-1.1476,-1.1662,-1.1679,-1.0686,-0.9721,-0.991,-0.8653,-0.7362,-0.7222,-0.6714,-0.6516,-0.7232,-0.722,-0.7118,-0.7386,-0.7362,-0.6944,-0.6089,-0.612,-0.6186,-0.588,-0.6392,-0.6407,0.0,0.0,0.0,-0.5262,-0.5888,-0.6098,-0.5514,-0.5399,-0.4967,-0.4228,-0.4051,-0.3288,-0.1934,-0.183,-0.154,-0.0957,-0.0645,-0.0638,-0.0985,-0.0916,-0.0911,-0.0854,-0.0562,-0.056,-0.0727,-0.0224,-0.0336,-0.0727,-0.0224,-0.0168,-0.0336,-0.0112,0.0,0.0,0.0,0.0,0.0,0.0,0.0,0.0,0.0,0.0,0.0,0.0,0.0,0.0,0.0,0.0,0.0,0.0,0.0,0.0,0.0,0.0,0.0,0.0,0.0,0.0,0.0,0.0,0.0,0.0,0.0471,0.0762,0.0499,0.0436,0.0344,0.0037,0.0,0.0,0.0,0.0,0.0211,0.066,0.0839,0.1195,0.1854,0.2113,0.2373,0.2644,0.2713,0.2788,0.2835,0.2835,0.2926,0.3059,0.3307,0.3599,-1.1194,-1.1641,-1.1977,-1.1607,-1.1337,-1.1227,-1.1196,-0.9715,-0.8345,-0.8034,-0.7288,-0.6856,-0.7361,-0.7441,-0.7451,-0.7648,-0.7175,-0.6595,-0.595,-0.6369,-0.6696,-0.6664,-0.7267,-0.7404,-0.6717,-0.7574,0.0,-0.5281,0.0,-0.5816,-0.5623,-0.5732,-0.5434,-0.4565,-0.4388,-0.3918,-0.3147,-0.2843,-0.2726,-0.2711,-0.1786,-0.1845,-0.2703,-0.2561,-0.2528,-0.2463,-0.1593,-0.1572,-0.2132,-0.073,-0.0953,-0.2069,-0.0672,-0.0504,-0.1006,-0.0336,-0.0056,0.0,0.0,0.0,0.0,0.0,0.0,0.0,0.0,0.0,0.0,0.0,0.0,0.0,0.0,0.0,0.0,0.0,0.0,0.0,0.0,0.0,0.0,0.0,0.0,0.0,0.0,0.0,0.0,0.0,0.0,0.0,0.0,0.0,0.0,0.0,0.0,0.0,0.0,0.0034,0.0236,0.0708,0.111,0.1546,0.2024,0.2466,0.2774,0.2917,0.2917,0.2985,0.3082,0.312,0.3429,0.3957,0.3785,0.434,-1.2073,-1.3336,-1.4566,-1.4651,-1.3676,-1.2551,-1.2076,-1.0376,-0.8751,-0.8099,-0.7494,-0.6984,-0.7071,-0.7898,-0.8194,-0.7149,-0.7952,-0.8234,-0.6697,-0.6791,-0.6866,-0.6592,-0.6703,-0.6736,-0.64,-0.6751,0.0,0.0,-0.644,-0.6482,-0.5915,-0.584,-0.5728,-0.5506,-0.5402,-0.5027,-0.4161,-0.3267,-0.2807,-0.2726,-0.2485,-0.2461,-0.2703,-0.2684,-0.2673,-0.2613,-0.241,-0.24,-0.2516,-0.2047,-0.2084,-0.2369,-0.186,-0.1397,-0.1062,-0.0894,-0.0448,0.0,0.0,0.0,0.0,0.0,0.0,0.0,0.0,0.0,0.0,0.0,0.0,0.0,0.0,0.0,0.0,0.0,0.0,0.0,0.0,0.0,0.0,0.0,0.0,0.0,0.0,0.0,0.0,0.0,0.0,0.0,0.0,0.0,0.0,0.0,0.0,0.0,0.0,0.0329,0.0714,0.1103,0.1671,0.2167,0.2637,0.2878,0.3025,0.3066,0.3066,0.3048,0.3082,0.3544,0.3613,0.3352,0.4468,0.4963,-1.2825,-1.3999,-1.4785,-1.5063,-1.444,-1.3346,-1.1849,-1.0494,-0.9235,-0.8205,-0.7726,-0.7422,-0.7255,-0.7684,-0.7846,-0.7093,-0.7414,-0.7496,-0.6638,-0.6763,-0.6878,-0.6695,-0.679,-0.6783,-0.6573,-0.6681,-0.6709,0.0,-0.6798,-0.6707,-0.6132,-0.6105,-0.6071,-0.6003,-0.5935,-0.5649,-0.5075,-0.4082,-0.3783,-0.4064,-0.3517,-0.3535,-0.397,-0.3804,-0.3758,-0.3753,0.0,-0.3381,-0.362,-0.2895,-0.2994,-0.3466,-0.27,-0.239,-0.2274,-0.1925,-0.1517,-0.1107,-0.069,-0.0573,-0.0514,-0.0113,0.0,0.0,0.0,0.0,0.0,0.0,0.0,0.0,0.0,0.0,0.0,0.0,0.0,0.0,0.0,0.0,0.0,0.0,0.0,0.0,0.0,0.0,0.0,0.0,0.0,0.0,0.0,0.0,0.0,0.0,0.0258,0.041,0.0393,0.0878,0.1352,0.1801,0.2137,0.2515,0.2968,0.308,0.3115,0.3182,0.3222,0.3256,0.3324,0.3652,0.389,0.4085,0.4872,0.5449,-1.3095,-1.39,-1.3978,-1.4362,-1.4377,-1.3681,-1.1305,-1.0327,-0.9647,-0.8307,-0.8027,-0.7976,-0.7872,-0.7511,-0.7353,-0.7558,-0.6747,-0.6208,-0.6649,-0.6709,-0.6844,-0.7,-0.7244,-0.7299,-0.7041,-0.7109,-0.7122,-0.6993,-0.6844,-0.6627,-0.6335,-0.6396,-0.639,-0.6345,-0.6132,-0.5983,-0.5833,-0.5098,-0.5087,-0.58,-0.4706,-0.4727,-0.561,-0.5338,-0.5216,-0.5145,0.0,0.0,-0.4882,-0.3537,-0.3768,-0.4822,-0.3508,-0.332,-0.3747,-0.3075,-0.2768,-0.2573,-0.161,-0.1301,-0.1176,-0.0284,0.0,0.0,0.0,0.0,0.0,0.0,0.0,0.0,0.0,0.0,0.0,0.0,0.0,0.0,0.0,0.0,0.0,0.0,0.0,0.0,0.0,0.0,0.0,0.0,0.0,0.0056,0.0112,0.0159,0.0149,0.0138,0.068,0.1049,0.1003,0.154,0.2047,0.2483,0.2562,0.2757,0.3108,0.3168,0.3202,0.3336,0.3378,0.3488,0.3581,0.3684,0.4224,0.5087,0.5144,0.5879,-1.2034,-1.3237,-1.4264,-1.5268,-1.4282,-1.2819,-1.1714,-1.0468,-0.9186,-0.834,-0.8398,-0.8645,-0.8606,-0.8955,-0.9222,-0.9265,-0.8754,-0.8398,-0.8628,-0.7834,-0.7312,-0.7468,-0.7529,-0.7543,-0.7489,-0.7394,0.0,0.0,0.0,-0.6932,-0.6641,-0.6417,-0.6288,-0.6338,-0.6234,-0.6146,-0.5989,-0.5841,-0.5775,-0.58,-0.5603,-0.5596,-0.5766,-0.5711,-0.5684,-0.5677,-0.5398,0.0,-0.5454,-0.4874,-0.4835,-0.5018,-0.4651,-0.4241,-0.3808,-0.3625,-0.3197,-0.2581,-0.1651,-0.1283,-0.1149,-0.0286,0.0,0.0,0.0,0.0,0.0,0.0,0.0,0.0,0.0,0.0,0.0,0.0,0.0,0.0,0.0,0.0,0.0,0.0,0.0,0.0,0.0,0.0,0.0,0.0,0.0,0.0224,0.0838,0.0918,0.0881,0.0745,0.139,0.1753,0.1666,0.2114,0.2401,0.2483,0.2982,0.3269,0.3269,0.3432,0.3514,0.3541,0.3541,0.3598,0.3581,0.4199,0.4353,0.4122,0.5722,0.6071,-1.3057,-1.3355,-1.3469,-1.4875,-1.3944,-1.2182,-1.0772,-0.9708,-0.8833,-0.807,-0.8416,-0.8804,-0.8804,-0.8767,-0.8834,-0.911,-0.8586,-0.8254,-0.8371,-0.7982,-0.7699,-0.7563,-0.7733,-0.7767,-0.7611,-0.7536,-0.7421,-0.7265,0.0,-0.6932,-0.6715,-0.6424,-0.6338,-0.6338,-0.6338,-0.6227,-0.6152,-0.6071,-0.603,-0.6037,-0.5874,-0.584,-0.5915,-0.584,-0.58,-0.58,-0.5732,0.0,-0.5691,-0.5542,-0.5481,-0.5467,-0.5325,-0.5068,-0.473,-0.4662,-0.444,-0.3913,-0.2526,-0.2011,-0.181,-0.0419,0.0,0.0,0.0,0.0,0.0,0.0,0.0,0.0,0.0,0.0,0.0,0.0,0.0,0.0,0.0,0.0,0.0,0.0,0.0,0.0,0.0,0.0,0.0115,0.0517,0.0566,0.0838,0.1564,0.2035,0.2095,0.161,0.2188,0.2529,0.2481,0.2885,0.3206,0.3278,0.3488,0.3615,0.3651,0.3771,0.3805,0.3805,0.3805,0.3805,0.3805,0.416,0.4534,0.4957,0.5914,0.6526,-1.4037,-1.3757,-1.2982,-1.4576,-1.3357,-1.1513,-0.997,-0.8996,-0.8269,-0.7804,-0.8262,-0.8804,-0.8804,-0.8438,-0.8279,-0.8918,-0.8312,-0.7845,-0.8181,-0.818,-0.7971,-0.7677,-0.7875,-0.795,-0.7712,-0.7638,0.0,-0.7258,0.0,0.0,-0.6709,-0.6451,-0.6308,-0.6308,-0.6274,-0.6338,-0.6338,-0.6139,-0.6139,-0.6331,-0.6017,-0.5962,-0.6078,-0.5956,-0.5901,-0.5901,-0.5867,0.0,0.0,-0.5813,-0.58,-0.5793,-0.5677,-0.5637,-0.5616,-0.5467,-0.5292,-0.4882,-0.3275,-0.2598,-0.2147,-0.0508,0.0,0.0,0.0,0.0,0.0,0.0,0.0,0.0,0.0,0.0,0.0,0.0,0.0,0.0,0.0,0.0,0.0,0.0,0.0,0.0,0.0,0.018,0.047,0.0998,0.1263,0.1633,0.2345,0.3007,0.3199,0.2737,0.3091,0.3349,0.3279,0.3617,0.3894,0.4016,0.3907,0.3894,0.4016,0.4022,0.4022,0.4022,0.4022,0.4022,0.4022,0.42,0.4815,0.5849,0.6196,0.6974,-1.3723,-1.4109,-1.4166,-1.5068,-1.2942,-1.0573,-1.0645,-0.8807,-0.7172,-0.7614,-0.8262,-0.8804,-0.8804,-0.8778,-0.9095,-1.0203,-0.9357,-0.8797,-0.9663,-0.8835,-0.8089,-0.7815,-0.7936,-0.8031,-0.8004,-0.7753,-0.759,-0.7556,0.0,0.0,-0.6709,-0.6539,-0.6451,-0.6451,-0.6329,-0.6338,-0.6338,-0.6247,-0.6247,-0.6338,-0.6234,-0.6227,-0.624,-0.6227,-0.622,-0.6213,-0.6071,0.0,0.0,-0.5861,-0.58,-0.58,-0.5786,-0.5779,-0.5766,-0.5623,-0.5014,-0.4151,-0.3055,-0.2172,-0.1242,-0.0337,0.0,0.0,0.0,0.0,0.0,0.0,0.0,0.0,0.0,0.0,0.0,0.0,0.0,0.0,0.0,0.0,0.0,0.0,0.0,0.0,0.0,0.0661,0.1176,0.1115,0.1814,0.26,0.3132,0.3289,0.3561,0.4216,0.4167,0.403,0.3929,0.3959,0.4002,0.4016,0.4009,0.4009,0.4022,0.4022,0.4022,0.4022,0.4022,0.4022,0.4022,0.4817,0.525,0.5414,0.6849,0.7287,-1.4592,-1.4643,-1.4374,-1.5373,-1.3322,-1.113,-1.1408,-0.94,-0.7678,-0.8259,-0.8593,-0.8804,-0.8804,-0.8804,-0.8908,-0.9219,-0.8693,-0.8392,-0.8941,-0.8702,-0.8333,-0.8223,-0.8464,-0.8475,-0.7889,0.0,-0.7651,0.0,0.0,0.0,-0.6966,-0.6654,-0.643,-0.6349,-0.6288,-0.6338,-0.6338,-0.6338,-0.6302,-0.639,-0.639,-0.6437,-0.6525,-0.6525,-0.6478,-0.6383,-0.6322,0.0,0.0,-0.5442,-0.5202,-0.526,-0.5104,-0.5041,-0.5029,-0.4836,-0.4533,-0.3979,-0.2409,-0.1614,-0.1186,-0.0277,0.0,0.0,0.0,0.0,0.0,0.0,0.0,0.0,0.0,0.0,0.0,0.0,0.0,0.0,0.0,0.0,0.0,0.0,0.0,0.0193,0.0713,0.1078,0.1614,0.2598,0.3049,0.352,0.4041,0.4137,0.4219,0.447,0.4409,0.4355,0.4294,0.4206,0.4192,0.428,0.4206,0.4199,0.428,0.4287,0.4287,0.4287,0.4287,0.4287,0.4287,0.4663,0.5015,0.5436,0.6538,0.7128,-1.472,-1.4765,-1.4506,-1.5022,-1.3233,-1.1329,-1.1497,-0.9618,-0.8038,-0.8685,-0.8804,-0.8804,-0.8804,-0.8804,-0.8695,-0.8408,-0.8155,-0.8121,-0.8313,-0.8322,-0.8394,-0.8709,-0.8609,-0.8459,-0.8203,-0.7938,-0.7645,0.0,0.0,0.0,0.0,-0.6776,-0.6539,-0.6396,-0.6308,-0.6338,-0.6338,-0.6302,-0.6376,-0.6471,-0.6519,-0.643,-0.6197,-0.6197,-0.6141,-0.5966,0.0,0.0,0.0,-0.4862,-0.4465,-0.4839,-0.4332,-0.4109,-0.4095,-0.3852,-0.3618,-0.3261,-0.1827,-0.1155,-0.0786,-0.0213,0.0,0.0,0.0,0.0,0.0,0.0,0.0,0.0,0.0,0.0,0.0,0.0,0.0,0.0,0.0,0.0,0.0,0.0,0.0201,0.06,0.1205,0.1768,0.2503,0.3653,0.4034,0.4296,0.4656,0.4694,0.4633,0.4532,0.4519,0.4519,0.4519,0.4368,0.4355,0.4512,0.4368,0.4355,0.4512,0.4519,0.4519,0.4519,0.4519,0.4519,0.4519,0.4677,0.5164,0.5819,0.6578,0.7343,-1.3506,-1.4309,-1.4763,-1.3881,-1.2209,-1.0783,-1.0639,-0.9124,-0.7889,-0.8646,-0.8804,-0.8804,-0.8804,-0.8804,-0.8684,-0.8237,-0.8316,-0.8376,-0.8209,-0.7852,-0.8061,-0.9323,-0.806,-0.7617,-0.8955,-0.816,-0.7536,0.0,0.0,0.0,0.0,-0.6926,-0.6851,-0.6702,-0.641,-0.6338,-0.6338,-0.6403,-0.6471,-0.6471,-0.6627,-0.6114,-0.4944,-0.4944,-0.4944,0.0,0.0,0.0,0.0,-0.4082,-0.3802,-0.4768,-0.3545,-0.3122,-0.3115,-0.2968,-0.2376,-0.1633,-0.1407,-0.074,0.0,0.0,0.0,0.0,0.0,0.0,0.0,0.0,0.0,0.0,0.0,0.0,0.0,0.0,0.0,0.0,0.0,0.0,0.0,0.0,0.0724,0.13,0.1267,0.281,0.3908,0.3844,0.455,0.502,0.4728,0.4694,0.4633,0.4532,0.4519,0.4519,0.4519,0.4519,0.4519,0.4519,0.4519,0.4519,0.4519,0.4519,0.4519,0.4519,0.4519,0.4519,0.4519,0.5164,0.5873,0.6588,0.7343,0.8103,-1.2238,-1.2786,-1.3026,-1.2545,-1.155,-1.0575,-1.0305,-0.9328,-0.854,-0.8752,-0.8804,-0.8804,-0.8804,-0.8804,-0.8695,-0.8408,-0.8364,-0.8387,-0.8199,-0.8308,-0.8799,-0.9833,-0.9453,-0.8933,0.0,0.0,0.0,0.0,0.0,0.0,0.0,-0.698,-0.681,-0.6552,-0.6458,-0.6041,-0.5234,-0.528,-0.4976,-0.4389,-0.4409,-0.4226,-0.4027,-0.4027,0.0,0.0,0.0,0.0,0.0,-0.3046,-0.2864,-0.3882,-0.2542,-0.2113,-0.2033,-0.202,-0.1869,-0.1486,-0.0693,-0.0229,0.0,0.0,0.0,0.0,0.0,0.0,0.0,0.0,0.0,0.0,0.0,0.0,0.0,0.0,0.0,0.0,0.0,0.0471,0.0873,0.0873,0.1599,0.2454,0.3072,0.3652,0.4224,0.4826,0.5153,0.5216,0.5013,0.4904,0.4789,0.4633,0.458,0.4519,0.4519,0.4519,0.4519,0.4519,0.4519,0.4519,0.4519,0.4519,0.4519,0.4519,0.4519,0.4519,0.4519,0.4732,0.5445,0.6642,0.7343,0.8103,-1.0969,-1.1583,-1.1877,-1.1476,-1.0875,-1.0287,-0.9873,-0.9285,-0.8699,-0.8434,-0.8368,-0.8368,-0.8368,-0.8156,-0.8021,-0.8269,-0.8119,-0.8171,-0.8614,-0.8403,-0.8447,-0.8932,-0.9332,0.0,0.0,0.0,0.0,0.0,0.0,0.0,0.0,-0.6973,-0.679,-0.6485,-0.6525,-0.5996,-0.4673,-0.4824,-0.4347,-0.3394,-0.3902,-0.3703,-0.2948,-0.3393,0.0,0.0,0.0,0.0,0.0,-0.1944,-0.1755,-0.2756,-0.1531,-0.1028,-0.1019,-0.1019,-0.1019,-0.0862,-0.0235,0.0,0.0,0.0,0.0,0.0,0.0,0.0,0.0,0.0,0.0,0.0,0.0,0.0,0.0,0.0,0.0,0.0,0.0,0.0671,0.1274,0.1274,0.2342,0.3347,0.388,0.4284,0.4755,0.5292,0.5425,0.5304,0.5148,0.5053,0.4918,0.4714,0.4606,0.458,0.4525,0.4519,0.4519,0.4519,0.4519,0.4519,0.4519,0.4519,0.4519,0.4519,0.4519,0.4519,0.4519,0.5007,0.5882,0.702,0.7783,0.8368,0.0,-1.0558,-1.1116,-1.0568,-1.0234,-0.9873,-0.9283,-0.9005,0.0,-0.7943,-0.7783,-0.7783,-0.7794,-0.7192,-0.7051,-0.8173,-0.783,-0.7907,-0.9233,-0.8333,-0.7459,-0.7211,-0.8271,0.0,-0.7647,0.0,0.0,0.0,0.0,0.0,0.0,-0.6946,-0.681,-0.6512,-0.6654,-0.6065,-0.4698,-0.4984,-0.4493,-0.3466,-0.4599,-0.3931,-0.188,-0.2858,0.0,0.0,0.0,0.0,0.0,-0.1051,-0.0772,-0.1673,-0.0492,0.0,0.0,0.0,0.0,0.0,0.0,0.0,0.0,0.0,0.0,0.0,0.0,0.0,0.0,0.0,0.0,0.0,0.0,0.0,0.0,0.0,0.0,0.0,0.0068,0.0806,0.1408,0.1475,0.2876,0.4084,0.4084,0.4821,0.5425,0.5425,0.5425,0.5311,0.5169,0.5135,0.5026,0.4748,0.4714,0.4646,0.4546,0.4525,0.4519,0.4519,0.4519,0.4519,0.4519,0.4519,0.4519,0.4519,0.4519,0.4519,0.4574,0.5946,0.6987,0.7753,0.8538,0.8871,-0.8391,0.0,-0.9392,-0.9259,-0.9165,-0.9085,0.0,-0.8858,-0.8752,-0.8593,-0.854,-0.8605,-0.8825,-0.8075,-0.794,-0.9427,-0.9041,-0.8583,-0.8643,-0.9473,-0.9966,-0.9665,-1.0448,-1.0399,-0.8746,0.0,0.0,0.0,0.0,0.0,0.0,-0.7088,-0.7007,-0.6824,-0.6959,-0.6342,-0.4859,-0.4914,-0.4511,-0.3552,-0.2922,-0.2325,-0.1791,-0.1165,0.0,0.0,0.0,0.0,-0.2142,-0.1575,-0.1541,-0.1673,-0.0492,0.0,0.0,0.0,0.0,0.0,0.0,0.0,0.0,0.0,0.0,0.0,0.0,0.0,0.0,0.0,0.0,0.0,0.0,0.0,0.0,0.0,0.0,0.0214,0.0882,0.1743,0.2542,0.3213,0.4284,0.5087,0.5087,0.5226,0.5425,0.5425,0.5425,0.5418,0.5311,0.5203,0.5101,0.5033,0.4931,0.4802,0.4653,0.4587,0.4519,0.4519,0.4519,0.4519,0.4519,0.4519,0.4519,0.4519,0.4519,0.4732,0.5273,0.6416,0.7343,0.8078,0.9028,0.9472,-0.7836,-0.835,-0.8897,-0.8626,-0.8517,-0.8613,-0.8897,-0.8631,-0.8315,-0.8315,-0.8315,-0.8404,-0.8682,-0.7711,-0.7462,-0.9297,-0.8657,-0.7982,-0.8024,-0.9011,-0.9535,-0.8948,-0.9328,-0.9192,0.0,0.0,0.0,0.0,0.0,0.0,0.0,-0.7041,-0.6973,-0.6831,-0.6831,-0.6273,-0.5007,-0.5124,-0.4601,-0.3601,-0.2933,-0.2325,-0.1791,-0.1165,-0.0538,0.0,0.0,0.0,-0.0985,-0.0974,-0.0957,-0.0937,-0.0253,0.0,0.0,0.0,0.0,0.0,0.0,0.0,0.0,0.0,0.0,0.0,0.0,0.0,0.0,0.0,0.0,0.0,0.0,0.0,0.0,0.0,0.0367,0.0864,0.1241,0.239,0.3533,0.3889,0.4803,0.5467,0.5467,0.5521,0.5542,0.5474,0.5467,0.544,0.5439,0.5291,0.5209,0.5135,0.506,0.4958,0.4809,0.4721,0.4613,0.4525,0.4519,0.4553,0.4565,0.4553,0.4553,0.4565,0.4633,0.5013,0.5743,0.6316,0.7186,0.8281,0.8829,0.9324,-0.7396,-0.8105,-0.877,-0.8126,-0.797,-0.8149,-0.8682,-0.8154,-0.7503,-0.7503,-0.7538,-0.7683,-0.7958,-0.6855,-0.6488,-0.8493,-0.7739,-0.7085,-0.7915,-0.8209,-0.8195,-0.7629,-0.751,0.0,0.0,0.0,0.0,0.0,0.0,0.0,0.0,-0.6959,-0.6898,-0.677,-0.6641,-0.6108,-0.5124,-0.5452,-0.5142,-0.4105,-0.3749,-0.3037,-0.2057,-0.1701,-0.0986,0.0,0.0,0.0,0.0,-0.018,-0.0177,0.0,0.0,0.0,0.0,0.0,0.0,0.0,0.0,0.0,0.0,0.0,0.0,0.0,0.0,0.0,0.0,0.0,0.0,0.0,0.0,0.0,0.0076,0.0227,0.0967,0.1595,0.1687,0.307,0.4229,0.4266,0.495,0.5596,0.5616,0.5725,0.5752,0.561,0.561,0.5569,0.5413,0.5466,0.5345,0.5216,0.5182,0.5108,0.4965,0.4952,0.483,0.4551,0.4587,0.4592,0.4721,0.4599,0.4592,0.4721,0.485,0.5275,0.5992,0.6017,0.681,0.8244,0.8337,0.8777,-0.6027,-0.67,-0.7496,-0.6949,-0.7001,-0.7084,-0.7007,-0.6879,-0.675,-0.675,-0.6894,-0.7094,-0.7249,-0.6676,-0.6563,-0.7916,-0.7751,-0.8018,0.0,0.0,-0.9165,-0.9836,0.0,0.0,0.0,0.0,0.0,0.0,0.0,0.0,0.0,-0.7109,-0.7095,-0.7075,-0.7048,-0.6443,-0.5333,-0.6105,-0.655,-0.6511,-0.455,-0.3482,-0.3215,-0.1165,-0.018,0.0,0.0,-0.0986,-0.009,-0.1076,-0.0885,0.0,0.0,0.0,0.0,0.0,0.0,0.0,0.0,0.0,0.0,0.0,0.0,0.0,0.0,0.0,0.0,0.0,0.0,0.0,0.0,0.0,0.0233,0.1139,0.1506,0.2001,0.3455,0.3978,0.4458,0.5211,0.5507,0.563,0.5745,0.5786,0.5752,0.561,0.5691,0.5718,0.5576,0.5555,0.5549,0.5521,0.5406,0.5264,0.5108,0.5101,0.5026,0.4857,0.485,0.4857,0.4884,0.4863,0.4857,0.4884,0.4904,0.5275,0.5992,0.6203,0.6777,0.7644,0.7954,0.8504,-0.5592,-0.5684,-0.586,-0.5636,-0.6072,-0.6595,-0.6902,-0.6558,-0.6295,-0.6749,-0.6962,-0.7071,-0.731,-0.6786,-0.649,-0.6974,-0.7118,-0.7392,-0.8287,-0.8082,-0.7951,0.0,0.0,0.0,0.0,0.0,0.0,0.0,0.0,0.0,0.0,0.0,-0.7068,-0.6905,-0.6905,-0.6642,-0.6129,-0.584,-0.5565,-0.5171,-0.3482,-0.2591,-0.2591,-0.0808,0.0,0.0,0.0,-0.0538,0.0,-0.0628,-0.0535,0.0,0.0,0.0,0.0,0.0,0.0,0.0,0.0,0.0,0.0,0.0,0.0,0.0,0.0,0.0,0.0,0.0,0.0,0.0,0.0,0.0,0.0157,0.0619,0.1157,0.1984,0.3231,0.393,0.4637,0.5506,0.5772,0.5847,0.5915,0.5996,0.5996,0.5847,0.5881,0.5874,0.5725,0.5705,0.5677,0.5596,0.5528,0.542,0.527,0.5257,0.5162,0.4931,0.4992,0.4999,0.4925,0.5074,0.5121,0.5033,0.5114,0.5346,0.5657,0.5796,0.6278,0.704,0.7196,0.7831,-0.5273,-0.496,-0.4694,-0.4694,-0.5329,-0.6053,-0.6639,-0.6216,-0.5891,-0.6572,-0.6741,-0.6804,-0.6938,-0.6569,-0.6226,-0.6367,-0.6532,-0.6736,-0.6844,-0.6824,-0.6858,0.0,0.0,0.0,0.0,0.0,0.0,0.0,0.0,0.0,0.0,0.0,-0.6973,-0.6709,-0.6736,-0.6582,-0.6331,-0.5173,-0.4398,-0.3897,-0.2497,-0.1791,-0.1791,-0.0538,0.0,0.0,0.0,0.0,0.0,0.0,0.0,0.0,0.0,0.0,0.0,0.0,0.0,0.0,0.0,0.0,0.0,0.0,0.0,0.0,0.0,0.0,0.0,0.0,0.0,0.0,0.0,0.0,0.0079,0.0314,0.1019,0.1869,0.2731,0.3543,0.4417,0.5286,0.5574,0.5738,0.6002,0.6179,0.6207,0.6051,0.6057,0.603,0.5874,0.5854,0.5813,0.5705,0.5657,0.5576,0.5426,0.5452,0.5264,0.504,0.5121,0.5135,0.5026,0.5243,0.5304,0.5189,0.5304,0.5446,0.5413,0.5413,0.5829,0.6522,0.6522,0.7,-0.4574,-0.4628,-0.4694,-0.4694,-0.4862,-0.5013,-0.5206,-0.5345,-0.545,-0.5522,-0.5747,-0.5748,-0.5331,-0.5505,-0.5837,-0.6363,-0.6593,-0.6844,-0.7265,0.0,0.0,0.0,0.0,0.0,0.0,0.0,0.0,0.0,0.0,0.0,0.0,0.0,0.0,-0.6709,-0.6837,-0.6392,-0.5261,-0.4222,-0.4142,-0.4937,-0.2834,-0.1791,-0.1791,-0.0538,0.0,0.0,0.0,0.0,0.0,0.0,0.0,0.0,0.0,0.0,0.0,0.0,0.0,0.0,0.0,0.0,0.0,0.0,0.0,0.0,0.0,0.0,0.0,0.0,0.0,0.0,0.0,0.0,0.0235,0.1254,0.1568,0.1869,0.2731,0.2941,0.3317,0.4358,0.4587,0.493,0.6066,0.6254,0.6207,0.6051,0.6152,0.6186,0.603,0.6017,0.601,0.5996,0.5874,0.5732,0.5589,0.5447,0.5418,0.5397,0.5404,0.5404,0.5397,0.5418,0.5425,0.5411,0.5425,0.5433,0.5576,0.5576,0.5713,0.5837,0.5837,0.6343,-0.4519,-0.4646,-0.483,-0.483,-0.5013,-0.5237,-0.5379,-0.546,-0.5555,-0.5739,-0.5942,-0.6003,-0.5739,-0.5786,-0.5996,-0.6403,-0.6681,-0.6932,-0.719,0.0,0.0,0.0,0.0,0.0,0.0,0.0,0.0,0.0,0.0,0.0,0.0,0.0,0.0,-0.6566,-0.6797,-0.6623,-0.6105,-0.4329,-0.3664,-0.398,-0.1774,-0.0718,-0.0628,-0.018,0.0,0.0,0.0,0.0,0.0,0.0,0.0,0.0,0.0,0.0,0.0,0.0,0.0,0.0,0.0,0.0,0.0,0.0,0.0,0.0,0.0,0.0,0.0,0.0,0.0,0.0,0.0,0.0,0.0081,0.049,0.0642,0.0864,0.1895,0.2109,0.2626,0.4313,0.4624,0.4947,0.6093,0.6338,0.624,0.6179,0.622,0.624,0.6179,0.6173,0.6139,0.6037,0.5895,0.5779,0.5725,0.5671,0.5596,0.5508,0.5413,0.5425,0.5425,0.5425,0.5425,0.5425,0.5454,0.5535,0.5589,0.5677,0.5745,0.58,0.58,0.5999,-0.4519,-0.4653,-0.4857,-0.4904,-0.5142,-0.5507,-0.5732,-0.58,-0.5888,-0.6179,-0.6254,-0.6227,-0.6125,-0.6064,-0.6125,0.0,-0.6729,-0.698,0.0,0.0,0.0,0.0,0.0,0.0,0.0,0.0,0.0,0.0,0.0,0.0,0.0,0.0,0.0,0.0,-0.6702,-0.6803,-0.6702,-0.4565,-0.3409,-0.3409,-0.1069,0.0,0.0,0.0,0.0,0.0,0.0,0.0,0.0,0.0,0.0,0.0,0.0,0.0,0.0,0.0,0.0,0.0,0.0,0.0,0.0,0.0,0.0,0.0,0.0,0.0,0.0,0.0,0.0,0.0,0.0,0.0,0.0,0.0,0.0,0.0322,0.139,0.1701,0.2314,0.4353,0.4742,0.5123,0.6112,0.6338,0.6338,0.6338,0.6338,0.6338,0.6338,0.6338,0.622,0.6112,0.5962,0.5874,0.5874,0.5827,0.5759,0.5664,0.5555,0.5481,0.5433,0.5433,0.5454,0.5501,0.5603,0.5677,0.5732,0.5827,0.5901,0.5949,0.5949,0.6003,-0.4519,-0.4572,-0.4728,-0.4884,-0.5148,-0.559,-0.6201,-0.6338,-0.6342,-0.6641,-0.6471,-0.6338,-0.6345,-0.6139,-0.6132,-0.6424,-0.6729,-0.698,0.0,0.0,0.0,0.0,0.0,0.0,0.0,0.0,0.0,0.0,0.0,0.0,0.0,0.0,0.0,0.0,-0.6546,-0.6702,-0.6702,-0.4628,-0.3568,-0.3568,-0.1165,0.0,0.0,0.0,0.0,0.0,0.0,0.0,0.0,0.0,0.0,0.0,0.0,0.0,0.0,0.0,0.0,0.0,0.0,0.0,0.0,0.0,0.0,0.0,0.0,0.0,0.0,0.0,0.0,0.0,0.0,0.0,0.0,0.0,0.0,0.0336,0.1511,0.176,0.2413,0.4475,0.4859,0.5223,0.6132,0.6338,0.6261,0.6338,0.6338,0.6338,0.6338,0.6338,0.6338,0.6345,0.6125,0.603,0.603,0.5895,0.5806,0.58,0.58,0.5739,0.5596,0.5589,0.5657,0.58,0.58,0.5881,0.603,0.603,0.6112,0.6338,0.6338,0.6338,-0.4519,-0.4653,-0.4884,-0.5033,-0.5372,-0.5772,-0.6173,-0.6338,-0.6376,-0.6776,-0.662,-0.6444,-0.6552,-0.6444,-0.6403,-0.66,-0.6797,0.0,0.0,0.0,0.0,0.0,0.0,0.0,0.0,0.0,0.0,0.0,0.0,0.0,0.0,0.0,0.0,0.0,-0.66,-0.6702,-0.6702,-0.4578,-0.3415,-0.333,-0.1045,0.0,0.0,0.0,0.0,0.0,0.0,0.0,0.0,0.0,0.0,0.0,0.0,0.0,0.0,0.0,0.0,0.0,0.0,0.0,0.0,0.0,0.0,0.0,0.0,0.0,0.0,0.0,0.0,0.0,0.0,0.0,0.0,0.0,0.0,0.0085,0.0429,0.1091,0.2055,0.356,0.4421,0.525,0.6258,0.641,0.6376,0.6274,0.6338,0.6295,0.6396,0.641,0.6451,0.6559,0.6342,0.6234,0.6335,0.6207,0.6078,0.5969,0.5962,0.5895,0.5745,0.5739,0.5759,0.58,0.5908,0.5983,0.603,0.6139,0.6213,0.6338,0.6338,0.6338,-0.4519,-0.4728,-0.504,-0.5182,-0.5603,-0.6064,-0.6369,-0.6525,-0.6688,-0.6959,-0.6824,-0.6661,-0.6695,-0.6573,0.0,-0.6675,-0.6776,0.0,0.0,0.0,0.0,0.0,0.0,0.0,0.0,0.0,0.0,0.0,0.0,0.0,0.0,0.0,0.0,0.0,-0.6532,-0.6607,-0.6607,-0.4499,-0.335,-0.3266,-0.1032,0.0,0.0,0.0,0.0,0.0,0.0,0.0,0.0,0.0,0.0,0.0,0.0,0.0,0.0,0.0,0.0,0.0,0.0,0.0,0.0,0.0,0.0,0.0,0.0,0.0,0.0,0.0,0.0,0.0,0.0,0.0,0.0,0.0,0.0,0.0174,0.0614,0.1635,0.2698,0.3775,0.4889,0.5791,0.6331,0.639,0.6363,0.6352,0.6308,0.6376,0.6464,0.6525,0.66,0.6688,0.6539,0.6471,0.6559,0.6485,0.6369,0.6213,0.6207,0.6139,0.5989,0.5922,0.5922,0.5983,0.6078,0.6125,0.6125,0.6213,0.6338,0.6338,0.6338,0.6338,-0.4532,-0.4789,-0.5155,-0.5352,-0.5867,-0.6396,-0.6675,-0.6946,-0.7136,-0.7122,-0.7021,-0.6885,-0.6749,-0.66,-0.6539,-0.6675,0.0,0.0,0.0,0.0,0.0,0.0,0.0,0.0,0.0,0.0,0.0,0.0,0.0,0.0,0.0,0.0,0.0,-0.6268,-0.6383,-0.6451,-0.6451,-0.4526,-0.3413,0.0,-0.111,-0.0086,0.0,0.0,0.0,0.0,0.0,0.0,0.0,0.0,0.0,0.0,0.0,0.0,0.0,0.0,0.0,0.0,0.0,0.0,0.0,0.0,0.0,0.0,0.0,0.0,0.0,0.0,0.0,0.0,0.0,0.0,0.0,0.0,0.0,0.0269,0.1429,0.2672,0.3784,0.4657,0.5794,0.6634,0.6349,0.6315,0.6315,0.6302,0.6424,0.6512,0.6512,0.6634,0.6729,0.6742,0.6715,0.6709,0.6722,0.6709,0.6634,0.6485,0.6471,0.641,0.6345,0.6125,0.6118,0.6331,0.6338,0.6338,0.6338,0.6338,0.6338,0.6338,0.6338,0.6338,-0.4606,-0.4802,-0.5081,-0.5583,-0.6254,-0.6831,-0.7007,-0.7095,-0.7109,-0.7,-0.6953,-0.6919,-0.6885,-0.6756,-0.6661,-0.6695,0.0,0.0,0.0,0.0,0.0,0.0,0.0,0.0,0.0,0.0,0.0,0.0,0.0,0.0,0.0,0.0,0.0,-0.6331,-0.6288,-0.6308,-0.6308,-0.5067,-0.3968,0.0,-0.1873,-0.0825,0.0,0.0,0.0,0.0,0.0,0.0,0.0,0.0,0.0,0.0,0.0,0.0,0.0,0.0,0.0,0.0,0.0,0.0,0.0,0.0,0.0,0.0,0.0,0.0,0.0,0.0,0.0,0.0,0.0,0.0,0.0,0.0,0.0,0.0088,0.035,0.1921,0.3476,0.3793,0.5502,0.6824,0.6634,0.6709,0.6742,0.6627,0.6736,0.6831,0.6831,0.6858,0.6919,0.7034,0.6837,0.6749,0.6871,0.677,0.6634,0.6485,0.6471,0.641,0.6345,0.6227,0.6227,0.6261,0.6338,0.6338,0.6338,0.6338,0.6338,0.6338,0.6338,0.6338,-0.4558,-0.4796,-0.5182,-0.5854,-0.6478,-0.6946,-0.7021,-0.7041,-0.7021,-0.6946,-0.6926,-0.6885,-0.6736,-0.6647,-0.6593,0.0,0.0,0.0,0.0,0.0,0.0,0.0,0.0,0.0,0.0,0.0,0.0,0.0,0.0,0.0,0.0,-0.5989,-0.6064,-0.6146,-0.622,-0.6338,-0.6338,-0.5234,-0.4137,-0.3125,-0.2086,-0.1062,0.0,0.0,0.0,0.0,0.0,0.0,0.0,0.0,0.0,0.0,0.0,0.0,0.0,0.0,0.0,0.0,0.0,0.0,0.0,0.0,0.0,0.0,0.0,0.0,0.0,0.0,0.0,0.0,0.0,0.0,0.0,0.0,0.0,0.0177,0.0706,0.2183,0.3462,0.4153,0.5616,0.6709,0.6702,0.677,0.679,0.6715,0.6831,0.6926,0.6926,0.6987,0.7061,0.7136,0.7,0.6946,0.7021,0.6959,0.6851,0.6702,0.6688,0.6593,0.6369,0.6363,0.6329,0.6261,0.6338,0.6338,0.6338,0.6338,0.6338,0.6338,0.6329,0.6363,-0.4553,-0.485,-0.5372,-0.6051,-0.6539,-0.6858,-0.6885,-0.6892,-0.6878,-0.6858,-0.6851,-0.677,-0.6519,-0.6451,-0.6437,0.0,0.0,0.0,0.0,0.0,0.0,0.0,0.0,0.0,0.0,0.0,0.0,0.0,0.0,0.0,-0.5766,-0.5888,-0.5962,-0.5989,-0.6118,-0.6179,-0.6179,-0.5325,-0.425,-0.3027,-0.1914,-0.09,0.0,0.0,0.0,0.0,0.0,0.0,0.0,0.0,0.0,0.0,0.0,0.0,0.0,0.0,0.0,0.0,0.0,0.0,0.0,0.0,0.0,0.0,0.0,0.0,0.0,0.0,0.0,0.0,0.0,0.0,0.0,0.0,0.018,0.0628,0.1604,0.2815,0.4,0.4932,0.5877,0.66,0.6749,0.6756,0.6749,0.677,0.6885,0.6966,0.6966,0.7068,0.7143,0.7143,0.7143,0.7143,0.7143,0.7143,0.7082,0.6939,0.6926,0.679,0.6485,0.6471,0.6417,0.6302,0.6352,0.6338,0.6338,0.6288,0.6295,0.6302,0.6444,0.6512,-0.4626,-0.5087,-0.5616,-0.5969,-0.6302,-0.6566,-0.6702,-0.6729,-0.6695,-0.6559,-0.6532,-0.6519,-0.6478,-0.6369,0.0,0.0,0.0,0.0,0.0,0.0,0.0,0.0,0.0,0.0,0.0,0.0,0.0,0.0,0.0,0.0,-0.5616,-0.5637,-0.5705,-0.5827,-0.5854,-0.5861,-0.5861,-0.5716,-0.4741,-0.2882,-0.109,-0.016,0.0,0.0,0.0,0.0,0.0,0.0,0.0,0.0,0.0,0.0,0.0,0.0,0.0,0.0,0.0,0.0,0.0,0.0,0.0,0.0,0.0,0.0,0.0,0.0,0.0,0.0,0.0,0.0,0.0,0.0,0.0,0.0,0.0808,0.1604,0.1748,0.352,0.5132,0.5297,0.6202,0.6912,0.7054,0.698,0.6939,0.7061,0.7102,0.7109,0.7109,0.7129,0.7143,0.7143,0.7143,0.7143,0.7143,0.7143,0.7082,0.6939,0.6926,0.679,0.6485,0.6471,0.6464,0.6444,0.6322,0.6338,0.6338,0.6383,0.6444,0.6451,0.66,0.6668,-0.4646,-0.4945,-0.5264,-0.5474,-0.5813,-0.6139,-0.6288,-0.6322,-0.6356,-0.6451,-0.6268,-0.6152,-0.6322,-0.6302,0.0,0.0,0.0,0.0,0.0,0.0,0.0,0.0,0.0,0.0,0.0,0.0,0.0,0.0,0.0,-0.546,-0.546,-0.5542,-0.5616,-0.5684,-0.5759,-0.58,-0.58,-0.58,-0.4848,-0.2869,-0.0917,0.0,0.0,0.0,0.0,0.0,0.0,0.0,0.0,0.0,0.0,0.0,0.0,0.0,0.0,0.0,0.0,0.0,0.0,0.0,0.0,0.0,0.0,0.0,0.0,0.0,0.0,0.0,0.0,0.0,0.0,0.0538,0.0986,0.0986,0.2415,0.3831,0.3795,0.4568,0.5405,0.5972,0.6583,0.7041,0.7021,0.7034,0.7068,0.7129,0.7143,0.7143,0.7143,0.7143,0.7143,0.7143,0.7143,0.7143,0.7143,0.7143,0.7115,0.7048,0.7048,0.6953,0.6736,0.6729,0.6688,0.66,0.6458,0.6424,0.6505,0.6573,0.66,0.6607,0.6756,0.6831,-0.4599,-0.4748,-0.4897,-0.504,-0.5359,-0.5684,-0.5874,-0.5915,-0.5989,-0.6247,-0.6037,-0.5874,-0.6105,-0.6146,0.0,0.0,0.0,0.0,0.0,0.0,0.0,0.0,0.0,0.0,0.0,0.0,0.0,0.0,0.0,-0.5425,-0.5425,-0.5467,-0.5535,-0.5535,-0.5637,-0.5691,-0.5691,-0.5222,-0.4277,-0.2814,-0.0901,0.0,0.0,0.0,0.0,0.0,0.0,0.0,0.0,0.0,0.0,0.0,0.0,0.0,0.0,0.0,0.0,0.0,0.0,0.0,0.0,0.0,0.0,0.0,0.0,0.0,0.0,0.0,0.0,0.0,0.0,0.0628,0.1433,0.1701,0.3396,0.5087,0.5714,0.5731,0.5809,0.6662,0.6987,0.7109,0.7,0.7068,0.7143,0.7143,0.7143,0.7143,0.7143,0.7143,0.7143,0.7143,0.7143,0.7143,0.7143,0.7143,0.7143,0.7143,0.7143,0.7075,0.6932,0.6926,0.6871,0.6763,0.6647,0.6627,0.6702,0.6742,0.6756,0.6763,0.6912,0.698,-0.4525,-0.4585,-0.4741,-0.4891,-0.5047,-0.5243,-0.5542,-0.561,-0.5657,-0.5806,-0.582,-0.5806,-0.582,-0.5827,0.0,0.0,0.0,0.0,0.0,0.0,0.0,0.0,0.0,0.0,0.0,0.0,0.0,0.0,0.0,-0.5425,-0.5425,-0.5432,-0.5439,-0.5439,-0.5446,-0.5452,-0.5452,-0.3724,-0.2799,-0.2665,-0.0887,0.0,0.0,0.0,0.0,0.0,0.0,0.0,0.0,0.0,0.0,0.0,0.0,0.0,0.0,0.0,0.0,0.0,0.0,0.0,0.0,0.0,0.0,0.0,0.0,0.0,0.0,0.0,0.0,0.0,0.0,0.009,0.0359,0.1522,0.2769,0.4283,0.6511,0.7041,0.7034,0.7027,0.7129,0.7136,0.7129,0.7136,0.7143,0.7143,0.7143,0.7143,0.7143,0.7143,0.7143,0.7143,0.7143,0.7143,0.7143,0.7143,0.7143,0.7143,0.7143,0.7075,0.6932,0.6926,0.6926,0.6919,0.6912,0.6837,0.6702,0.6844,0.6919,0.6919,0.7061,0.7129,-0.4519,-0.456,-0.4558,-0.4613,-0.4741,-0.4904,-0.5114,-0.5162,-0.523,-0.5467,-0.544,-0.5399,-0.5501,0.0,0.0,0.0,0.0,0.0,0.0,0.0,0.0,0.0,0.0,0.0,0.0,0.0,0.0,0.0,0.0,0.0,-0.5425,-0.5425,-0.5425,-0.5425,-0.5425,-0.5425,-0.5425,-0.4193,-0.3251,-0.272,-0.146,-0.0526,0.0,0.0,0.0,0.0,0.0,0.0,0.0,0.0,0.0,0.0,0.0,0.0,0.0,0.0,0.0,0.0,0.0,0.0,0.0,0.0,0.0,0.0,0.0,0.0,0.0,0.0,0.0,0.0,0.0,0.1165,0.2769,0.4727,0.5531,0.6068,0.6959,0.7143,0.7143,0.7143,0.7143,0.7143,0.7143,0.7143,0.7143,0.7143,0.7143,0.7143,0.7143,0.7143,0.7143,0.7143,0.7143,0.7143,0.7143,0.7143,0.7143,0.7143,0.7143,0.7115,0.7068,0.7061,0.7061,0.7061,0.7061,0.7041,0.6987,0.7041,0.7061,0.7068,0.7115,0.7143,-0.4408,-0.4519,-0.4519,-0.4519,-0.4538,-0.4653,-0.4809,-0.4843,-0.4911,-0.5162,-0.5128,-0.5087,-0.5196,0.0,0.0,0.0,0.0,0.0,0.0,0.0,0.0,0.0,0.0,0.0,0.0,0.0,0.0,0.0,0.0,0.0,-0.5425,-0.5425,-0.5425,-0.5425,-0.5425,-0.5425,-0.5425,-0.4151,-0.3287,-0.2652,-0.1447,-0.0596,0.0,0.0,0.0,0.0,0.0,0.0,0.0,0.0,0.0,0.0,0.0,0.0,0.0,0.0,0.0,0.0,0.0,0.0,0.0,0.0,0.0,0.0,0.0,0.0,0.0,0.0,0.0,0.0,0.0,0.1808,0.3969,0.5589,0.6548,0.7156,0.7204,0.7177,0.7143,0.7143,0.7143,0.7143,0.7143,0.7183,0.7217,0.7217,0.7217,0.7217,0.7217,0.717,0.7143,0.7143,0.7143,0.7163,0.721,0.7217,0.7217,0.7217,0.7217,0.7197,0.7143,0.7143,0.7143,0.7143,0.7143,0.7143,0.7143,0.7143,0.7143,0.7143,0.7143,0.7143,0.0,0.0,0.0,-0.4463,-0.4463,-0.4497,-0.4653,-0.468,-0.4728,-0.4817,-0.485,-0.4911,-0.485,-0.485,0.0,0.0,0.0,0.0,0.0,0.0,0.0,0.0,0.0,0.0,0.0,0.0,0.0,0.0,0.0,-0.5352,-0.5352,-0.5359,-0.5292,-0.5292,-0.5359,-0.5359,-0.5292,-0.3613,-0.2717,-0.2652,-0.0861,0.0,0.0,0.0,0.0,0.0,0.0,0.0,0.0,0.0,0.0,0.0,0.0,0.0,0.0,0.0,0.0,0.0,0.0,0.0,0.0,0.0,0.0,0.0,0.0,0.0,0.0,0.0,0.0,0.0,0.0,0.1755,0.3595,0.3687,0.535,0.7101,0.7339,0.7251,0.7061,0.7061,0.7156,0.7156,0.7156,0.7278,0.738,0.738,0.738,0.738,0.738,0.7244,0.7149,0.7149,0.7149,0.721,0.736,0.7373,0.738,0.738,0.7373,0.7305,0.7149,0.7143,0.7143,0.7143,0.7143,0.7143,0.7143,0.7143,0.7143,0.7143,0.7143,0.7143,-0.2785,0.0,0.0,0.0,0.0,0.0,-0.4406,-0.458,-0.4426,-0.3835,-0.4262,-0.4572,-0.4036,-0.4395,0.0,0.0,0.0,0.0,0.0,0.0,0.0,0.0,0.0,0.0,0.0,0.0,0.0,0.0,-0.4516,-0.4256,-0.4212,-0.3708,-0.348,-0.348,-0.4084,-0.4084,-0.348,-0.3547,-0.2988,-0.1676,-0.1196,-0.0579,0.0,0.0,0.0,0.0,0.0,0.0,0.0,0.0,0.0,0.0,0.0,0.0,0.0,0.0,0.0,0.0,0.0,0.0,0.0,0.0,0.0,0.0,0.0,0.0,0.0,0.0,0.0,0.0186,0.1035,0.1794,0.2734,0.461,0.4775,0.5115,0.7015,0.6606,0.6145,0.7263,0.7475,0.7475,0.7475,0.7509,0.7536,0.7536,0.7536,0.7536,0.7536,0.74,0.7305,0.7305,0.7305,0.7326,0.7366,0.7475,0.7536,0.7536,0.7434,0.7353,0.7312,0.7197,0.7143,0.7143,0.7143,0.7143,0.7143,0.7143,0.7143,0.7143,0.7143,0.7204,-0.2142,-0.2221,-0.2293,-0.2723,0.0,0.0,-0.3849,-0.4015,-0.3959,0.0,-0.4251,-0.4478,-0.4074,-0.4308,0.0,0.0,0.0,0.0,0.0,0.0,0.0,0.0,0.0,0.0,0.0,-0.3964,0.0,-0.392,-0.3579,-0.3357,-0.3322,-0.2917,-0.2676,-0.2676,-0.3213,-0.3213,-0.2676,-0.2809,-0.2375,-0.1327,-0.0909,-0.0501,0.0,0.0,0.0,0.0,0.0,0.0,0.0,0.0,0.0,0.0,0.0,0.0,0.0,0.0,0.0,0.0,0.0,0.0,0.0,0.0,0.0,0.0,0.0,0.0,0.0,0.0,0.0,0.0191,0.0874,0.1454,0.2214,0.3652,0.382,0.4171,0.6233,0.6139,0.5941,0.723,0.7502,0.7522,0.759,0.7651,0.7685,0.7685,0.7685,0.7685,0.7685,0.7556,0.7468,0.7468,0.7468,0.7489,0.755,0.7638,0.7665,0.7604,0.757,0.7502,0.7373,0.7346,0.7333,0.7333,0.7272,0.7204,0.7143,0.7143,0.7143,0.7143,0.7143,0.7224,-0.1768,-0.1947,-0.1988,0.0,0.0,0.0,-0.3016,-0.3188,-0.336,0.0,-0.4298,-0.4353,-0.4353,-0.4463,0.0,0.0,0.0,0.0,0.0,0.0,0.0,0.0,0.0,0.0,-0.2572,-0.2576,-0.2587,-0.2456,-0.2523,-0.251,-0.2384,-0.2397,-0.2403,-0.2412,-0.2476,-0.2476,-0.2412,-0.1676,-0.1222,-0.1114,-0.0349,0.0,0.0,0.0,0.0,0.0,0.0,0.0,0.0,0.0,0.0,0.0,0.0,0.0,0.0,0.0,0.0,0.0,0.0,0.0,0.0,0.0,0.0,0.0,0.0,0.0,0.0,0.0,0.0,0.0,0.0,0.0798,0.1671,0.177,0.2518,0.3645,0.5257,0.5567,0.5898,0.7006,0.7342,0.7489,0.7624,0.7753,0.7834,0.7834,0.7834,0.7834,0.7834,0.7712,0.7624,0.7624,0.7624,0.7672,0.7801,0.7828,0.778,0.7658,0.7753,0.7692,0.7434,0.7536,0.7597,0.7597,0.7448,0.7312,0.719,0.719,0.7183,0.717,0.7183,0.7272,0.0,0.0,0.0,0.0,0.0,0.0,-0.2257,-0.2391,-0.2477,0.0,-0.3123,-0.3566,-0.3622,-0.4125,0.0,0.0,0.0,0.0,0.0,0.0,0.0,0.0,0.0,0.0,-0.231,-0.2267,-0.2271,-0.2254,-0.1753,-0.1153,-0.0564,-0.0513,-0.0526,-0.0538,-0.1208,-0.1207,-0.0539,-0.1074,-0.0942,-0.0271,-0.0068,0.0,0.0,0.0,0.0,0.0,0.0,0.0,0.0,0.0,0.0,0.0,0.0,0.0,0.0,0.0,0.0,0.0,0.0,0.0,0.0,0.0,0.0,0.0,0.0,0.0,0.0,0.0,0.0,0.0,0.0,0.0201,0.0602,0.1703,0.1299,0.1391,0.3723,0.4201,0.4582,0.5898,0.704,0.7916,0.795,0.7977,0.7997,0.7997,0.7997,0.7997,0.7997,0.7862,0.7773,0.7773,0.7773,0.778,0.7807,0.7923,0.7984,0.7957,0.7862,0.7787,0.7726,0.7645,0.7597,0.7597,0.7448,0.7414,0.7509,0.7509,0.7448,0.7326,0.7455,0.759,0.0,0.0,0.0,-0.0432,0.0,0.0,0.0,-0.1624,-0.1742,-0.2135,-0.2508,-0.2896,-0.3289,-0.3677,-0.4015,0.0,0.0,0.0,0.0,0.0,0.0,0.0,0.0,0.0,-0.1229,-0.1453,-0.1518,-0.1145,-0.0769,-0.0367,0.0,0.0,0.0,0.0,-0.0403,-0.0471,0.0,-0.0403,-0.0403,0.0,0.0,0.0,0.0,0.0,0.0,0.0,0.0,0.0,0.0,0.0,0.0,0.0,0.0,0.0,0.0,0.0,0.0,0.0,0.0,0.0,0.0,0.0,0.0,0.0,0.0,0.0,0.0,0.0,0.0,0.0,0.0,0.0,0.0202,0.0806,0.0504,0.0503,0.2485,0.2877,0.3271,0.4654,0.5485,0.6426,0.7739,0.693,0.6426,0.7839,0.7434,0.7235,0.7939,0.7372,0.6935,0.6935,0.6333,0.6137,0.6836,0.6994,0.7304,0.7831,0.7923,0.7889,0.7814,0.7814,0.778,0.7706,0.7706,0.7672,0.7597,0.7746,0.7706,0.7489,0.7563,0.7678,0.0,0.0,0.0,0.0,0.0,-0.0125,0.0,0.0,0.0,-0.1834,-0.1982,-0.2198,-0.2927,0.0,0.0,0.0,0.0,0.0,0.0,0.0,0.0,0.0,0.0,0.0,0.0,-0.0616,-0.0622,-0.0058,0.0,0.0,0.0,0.0,0.0,0.0,0.0,0.0,0.0,0.0,0.0,0.0,0.0,0.0,0.0,0.0,0.0,0.0,0.0,0.0,0.0,0.0,0.0,0.0,0.0,0.0,0.0,0.0,0.0,0.0,0.0,0.0,0.0,0.0,0.0,0.0,0.0,0.0,0.0,0.0,0.0,0.0,0.0,0.0,0.0,0.0,0.0,0.0303,0.141,0.1813,0.2314,0.3416,0.3616,0.4418,0.683,0.5418,0.4718,0.693,0.6326,0.6027,0.7129,0.6326,0.5627,0.5627,0.4618,0.4418,0.5522,0.5627,0.6189,0.7368,0.7569,0.7681,0.7862,0.7977,0.7984,0.7855,0.795,0.7896,0.7685,0.7896,0.7875,0.7645,0.7672,0.7746,0.0,0.0,0.0,0.0,0.0,0.0,0.0,0.0,-0.0317,-0.1104,0.0,0.0,0.0,0.0,0.0,0.0,0.0,0.0,0.0,0.0,0.0,0.0,0.0,0.0,0.0,-0.0448,-0.0112,0.0,0.0,0.0,0.0,0.0,0.0,0.0,0.0,0.0,0.0,0.0,0.0,0.0,0.0,0.0,0.0,0.0,0.0,0.0,0.0,0.0,0.0,0.0,0.0,0.0,0.0,0.0,0.0,0.0,0.0,0.0,0.0,0.0,0.0,0.0,0.0,0.0,0.0,0.0,0.0,0.0,0.0,0.0,0.0,0.0,0.0,0.0,0.0,0.0,0.0202,0.121,0.2012,0.2213,0.2213,0.2714,0.4218,0.4214,0.4114,0.4418,0.4318,0.4318,0.4418,0.4318,0.4218,0.4218,0.4117,0.4017,0.4218,0.4218,0.4814,0.6111,0.6221,0.6725,0.7912,0.8031,0.8031,0.8011,0.7896,0.7889,0.7991,0.7889,0.7821,0.7787,0.7929,0.7997,0.0,0.0,0.0,0.0,0.0,0.0,0.0,0.0,-0.0064,0.0,0.0,0.0,0.0,0.0,0.0,0.0,-0.2397,0.0,0.0,0.0,0.0,0.0,0.0,0.0,0.0,0.0,0.0,0.0,0.0,0.0,0.0,0.0,0.0,0.0,0.0,0.0,0.0,0.0,0.0,0.0,0.0,0.0,0.0,0.0,0.0,0.0,0.0,0.0,0.0,0.0,0.0,0.0,0.0,0.0,0.0,0.0,0.0,0.0,0.0,0.0,0.0,0.0,0.0,0.0,0.0,0.0,0.0,0.0,0.0,0.0,0.0,0.0,0.0,0.0,0.0,0.0,0.0,0.0404,0.0806,0.0806,0.0806,0.1008,0.1611,0.1712,0.2213,0.3814,0.3316,0.3115,0.3917,0.3316,0.2814,0.2814,0.2113,0.2012,0.2814,0.2814,0.3416,0.4718,0.5527,0.5927,0.5722,0.7129,0.764,0.683,0.7575,0.7977,0.8038,0.7977,0.7943,0.7943,0.8011,0.8038,0.0,0.0,0.0,0.0,0.0,0.0,0.0,0.0,0.0,0.0,0.0,0.0,0.0,0.0,0.0,0.0,0.0,-0.1673,0.0,0.0,0.0,0.0,0.0,0.0,0.0,0.0,0.0,0.0,0.0,0.0,0.0,0.0,0.0,0.0,0.0,0.0,0.0,0.0,0.0,0.0,0.0,0.0,0.0,0.0,0.0,0.0,0.0,0.0,0.0,0.0,0.0,0.0,0.0,0.0,0.0,0.0,0.0,0.0,0.0,0.0,0.0,0.0,0.0,0.0,0.0,0.0,0.0,0.0,0.0,0.0,0.0,0.0,0.0,0.0,0.0,0.0,0.0,0.0,0.0,0.0,0.0,0.0,0.0,0.0,0.0706,0.2615,0.2113,0.1813,0.2814,0.2012,0.141,0.141,0.0605,0.0404,0.141,0.141,0.2012,0.3416,0.4718,0.5022,0.4017,0.6226,0.7036,0.6032,0.7335,0.8038,0.8038,0.8038,0.8038,0.8038,0.8038,0.8038,0.0,0.0,0.0,0.0,0.0,0.0,0.0,0.0,0.0,0.0,0.0,0.0,0.0,0.0,0.0,-0.0997,0.0,0.0,0.0,0.0,0.0,0.0,0.0,0.0,0.0,0.0,0.0,0.0,0.0,0.0,0.0,0.0,0.0,0.0,0.0,0.0,0.0,0.0,0.0,0.0,0.0,0.0,0.0,0.0,0.0,0.0,0.0,0.0,0.0,0.0,0.0,0.0,0.0,0.0,0.0,0.0,0.0,0.0,0.0,0.0,0.0,0.0,0.0,0.0,0.0,0.0,0.0,0.0,0.0,0.0,0.0,0.0,0.0,0.0,0.0,0.0,0.0,0.0,0.0,0.0,0.0,0.0,0.0,0.0,0.0,0.0101,0.0101,0.0101,0.0101,0.0101,0.0101,0.0101,0.0,0.0,0.0101,0.0101,0.0605,0.2012,0.3316,0.4017,0.4014,0.5322,0.6032,0.6032,0.7335,0.8038,0.8038,0.8038,0.8038,0.8038,0.8038,0.8038,0.0,0.0,0.0,0.0,0.0,0.0,0.0,0.0,0.0,0.0,0.0,0.0,0.0,0.0,0.0,-0.0354,0.0,0.0,0.0,0.0,0.0,0.0,0.0,0.0,0.0,0.0,0.0,0.0,0.0,0.0,0.0,0.0,0.0,0.0,0.0,0.0,0.0,0.0,0.0,0.0,0.0,0.0,0.0,0.0,0.0,0.0,0.0,0.0,0.0,0.0,0.0,0.0,0.0,0.0,0.0,0.0,0.0,0.0,0.0,0.0,0.0,0.0,0.0,0.0,0.0,0.0,0.0,0.0,0.0,0.0,0.0,0.0,0.0,0.0,0.0,0.0,0.0,0.0,0.0,0.0,0.0,0.0,0.0,0.0,0.0,0.0,0.0,0.0,0.0,0.0,0.0,0.0,0.0,0.0,0.0,0.0,0.0202,0.0605,0.1912,0.2314,0.141,0.4321,0.5627,0.4718,0.683,0.8038,0.8038,0.8038,0.8038,0.8038,0.8038,0.8038,0.0,0.0,0.0,0.0,0.0,0.0,0.0,0.0,0.0,0.0,0.0,0.0,0.0,0.0,0.0,0.0,0.0,0.0,0.0,0.0,0.0,0.0,0.0,0.0,0.0,0.0,0.0,0.0,0.0,0.0,0.0,0.0,0.0,0.0,0.0,0.0,0.0,0.0,0.0,0.0,0.0,0.0,0.0,0.0,0.0,0.0,0.0,0.0,0.0,0.0,0.0,0.0,0.0,0.0,0.0,0.0,0.0,0.0,0.0,0.0,0.0,0.0,0.0,0.0,0.0,0.0,0.0,0.0,0.0,0.0,0.0,0.0,0.0,0.0,0.0,0.0,0.0,0.0,0.0,0.0,0.0,0.0,0.0,0.0,0.0,0.0,0.0,0.0,0.0,0.0,0.0,0.0,0.0,0.0202,0.0706,0.0706,0.0706,0.0706,0.1511,0.1611,0.0706,0.362,0.5153,0.4912,0.6977,0.8092,0.8194,0.8092,0.8038,0.8038,0.8038,0.8038]},{"header":{"parameterUnit":"m.s-1","parameterCategory":1,"la1":30.6,"la2":29.2853,"lo1":-89.7004,"lo2":-87.6739,"dy":0.0162,"dx":0.0183,"nx":112,"ny":82,"refTime":"2023-04-26T00:00:00:Z","depth":0,"parameterNumber":3,"parameterNumberName":"V-component_of_WINDS"},"data":[0.0,0.0,0.0,0.0,0.0,0.0,0.0,0.0,0.0,0.0,0.0,0.0,0.0,0.0,0.0,0.0,0.0,0.0,0.0,0.0,0.0,0.0,0.0,0.0,0.0,0.0,0.0,0.0,0.0,0.0,0.0,0.0,0.0,0.0,0.0,0.0,0.0,0.0,0.0,0.0,0.0,0.0,0.0,0.0,0.0,0.0,0.0,0.0,0.0,0.0,0.0,0.0,0.0,0.0,0.0,0.0,0.0,0.0,0.0,0.0,0.0,0.0,0.0,0.0,0.0,0.0,0.0,0.0,0.0,0.0,0.0,0.0,0.0,0.0,0.0,0.0,0.0,0.0,0.0,0.0,0.0,0.0,0.0,0.0,0.0,0.0,0.0,0.0,0.0,0.0,0.2501,0.4047,0.585,0.6447,0.5292,0.6072,0.6098,0.4882,0.0,0.0,0.0,0.0,0.0,0.0,0.0,0.0,0.0,0.0,0.0,0.0,0.0,0.0,0.0,0.0,0.0,0.0,0.0,0.0,0.0,0.0,0.0,0.0,0.0,0.0,0.0,0.0,0.0,0.0,0.0,0.0,0.0,0.0,0.0,0.0,0.0,0.0,0.0,0.0,0.0,0.0,0.0,0.0,0.0,0.0,0.0,0.0,0.0,0.0,0.0,0.0,0.0,0.0,0.0,0.0,0.0,0.0,0.0,0.0,0.0,0.0,0.0,0.0,0.0,0.0,0.0,0.0,0.0,0.0,0.0,0.0,0.0,0.0,0.0,0.0,0.0,0.0,0.0,0.0,0.0,0.0,0.0,0.0,0.0,0.0,0.0,0.0,0.0,0.0,0.0,0.0,0.0,0.0,0.0,0.0,0.0,0.0,0.0,0.0,0.0,0.0,0.0,0.0,0.2034,0.4521,0.5322,0.5632,0.554,0.5171,0.4934,0.4806,0.0,0.0,0.0,0.0,0.0,0.0,0.0,0.0,0.0,0.0,0.0,0.0,0.0,0.0,0.0,0.0,0.0,0.0,0.0,0.0,0.0,0.0,0.0,0.0,0.0,0.0,0.0,0.0,0.0,0.0,0.0,0.0,0.0,0.0,0.0,0.0,0.0,0.0,0.0,0.0,0.0,0.0,0.0,0.0,0.0,0.0,0.0,0.0,0.0,0.0,0.0,0.0,0.0,0.0,0.0,0.0,0.0,0.0,0.0,0.0,0.0,0.0,0.0,0.0,0.0,0.0,0.0,0.0,0.0,0.0,0.0,0.0,0.0,0.0,0.0,0.0,0.0,0.0,0.0,0.0,0.0,0.0,0.0,0.0,0.0,0.0,0.0,0.0,0.0,0.0,0.0,0.0,0.0,0.0,0.0,0.0,0.0,0.0,0.0,0.0,0.0,0.0,0.0,0.1673,0.3976,0.4666,0.5214,0.5377,0.5076,0.5215,0.4983,0.4241,0.462,0.0,0.0,0.0,0.0,0.0,0.0,0.0,0.0,0.0,0.0,0.0,0.0,0.0,0.0,0.0,0.0,0.0,0.0,0.0,0.0,0.0,0.0,0.0,0.0,0.0,0.0,0.0,0.0,0.0,0.0,0.0,0.0,0.0,0.0,0.0,0.0,0.0,0.0,0.0,0.0,0.0,0.0,0.0,0.0,0.0,0.0,0.0,0.0,0.0,0.0,0.0,0.0,0.0,0.0,0.0,0.0,0.0,0.0,0.0,0.0,0.0,0.0,0.0,0.0,0.0,0.0,0.0,0.0,0.0,0.0,0.0,0.0,0.0,0.0,0.0,0.0,0.0,0.0,0.0,0.0,0.0,0.0,0.0,0.0,0.0,0.0,0.0,0.0,0.0,0.0,0.0,0.0,0.0,0.0,0.0,0.0,0.0,0.0,0.0,0.0,0.0,0.0,0.2713,0.527,0.4534,0.4863,0.4953,0.4487,0.505,0.4942,0.383,0.4801,0.0,0.0,0.0,0.0,0.0,0.0,0.0,0.0,0.0,0.0,0.0,0.0,0.0,0.0,0.0,0.0,0.0,0.0,0.0,0.0,0.0,0.0,0.0,0.0,0.0,0.0,0.0,0.0,0.0,0.0,0.0,0.0,0.0,0.0,0.0,0.0,0.0,0.0,0.0,0.0,0.0,0.0,0.0,0.0,0.0,0.0,0.0,0.0,0.0,0.0,0.0,0.0,0.0,0.0,0.0,0.0,0.0,0.0,0.0,0.0,0.0,0.0,0.0,0.0,0.0,0.0,0.0,0.0,0.0,0.0,0.0,0.0,0.0,0.0,0.0,0.0,0.0,0.0,0.0,0.0,0.0,0.0,0.0,0.0,0.0,0.0,0.0,0.0,0.0,0.0,0.0,0.0,0.0,0.0,0.0,0.0,0.0,0.0,0.0,0.0,0.0,0.0,0.1048,0.4032,0.3943,0.382,0.3809,0.3943,0.401,0.3995,0.3891,0.5461,0.0,0.0,0.0,0.0,0.0,0.0,0.0,0.0,0.0,0.0,0.0,0.0,0.0,0.0,0.0,0.0,0.0,0.0,0.0,0.0,0.0,0.0,0.0,0.0,0.0,0.0,0.0,0.0,0.0,0.0,0.0,0.0,0.0,0.0,0.0,0.0,0.0,0.0,0.0,0.0,0.0,0.0,0.0,0.0,0.0,0.0,0.0,0.0,0.0,0.0,0.0,0.0,0.0,0.0,0.0,0.0,0.0,0.0,0.0,0.0,0.0,0.0,0.0,0.0,0.0,0.0,0.0,0.0,0.0,0.0,0.0,0.0,0.0,0.0,0.0,0.0,0.0,0.0,0.0,0.0,0.0,0.0,0.0,0.0,0.0,0.0,0.0,0.0,0.0,0.0,0.0,0.0,0.0,0.0,0.0,0.0,0.0,0.0,0.0,0.0,0.0,0.0,0.056,0.3607,0.0,0.2647,0.2961,0.3839,0.3906,0.381,0.3536,0.0,0.0,0.0,0.0,0.0,0.0,0.0,0.0,0.0,0.0,0.0,0.0,0.0,0.0,0.0,0.0,0.0,0.0,0.0,0.0,0.0,0.0,0.0,0.0,0.0,0.0,0.0,0.0,0.0,0.0,0.0,0.0,0.0,0.0,0.0,0.0,0.0,0.0,0.0,0.0,0.0,0.0,0.0,0.0,0.0,0.0,0.0,0.0,0.0,0.0,0.0,0.0,0.0,0.0,0.0,0.0,0.0,0.0,0.0,0.0,0.0,0.0,0.0,0.0,0.0,0.0,0.0,0.0,0.0,0.0,0.0,0.0,0.0,0.0,0.0,0.0,0.0,0.0,0.0,0.0,0.0,0.0,0.0,0.0,0.0,0.0,0.0,0.0,0.0,0.0,0.0,0.0,0.0,0.0,0.0,0.0,0.0,0.0,0.0,0.0,0.0,0.0,-0.4602,-0.0336,0.2325,0.0,0.1369,0.1726,0.2594,0.2653,0.2903,0.3469,0.0,0.0,0.0,0.0,0.0,0.0,0.0,0.0,0.0,0.0,0.0,0.0,0.0,0.0,0.0,0.0,0.0,0.0,0.0,0.0,0.0,0.0,0.0,0.0,0.0,0.0,0.0,0.0,0.0,0.0,0.0,0.0,0.0,0.0,0.0,0.0,0.0,0.0,0.0,0.0,0.0,0.0,0.0,0.0,0.0,0.0,0.0,0.0,0.0,0.0,0.0,0.0,0.0,0.0,0.0,0.0,0.0,0.0,0.0,0.0,0.0,0.0,0.0,0.0,0.0,0.0,0.0,0.0,0.0,0.0,0.0,0.0,0.0,0.0,0.0,0.0,0.0,0.0,0.0,0.0,0.0,0.0,0.0,0.0,0.0,0.0,0.0,0.0,0.0,0.0,0.0,0.0,0.0,0.0,0.0,0.0,0.0,0.0,0.0,0.0,0.0,0.0,-0.4908,-0.1861,0.0,0.0,0.0,0.0,0.0,0.0,0.1105,0.0,0.0,0.0,0.0,0.0,0.0,0.0,0.0,0.0,0.0,0.0,0.0,0.0,0.0,0.0,0.0,0.0,0.0,0.0,0.0,0.0,0.0,0.0,0.0,0.0,0.0,0.0,0.0,0.0,0.0,0.0,0.0,0.0,0.0,0.0,0.0,0.0,0.0,0.0,0.0,0.0,0.0,0.0,0.0,0.0,0.0,0.0,0.0,0.0,0.0,0.0,0.0,0.0,0.0,0.0,0.0,0.0,0.0,0.0,0.0,0.0,0.0,0.0,0.0,0.0,0.0,0.0,0.0,0.0,0.0,0.0,0.0,0.0,0.0,0.0,0.0,0.0,0.0,0.0,0.0,0.0,0.0,0.0,0.0,0.0,0.0,0.0,0.0,0.0,0.0,0.0,0.0,0.0,0.0,0.0,0.0,0.0,0.0,0.0,0.0,0.0,0.0,0.0,-0.4968,-0.1861,0.0,0.0,0.0,0.0,0.0,0.0,0.1245,0.4128,0.0,0.0,0.0,0.0,0.0,0.0,0.0,0.0,0.0,0.0,0.0,0.0,0.0,0.0,0.0,0.0,0.0,0.0,0.0,0.0,0.0,0.0,0.0,0.0,0.0,0.0,0.0,0.0,0.0,0.0,0.0,0.0,0.0,0.0,0.0,0.0,0.0,0.0,0.0,0.0,0.0,0.0,0.0,0.0,0.0,0.0,0.0,0.0,0.0,0.0,0.0,0.0,0.0,0.0,0.0,0.0,0.0,0.0,0.0,0.0,0.0,0.0,0.0,0.0,0.0,0.0,0.0,0.0,0.0,0.0,0.0,0.0,0.0,0.0,0.0,0.0,0.0,0.0,0.0,0.0,0.0,0.0,0.0,0.0,0.0,0.0,0.0,0.0,0.0,0.0,0.0,0.0,0.0,0.0,0.0,0.0,0.0,0.0,0.0,0.0,0.0,0.0,-0.5649,-0.2227,0.0,0.0,0.0,0.0,0.0,0.0,0.0778,0.2605,0.0,0.0,0.0,0.0,0.0,0.0,0.0,0.0,0.0,0.0,0.0,0.0,0.0,0.0,0.0,0.0,0.0,0.0,0.0,0.0,0.0,0.0,0.0,0.0,0.0,0.0,0.0,0.0,0.0,0.0,0.0,0.0,0.0,0.0,0.0,0.0,0.0,0.0,0.0,0.0,0.0,0.0,0.0,0.0,0.0,0.0,0.0,0.0,0.0,0.0,0.0,0.0,0.0,0.0,0.0,0.0,0.0,0.0,0.0,0.0,0.0,0.0,0.0,0.0,0.0,0.0,0.0,0.0,0.0,0.0,0.0,0.0,0.0,0.0,0.0,0.0,0.0,0.0,0.0,0.0,0.0,0.0,0.0,0.0,0.0,0.0,0.0,0.0,0.0,0.0,0.0,0.0,0.0,0.0,0.0,0.0,0.0,0.0,0.0,0.0,0.0,0.0,-0.615,-0.2559,0.0,0.0,0.0,0.0,0.0,0.0,0.0,0.0,0.0,0.0,0.0,0.0,0.0,0.0,0.0,0.0,0.0,0.0,0.0,0.0,0.0,0.0,0.0,0.0,0.0,0.0,0.0,0.0,0.0,0.0,0.0,0.0,0.0,0.0,0.0,0.0,0.0,0.0,0.0,0.0,0.0,0.0,0.0,0.0,0.0,0.0,0.0,0.0,0.0,0.0,0.0,0.0,0.0,0.0,0.0,0.0,0.0,0.0,0.0,0.0,0.0,0.0,0.0,0.0,0.0,0.0,0.0,0.0,0.8345,0.0,0.0,0.0,0.0,0.0,0.0,0.0,0.0,0.0,0.0,0.0,0.0,0.0,0.0,0.0,0.0,0.0,0.0,0.0,0.0,0.0,0.0,0.0,0.0,0.0,0.0,0.0,0.0,0.0,0.0,0.0,0.0,0.0,0.0,0.0,0.0,0.0,0.0,0.0,0.0,0.0,-0.2696,-0.1163,0.0,0.0,0.0,0.0,0.0,0.0,0.0,0.0,0.1187,0.0,0.0,0.0,0.0,0.0,0.0,0.0,0.0,0.0,0.0,0.0,0.0,0.0,0.0,0.0,0.0,0.0,0.0,0.0,0.0,0.0,0.0,0.0,0.0,0.0,0.0,0.0,0.0,0.0,0.0,0.0,0.0,0.0,0.0,0.0,0.0,0.0,0.0,0.0,0.0,0.0,0.0,0.0,0.0,0.0,0.0,0.0,0.0,0.0,0.0,0.0,0.0,0.0,0.0,0.0,0.0,0.0,0.0,0.0,0.0,0.5533,0.0,0.0,0.0,0.0,0.0,0.0,0.0,0.0,0.0,0.0,0.0,0.0,0.0,0.0,0.0,0.0,0.0,0.0,0.0,0.0,0.0,0.0,0.0,0.0,0.0,0.0,0.0,0.0,0.0,0.0,0.0,0.0,0.0,0.0,0.0,0.0,0.0,0.0,0.0,0.0,-0.0709,-0.0386,0.0,0.0,0.0,0.0,0.0,0.0,0.0,0.0,0.0,0.0,0.0,0.0,0.0,0.0,0.0,0.0,0.0,0.0,0.0,0.0,0.0,0.0,0.0,0.0,0.0,0.0,0.0,0.0,0.0,0.0,0.0,0.0,0.0,0.0,0.0,0.0,0.0,0.0,0.0,0.0,0.0,0.0,0.0,0.0,0.0,0.0,0.0,0.0,0.0,0.0,0.0,0.0,0.0,0.0,0.0,0.0,0.0,0.0,0.0,0.0,0.0,0.0,0.7934,0.7862,0.8348,0.8347,0.7369,0.5635,0.4896,0.3253,0.1548,0.0,0.0,0.0,0.0,0.0,0.0,0.0,0.0,0.0,0.0,0.0,0.0,0.0,0.0,0.0,0.0,0.0,0.0,0.0,0.0,0.0,0.0,0.0,0.0,0.0,0.9064,0.8441,0.0,0.0,0.0,0.0,0.0,0.0,0.0,0.0,0.0,0.0,0.0,0.0,0.0588,0.0129,0.0,0.0,0.0,0.0,0.0,0.0,0.0,0.0,0.0,0.0,0.0,0.0,0.0,0.0,0.0,0.0,0.0,0.0,0.0,0.0,0.0,0.0,0.0,0.0,0.0,0.0,0.0,0.0,0.0,0.0,0.0,0.0,0.0,0.0,0.0,0.0,0.0,0.0,0.0,0.0,0.0,0.0,0.7945,0.8953,0.0,0.0,0.0,0.0,0.0,0.0,0.0,0.0,0.0,0.0,0.0,0.0,0.0,0.987,0.976,0.9057,0.8636,0.853,0.8409,0.815,0.7822,0.7801,0.8433,0.9489,0.7882,0.0,0.5782,0.6513,0.0,0.0,0.0,0.0,0.0,0.0,0.0,0.0,0.0,0.0,0.0,0.0,0.0,0.0,0.0,0.0,0.0,0.0,0.0,0.0,0.0,0.0,0.8869,0.8051,0.7761,0.7782,0.0,0.8345,0.8127,0.7213,0.0,0.0,0.0,0.0,0.0,0.0,0.0,0.0,0.1725,0.0647,0.0,0.0,0.0,0.0,0.0,0.0,0.0,0.0,0.0,0.0,0.0,0.0745,0.0,0.0,0.0,0.0,0.0,0.0,0.0,0.0,0.0,0.0,0.0,0.0,0.0,0.0,0.0,0.0,0.0,0.0,0.0,0.0,0.0,0.0,0.0,0.0,0.0,0.0,0.0,0.0,0.0,1.0489,1.0302,1.1275,1.1129,1.0977,0.0,0.0,0.0,0.0,0.0,0.0,0.0,0.0,0.0,1.0232,0.9705,0.9237,0.8793,0.8405,0.8405,0.8715,0.8254,0.8186,0.8429,0.8435,0.8593,0.8828,0.8555,0.7963,0.73,0.8169,0.8912,0.9445,0.0,0.0,0.0,0.0,0.9292,0.9265,0.8978,0.8836,0.0,0.0,0.0,0.0,0.0,0.0,0.0,0.0,0.0,0.0,0.0,0.0,0.0,0.9115,0.8879,0.8764,0.8507,0.8474,0.8272,0.0,0.726,0.7192,0.7134,0.0,0.0,0.0,0.0,0.3619,0.2401,0.0938,0.0,0.0,0.0,0.0,0.0,0.0,0.0,0.0,0.0,0.0,0.0,0.0,0.1219,0.0,0.0,0.0,0.0,0.0,0.0,0.0,0.0,0.0,0.0,0.0,0.0,0.0,0.0,0.0,0.0,0.0,0.0,0.0,0.0,0.0,0.0,0.0,0.0,0.0,0.0,0.0,0.0,1.1746,1.2682,1.2495,1.2109,1.1984,0.0,0.0,0.0,0.0,0.0,0.0,1.247,1.2043,1.1507,1.09,1.0242,0.9507,0.8695,0.8661,0.8854,0.9237,0.8663,0.8706,0.9332,0.9334,0.8984,0.8398,0.9062,0.8984,0.8436,0.9249,0.9661,0.9783,0.9784,0.9919,1.0105,0.9752,0.9697,0.9761,0.9498,0.9436,0.9539,0.9729,0.0,1.0167,1.0306,0.0,0.0,0.0,0.0,1.1194,1.0344,1.0549,1.0828,1.0154,0.9936,0.9712,0.9052,0.8854,0.8593,0.0,0.7548,0.7649,0.8182,0.0,0.0,0.0,0.0,0.4585,0.2887,0.1105,0.0,0.0,0.0,0.0,0.0,0.0,0.0,0.0,0.0,0.0,0.0,0.0,0.0,0.0,0.0,0.0,0.0,0.0,0.0,0.0,0.0,0.0,0.0,0.0,0.0,0.0,0.0,0.0,0.0,0.0,0.0,0.0,0.0,0.0,0.0,0.0,0.0,0.0,0.0,0.0,0.0,0.0,0.0,1.0507,1.1712,0.0,0.0,0.0,0.0,1.4979,1.4299,1.4234,1.5074,1.3524,1.2662,1.2662,1.2625,1.2195,1.1334,1.1314,1.0891,1.0148,1.0155,1.0195,1.0234,1.0234,1.0195,1.0156,1.0234,1.0195,1.0039,0.8475,0.8271,0.8955,0.8953,0.9456,1.0075,0.926,0.895,0.8837,0.8067,0.7837,0.7953,0.8723,0.9516,1.0334,1.1092,1.1348,0.0,0.0,1.1387,1.1194,1.0344,1.0113,1.0136,1.0049,0.9936,0.9856,0.9774,0.9588,0.9018,0.0,0.6555,0.643,0.7701,0.0,0.739,0.6756,0.689,0.6069,0.3257,0.1186,0.0,0.0,0.0,0.0,0.0,0.0,0.0,0.0,0.0,0.0,0.0,0.0,0.0,0.0,0.586,0.0,0.0,0.0,0.0,0.0,0.0,0.0,0.0,0.0,0.0,0.0,0.0,0.0,0.0,0.0,0.0,0.0,0.0,0.0,0.0,0.0,0.0,0.0,0.0,0.0,0.0,0.0,0.0,1.5654,1.5506,0.0,1.6339,1.6039,1.5885,1.6139,1.5862,1.5813,1.611,1.5582,1.5048,1.4471,1.3937,1.3238,1.2418,1.2381,1.1952,1.1093,1.1133,1.0859,1.0312,1.0312,1.0312,1.0312,1.0312,1.0312,1.0234,0.9648,0.953,0.9801,0.9755,0.9907,1.0178,0.9852,0.973,0.9691,0.9424,0.9309,0.9346,0.9654,1.0349,1.0999,1.0721,1.1024,1.1334,1.0745,1.0579,1.0502,1.019,1.0051,1.002,1.0001,0.9903,0.9831,0.9805,0.9699,0.9469,0.8898,0.804,0.7708,0.8691,0.7985,0.758,0.8294,0.684,0.5291,0.43,0.3614,0.2808,0.1732,0.162,0.1157,0.0077,0.0,0.0,0.0,0.0,0.0,0.0,0.0,0.0,0.0,0.3997,0.5602,0.0,0.0,0.0,0.0,0.0,0.0,0.0,0.0,0.0,0.0,0.0,0.0,0.0,0.0,0.0,0.0,0.0,0.0,0.0,0.0,0.0,0.0,0.0,0.0,0.0,0.0,1.6625,1.9211,1.8593,1.8436,1.9513,1.8621,1.7959,1.7952,1.7673,1.7472,1.747,1.7246,1.6863,1.6282,1.543,1.4569,1.375,1.3434,1.2848,1.2031,1.203,1.1718,1.1172,1.1172,1.1172,1.1172,1.1172,1.1172,1.1133,1.0859,1.0742,1.0703,1.0389,1.0426,1.0621,1.0339,1.0608,1.1077,1.0765,1.0491,1.0217,1.0211,1.0796,1.1378,1.0805,1.1025,1.1444,1.1088,1.0556,1.0152,1.0464,1.0281,1.0024,1.0024,0.9941,0.9882,0.9882,0.9818,0.9757,0.9757,0.8986,0.8599,0.9413,0.8482,0.8088,0.9389,0.735,0.5712,0.5756,0.5326,0.4594,0.3444,0.3383,0.2927,0.1808,0.1648,0.1171,0.0073,0.0,0.1038,0.3307,0.3422,0.3348,0.3272,0.4142,0.52,0.645,0.0,0.0,0.0,0.0,0.0,0.0,0.0,0.0,0.0,0.0,0.0,0.0,0.0,0.0,0.0,0.0,0.0,0.0,0.0,0.0,0.0,0.0,0.0,1.7702,1.8608,1.9509,2.0508,2.0582,2.0609,2.0628,2.0605,2.0564,2.049,1.978,1.9323,1.9316,1.8501,1.8042,1.8086,1.7221,1.636,1.5508,1.4584,1.3722,1.2969,1.292,1.2882,1.2891,1.2891,1.2891,1.2891,1.2891,1.2891,1.2812,1.1992,1.1641,1.1562,1.0664,1.0859,1.1484,1.0664,1.1445,1.2773,1.1914,1.1094,1.0351,1.0308,1.0853,1.1593,1.1536,1.1553,1.1724,1.2484,1.1481,1.0391,1.1203,1.0814,1.0156,1.0194,1.0114,1.0035,1.0073,1.0012,0.9987,0.9949,0.9275,0.8934,0.9693,0.9211,0.9021,0.987,0.8556,0.0,0.7479,0.608,0.5054,0.5092,0.5132,0.5155,0.5116,0.4872,0.3445,0.0408,0.019,0.3115,0.969,1.0037,0.9967,0.9706,0.6377,0.6303,0.9698,0.0,0.0,0.0,0.0,0.0,0.0,0.0,0.0,0.0,0.0,0.0,0.0,0.0,0.0,0.0,0.0,0.0,0.0,0.0,0.0,0.0,0.0,2.0901,2.0568,2.0334,2.0975,2.3086,2.2773,2.2616,2.3278,2.2772,2.2381,2.2378,2.2186,2.2069,2.203,2.121,2.0462,1.9833,1.8968,1.8108,1.7215,1.6969,1.6111,1.4718,1.4647,1.3983,1.2842,1.2842,1.2848,1.2891,1.2891,1.2891,1.2891,1.2656,1.2539,1.2461,1.1562,1.1406,1.1641,1.2031,1.25,1.2852,1.2617,1.2383,1.2187,1.2148,1.2695,1.328,1.2649,1.2877,1.3302,1.289,1.2411,1.2092,1.2365,1.1763,1.127,1.1844,1.1464,1.1114,1.1681,1.1743,1.1541,1.0961,1.0694,1.0402,0.9937,0.9717,0.9659,0.9897,0.9059,0.0,0.7597,0.6572,0.6181,0.6837,0.6886,0.6427,0.5193,0.3897,0.3771,0.5281,0.4299,0.4539,0.6386,0.8806,0.9967,0.9706,0.4185,0.4074,0.0,0.0,0.0,0.0,0.0,0.0,0.0,0.0,0.0,0.0,0.0,0.0,0.0,0.0,0.0,0.0,0.0,0.0,0.0,0.0,0.0,0.0,2.298,2.3564,2.3814,2.2889,2.2891,2.4727,2.4492,2.4375,2.4883,2.4492,2.4023,2.3629,2.3628,2.3468,2.3068,2.2584,2.2062,2.1552,2.0678,1.9825,1.8997,1.8582,1.7774,1.648,1.6417,1.5871,1.4995,1.4995,1.4998,0.0,1.5039,1.5039,1.5,1.4648,1.4492,0.0,0.0,0.0,0.0,0.0,1.3828,1.3008,1.3711,1.3477,1.2969,1.3281,1.3711,1.4062,1.3944,1.3981,1.4055,1.3926,1.3323,1.2834,1.322,1.2649,1.2108,1.2603,1.2285,1.2002,1.2495,1.2544,1.2406,1.1904,0.0,0.0,1.0635,1.0238,1.0124,1.0472,0.9581,0.8796,0.8601,0.756,0.7045,0.7546,0.7584,0.7507,0.7232,0.5943,0.0,0.0,0.0,0.6657,0.7191,0.9045,0.0,0.0,0.0,0.3191,0.5621,0.0,0.0,0.0,0.7252,0.8085,0.0,0.0,0.0,0.0,0.0,0.0,0.0,0.0,0.0,0.0,0.0,0.0,0.0,0.0,0.0,0.0,2.5122,2.5382,2.6912,2.578,2.5077,2.5742,2.5742,2.5702,2.582,2.5741,2.5347,2.4503,2.4422,2.4092,2.3339,0.0,0.0,0.0,0.0,2.1401,2.0628,1.9826,1.8997,1.8125,1.8077,1.8077,1.8125,1.8125,1.8125,1.8164,1.8164,1.8086,1.793,1.7187,1.6836,1.6602,1.4258,1.3828,1.4727,1.6289,1.543,0.0,0.0,0.0,0.0,1.4297,1.4531,1.4687,1.5352,1.4999,1.4526,1.5224,1.4223,1.3163,1.3976,1.3508,1.2882,1.2959,1.2906,1.2854,1.2969,1.2969,1.2931,1.2854,1.2199,1.1656,1.1541,1.0733,1.0344,1.1156,0.9998,0.9267,0.9883,0.8659,0.7777,0.7854,0.0,0.0,0.996,0.9493,0.8062,0.5537,0.7277,0.8886,1.0033,1.0049,0.8657,0.573,0.511,0.3243,0.0,0.2854,0.4244,0.4244,0.4244,0.5832,0.0,0.0,0.0,0.0,0.0,0.0,0.0,0.0,0.0,0.0,0.0,0.0,0.0,0.0,0.0,2.6248,2.703,2.754,2.7853,2.761,2.7215,2.6796,2.6035,2.5853,2.6585,2.5977,2.5442,2.5273,2.5273,2.5191,2.5022,2.4347,2.3961,2.3961,2.3154,2.2328,2.1484,2.136,2.0484,1.8975,0.0,0.0,1.8975,1.8975,1.8981,1.9062,1.9062,1.8633,1.8008,1.7812,1.7734,1.7617,1.6445,1.6484,1.7305,1.7617,1.7422,1.707,1.7383,1.7266,1.7031,1.7187,1.7266,1.7148,1.6602,1.6328,0.0,1.5546,1.5154,1.4918,1.5075,1.443,1.392,1.4617,1.4239,1.3843,1.458,1.4734,1.4503,1.3805,1.3536,1.319,1.2546,1.1156,1.0152,1.0344,1.0075,0.969,0.9191,0.8844,0.8883,0.954,0.9617,0.9729,1.0075,1.0797,1.0067,0.7276,0.8181,0.9176,1.0075,1.0101,0.979,0.9152,0.6439,0.3362,0.0,0.0622,0.0915,0.0915,0.0915,0.1284,0.0,0.0,0.0,0.0,0.0,0.0,0.0,0.0,0.0,0.0,0.0,2.5543,2.6408,0.0,2.8063,2.8565,2.9063,2.925,2.8785,2.867,2.8223,2.7033,2.6455,2.616,2.6194,2.5784,2.5479,2.5434,2.5434,2.546,2.5406,2.4973,2.478,2.4793,2.4406,2.3796,2.2994,2.3015,2.2408,2.1169,2.1201,2.1162,2.1169,2.1208,2.121,2.125,2.125,2.0977,2.0547,2.0586,2.0586,2.0508,2.0078,1.9102,1.8047,1.8477,1.8359,1.8047,1.8516,1.8359,1.8086,1.8516,1.8359,1.8008,1.8008,1.7695,1.7187,1.6289,1.6327,1.6559,1.6168,1.5997,1.5969,1.5963,1.5563,1.5337,1.5752,1.5526,1.5189,1.5189,1.4497,1.3767,1.3387,1.2233,1.1233,1.081,1.0383,0.996,0.9537,0.9498,0.9652,1.0075,1.0113,1.0113,1.0113,1.0613,1.0348,0.8925,0.9295,0.9719,1.0075,1.014,1.0143,1.0113,0.846,0.6768,0.5037,0.3385,0.1654,0.0038,0.177,0.1654,0.0,0.0,0.0,0.0,0.0,0.0,0.0,2.5073,2.56,2.64,2.7547,2.8656,2.9553,3.0152,3.0634,3.101,3.0768,3.0386,2.9822,2.9411,2.8659,2.7175,2.6871,2.6611,2.6246,2.5924,2.5764,2.5878,2.5724,2.5614,2.5543,2.538,2.533,2.5406,2.5427,2.5074,2.431,2.4317,2.3899,2.3086,2.3164,2.3242,2.3359,2.3398,2.3437,2.3437,2.3281,2.3164,2.3125,2.3164,2.3164,2.3125,2.3125,2.1445,1.9102,1.9805,1.9609,1.9062,1.9609,1.9453,1.9102,1.9648,1.9453,1.9062,1.9453,1.9062,1.8281,1.7266,1.742,1.7764,1.7139,1.7439,1.7733,1.7029,1.6797,1.6749,1.6735,1.6177,1.5894,1.6605,1.5592,1.458,1.4448,1.3865,1.3046,1.1814,1.1041,1.0617,1.0617,1.0617,1.0617,1.0617,1.0464,1.0275,1.0129,1.014,1.0105,1.0105,1.0183,1.0183,1.0133,1.017,1.017,1.0113,1.0113,1.0113,1.0075,0.7383,0.4655,0.2038,0.4462,0.427,2.607,2.6162,2.6479,2.8065,2.8124,2.8492,0.0,3.0819,3.0027,3.0888,3.0627,3.0482,3.1371,3.0964,3.0984,3.2413,3.1429,3.0732,3.1334,3.0078,2.8769,2.7893,2.7084,2.7171,2.8636,2.7391,2.6776,2.7565,2.691,2.6438,2.6467,2.5726,2.5321,2.5398,2.5446,2.5122,2.431,2.4371,2.3945,2.3086,2.3164,2.3555,2.4258,2.4258,2.4258,2.4219,2.3516,2.3164,2.3125,2.3164,2.3203,2.3203,2.3203,2.2969,2.2617,2.2734,2.2656,2.2422,2.1836,2.2031,2.25,2.1836,2.207,2.2344,2.0898,2.0391,1.9961,1.832,1.793,1.7969,1.789,1.7885,1.7874,1.7796,1.7712,1.7641,1.7636,1.7534,1.7459,1.7611,1.7451,1.7035,1.6339,1.6138,1.5278,1.2892,1.2469,1.2392,1.2392,1.2392,1.2392,1.2392,1.1738,1.0984,1.0257,1.0171,1.0185,1.0185,1.0189,1.0217,1.0186,1.0188,1.017,1.0113,1.0113,1.0113,1.0113,0.9729,0.9344,0.896,0.7851,0.7928,2.6219,2.7234,2.8502,2.881,2.9855,3.1184,3.264,3.2794,3.2744,3.313,3.3311,3.348,3.367,3.3558,3.339,3.3408,3.2994,3.2424,3.1788,3.066,2.9544,2.8698,2.7324,2.6557,2.6891,2.6628,2.665,2.711,2.7274,2.7351,2.7351,2.6544,2.6129,2.6204,2.5746,2.5375,2.5112,2.5156,2.4961,2.4609,2.4648,2.4844,2.5156,2.5156,2.5156,2.5156,2.4805,2.4648,2.4609,2.4648,2.4648,2.4648,2.4648,2.4648,2.4531,2.3555,2.3164,2.3125,2.2773,2.2852,2.3086,2.2773,2.2891,2.3047,2.2305,2.207,2.1875,2.0625,2.0273,2.0156,1.9648,1.9492,1.9334,1.8826,1.8654,1.8623,1.8617,1.8197,1.7974,1.85,1.8177,1.7707,1.7384,1.7326,1.6965,1.5885,1.4381,1.3233,1.2777,1.2698,1.2692,1.2766,1.199,1.1333,1.1001,1.0503,1.0195,1.0195,1.0209,1.0201,1.0194,1.0673,1.0924,1.0848,1.1348,1.1622,1.1622,1.1622,1.1079,1.0113,1.0429,1.0775,2.6616,2.8123,2.9916,2.9851,3.1749,3.3699,3.3891,3.4622,3.5161,3.493,3.5238,3.5336,3.483,3.4527,3.4242,3.3859,3.3585,3.307,3.2148,3.0816,2.9639,2.8795,2.6975,2.5729,2.5576,2.6235,2.6809,2.7264,2.7852,2.8236,2.8236,2.7428,2.7005,2.7146,2.6534,2.6165,2.6055,2.6055,2.5937,2.5703,2.5703,2.5703,2.5703,2.5703,2.5703,2.5703,2.5703,2.5703,2.5703,2.5703,2.5703,2.5703,2.5703,2.5703,2.5547,2.4336,2.3906,2.3867,2.3594,2.3672,2.3789,2.3594,2.3672,2.3828,2.3555,2.3477,2.3359,2.25,2.2266,2.2109,2.1445,2.1289,2.1055,2.0234,2.0152,2.0141,1.9669,1.9417,1.9439,1.9831,1.94,1.8896,1.8673,1.8587,1.8501,1.8273,1.6615,1.5077,1.4239,1.3919,1.3681,1.3517,1.2742,1.2121,1.1889,1.1307,1.0958,1.0958,1.0924,1.0914,1.0909,1.1491,1.1815,1.1776,1.2392,1.27,1.27,1.27,1.2045,1.0848,1.2349,1.2785,2.7415,2.8515,3.0246,3.205,3.3973,3.5622,3.643,3.7276,3.7623,3.6815,3.6007,3.5144,3.406,3.2523,3.1936,3.3554,3.2447,3.1742,3.2712,3.0548,2.8567,2.7765,2.5831,2.5008,0.0,2.7065,2.7969,2.8967,2.9044,2.9044,2.9044,2.8313,2.7932,2.8046,2.8012,2.7683,2.6953,2.6953,2.6523,2.5703,2.5703,2.5703,2.5703,2.5703,2.5703,2.5703,2.5703,2.5703,2.5703,2.5703,2.5703,2.5703,2.5703,2.5703,2.5703,2.5625,2.5625,2.5508,2.4648,2.4922,2.5469,2.4648,2.4922,2.5469,2.4609,2.4375,2.4219,2.3398,2.3164,2.3125,2.3047,2.3008,2.2812,2.1992,2.2418,2.2522,2.0839,2.1714,2.2636,2.185,2.1636,2.1351,2.0568,2.0389,2.0048,1.9289,1.9082,1.8724,1.7838,1.7021,1.6164,1.5312,1.4506,1.3697,1.2845,1.2811,1.2812,1.2812,1.2766,1.2709,1.2727,1.2682,1.2668,1.2666,1.27,1.27,1.27,1.27,1.2661,1.2623,1.3459,1.3749,2.9826,3.1719,3.3926,3.5672,3.6899,3.8018,3.945,3.9282,3.8623,3.7738,3.6007,3.4299,3.315,3.2035,3.1653,3.2759,3.3424,3.3808,3.3763,3.2968,3.1674,2.9704,2.8221,2.7366,0.0,0.0,0.0,2.8983,2.9487,2.9768,2.9956,2.9159,2.8743,2.8846,2.8311,2.7968,2.7799,2.7799,2.7376,2.6562,2.5977,2.5703,2.5703,2.5703,2.5703,2.5703,2.5703,2.5703,2.5703,2.5703,2.5703,2.5703,2.5703,2.5703,2.5703,2.5703,2.5703,2.5664,2.5352,2.5469,2.5664,2.5352,2.5469,2.5664,2.5352,2.5273,2.5195,2.4922,2.4453,2.3984,2.3984,2.3555,2.3086,2.2773,2.2929,2.3006,2.242,2.2691,2.3001,2.2771,2.2691,2.2611,2.2264,2.2222,2.1985,2.1128,1.9975,1.8902,1.8022,1.7164,1.6545,1.6244,1.4958,1.3983,1.3671,1.3203,1.289,1.2844,1.2798,1.2777,1.2759,1.3276,1.3551,1.3503,1.408,1.4349,1.4349,1.4349,1.408,1.3497,1.429,1.4308,3.2551,3.455,3.6708,3.8502,3.9194,3.9726,4.0886,3.9853,3.8323,3.7156,3.4947,3.2757,3.1324,3.0364,3.0228,3.1369,3.2537,3.3387,3.3673,3.3429,3.2582,3.097,3.007,2.9508,0.0,0.0,0.0,2.9098,3.0292,3.1008,3.0879,3.0621,3.0497,3.0568,2.9765,2.9426,2.9507,2.8887,2.82,2.7405,2.6867,2.6594,2.6544,2.6234,2.6078,2.608,2.5775,2.5658,2.5615,2.5663,2.5662,2.5615,2.5663,2.5703,2.5662,2.5703,2.5703,2.5703,2.5703,2.5703,2.5703,2.5703,2.5703,2.5703,2.5703,2.5703,2.5703,2.5703,2.5312,2.4844,2.4844,2.4492,2.3984,2.3633,2.3828,2.3945,2.332,2.3633,2.3945,2.3672,2.3633,2.3633,2.3555,2.3594,2.332,2.2461,2.1596,2.0533,1.9056,1.8159,1.7497,1.7187,1.5898,1.4883,1.4609,1.4102,1.3787,1.3734,1.3724,1.3659,1.3624,1.414,1.4574,1.4805,1.5388,1.5811,1.608,1.608,1.5786,1.5203,1.5391,1.5285,3.5504,3.6919,3.8574,4.0478,4.0879,4.0828,4.0715,3.8963,3.688,3.5148,3.2874,3.0609,2.872,2.777,2.7808,2.9574,3.0174,3.1026,3.2904,3.2387,3.1843,3.169,3.1477,3.1445,3.1599,3.2167,0.0,2.9571,0.0,3.2571,3.1891,3.2506,3.2914,3.3006,3.2242,3.1909,3.1955,3.0218,2.8974,2.8151,2.8186,2.8143,2.8073,2.7223,2.6873,2.6801,2.6045,2.5694,2.5654,2.5732,2.5685,2.558,2.5655,2.5659,2.5605,2.5662,2.5703,2.5703,2.5703,2.5703,2.5703,2.5703,2.5703,2.5703,2.5703,2.5703,2.5703,2.5703,2.5703,2.5703,2.5703,2.5703,2.5508,2.4648,2.5117,2.5273,2.3672,2.457,2.5469,2.4648,2.4453,2.4453,2.4453,2.4453,2.418,2.3281,2.3867,2.3516,2.1055,1.9922,1.9062,1.8203,1.7305,1.6445,1.5586,1.5508,1.5467,1.5452,1.539,1.5352,1.5375,1.535,1.5734,1.6542,1.6542,1.6926,1.7702,1.7696,1.7639,1.7488,1.6726,1.6631,3.8585,4.0148,4.142,4.2548,4.2092,4.1054,3.981,3.7416,3.4775,3.2482,3.0056,2.801,2.6858,2.7319,2.8575,3.0662,3.3443,3.5663,3.6579,3.7555,3.7502,3.5566,3.5307,3.5062,3.4529,3.5139,0.0,0.0,3.313,3.2962,3.3545,3.3122,3.2904,3.2902,3.2721,3.2662,3.2705,3.1079,2.9829,2.8974,2.8407,2.8135,2.8073,2.7879,2.7762,2.7768,2.7551,2.7434,2.7385,2.6758,2.6481,2.6417,2.5792,2.5587,2.5603,2.5609,2.566,2.5703,2.5703,2.5703,2.5703,2.5703,2.5703,2.5703,2.5703,2.5703,2.5703,2.5703,2.5703,2.5703,2.5703,2.5703,2.5625,2.543,2.5547,2.5586,2.5156,2.5391,2.5625,2.5391,2.5352,2.5352,2.5352,2.5352,2.5078,2.4219,2.4258,2.3945,2.2695,2.1211,2.0195,1.9961,1.8594,1.7578,1.7344,1.6755,1.6352,1.6291,1.6242,1.6184,1.6193,1.6747,1.7157,1.7388,1.7388,1.751,1.7702,1.7616,1.7562,1.7653,1.7122,1.7026,4.195,4.2767,4.3245,4.4059,4.2538,4.0473,3.9063,3.6002,3.2746,3.0356,2.8098,2.6317,2.5512,2.6364,2.7821,2.9832,3.2765,3.5267,3.6709,3.8354,3.9008,3.7969,3.8507,3.8469,3.7276,3.7892,3.8046,0.0,3.5806,3.4908,3.4776,3.4622,3.443,3.4045,3.366,3.3313,3.2971,3.2085,3.1374,3.0866,2.9714,2.9319,2.9657,2.8891,2.8543,2.8504,0.0,2.8039,2.797,2.7544,2.7336,2.7241,2.6817,2.6651,2.6661,2.6688,2.6715,2.6696,2.6358,2.6244,2.6167,2.582,2.5703,2.5703,2.5703,2.5703,2.5703,2.5703,2.5703,2.5703,2.5703,2.5703,2.5703,2.5703,2.5703,2.5703,2.5703,2.5703,2.5703,2.5703,2.5703,2.5703,2.5703,2.5703,2.5547,2.5039,2.4961,2.4805,2.4375,2.2812,2.1445,2.0664,1.9686,1.8785,1.8003,1.7478,1.7173,1.7132,1.7093,1.7081,1.7048,1.7465,1.7895,1.828,1.8273,1.8465,1.885,1.8789,1.8701,1.862,1.8025,1.8104,4.4927,4.4766,4.4333,4.4867,4.2353,3.9453,3.8165,3.4585,3.0831,2.8501,2.667,2.5296,2.4591,2.5356,2.6742,2.8709,3.0753,3.3094,3.5873,3.757,3.8815,3.97,4.1085,4.1393,3.9931,4.0315,4.0392,3.9662,3.8815,3.7584,3.593,3.6276,3.6238,3.5532,3.4776,3.393,3.3083,3.3125,3.3048,3.2891,3.1486,3.1167,3.1814,3.0275,2.9583,2.9555,0.0,0.0,2.8412,2.8295,2.8147,2.8065,2.8063,2.8046,2.7992,2.8074,2.8106,2.8007,2.7296,2.7078,2.6927,2.6014,2.5781,2.5859,2.5742,2.5781,2.5859,2.5742,2.5703,2.5703,2.5703,2.5703,2.5742,2.5859,2.5859,2.5898,2.6016,2.5937,2.5859,2.5859,2.5781,2.5703,2.5703,2.5703,2.5703,2.5703,2.5703,2.5703,2.5703,2.4335,2.2734,2.1093,2.077,2.0012,1.8371,1.8059,1.797,1.7954,1.7943,1.7914,1.7856,1.7965,1.8395,1.9165,1.9158,1.9535,2.0312,2.0373,2.0307,2.0028,1.9367,1.9688,4.5708,4.5415,4.4898,4.4029,4.1477,3.8591,3.6322,3.2701,2.9133,2.6655,2.5282,2.4413,2.4302,2.5463,2.7561,3.0784,3.2959,3.5665,3.9738,4.0778,4.147,4.2354,4.2701,4.2777,4.247,4.1931,0.0,0.0,0.0,3.9315,3.7661,3.6392,3.5661,3.5493,3.5353,3.4853,3.3968,3.3994,3.3609,3.2891,3.2608,3.2569,3.2699,3.2391,3.2237,3.2199,3.1415,0.0,3.0929,2.9522,2.8895,2.8824,2.8173,2.7961,2.7984,2.8008,2.8061,2.8085,2.7998,2.7978,2.771,2.6209,2.6172,2.6641,2.5937,2.6211,2.6602,2.5898,2.5703,2.5703,2.5703,2.5703,2.5898,2.6602,2.6758,2.6953,2.7695,2.7266,2.6758,2.6758,2.6172,2.5703,2.5703,2.5703,2.5703,2.5703,2.5703,2.5663,2.5611,2.4749,2.3734,2.2761,2.1948,2.1099,2.0048,1.9299,1.8871,1.8861,1.8828,1.878,1.878,1.9465,1.9927,2.0081,2.0081,2.015,2.0312,2.0871,2.1158,2.1205,2.1356,2.1706,4.6685,4.6194,4.5469,4.5111,4.1674,3.7772,3.5511,3.1752,2.8015,2.5594,2.4617,2.419,2.419,2.5281,2.6989,2.9566,3.1224,3.3731,3.8155,3.9674,4.1042,4.2893,4.3855,4.4047,4.3162,4.2739,4.2085,4.12,0.0,3.9315,3.8084,3.643,3.5493,3.5493,3.5493,3.5315,3.4891,3.443,3.4199,3.4237,3.3314,3.3122,3.3545,3.3122,3.2891,3.2891,3.2506,0.0,3.2275,3.1429,3.1083,3.1006,3.0198,2.9886,2.9862,2.9438,2.9274,2.9231,2.8874,2.8758,2.8575,2.7419,2.7031,2.6992,2.7031,2.6719,2.6328,2.6367,2.6055,2.5781,2.625,2.6367,2.6602,2.7461,2.7695,2.7773,2.8203,2.7969,2.7695,2.7695,2.7344,2.7031,2.7031,2.668,2.6367,2.6323,2.5931,2.5611,2.5577,2.5152,2.4559,2.3774,2.3257,2.2633,2.1773,2.0856,2.0532,2.0996,2.0566,2.0504,2.0974,2.1389,2.1581,2.1581,2.1581,2.1581,2.1581,2.1913,2.2038,2.1907,2.2073,2.2389,4.7011,4.6443,4.5651,4.5536,4.1415,3.6795,3.4771,3.0864,2.7045,2.494,2.4339,2.419,2.419,2.4857,2.606,2.807,2.8988,3.1176,3.6156,3.8076,4.0074,4.2992,4.4662,4.5086,4.3739,4.3316,0.0,4.1162,0.0,0.0,3.8046,3.6584,3.5776,3.5776,3.5584,3.5493,3.5493,3.4814,3.4814,3.5455,3.4122,3.3814,3.4468,3.3776,3.3468,3.3468,3.3276,0.0,0.0,3.2968,3.2891,3.2852,3.2199,3.1968,3.1852,3.1006,3.0799,3.0827,2.9899,2.9691,2.9766,2.9097,2.8281,2.7656,2.8164,2.7461,2.6641,2.7148,2.6797,2.6406,2.7109,2.7266,2.75,2.8359,2.8711,2.8867,2.8867,2.8711,2.8594,2.8594,2.8281,2.8086,2.8281,2.7577,2.6949,2.6895,2.6298,2.5769,2.5517,2.5409,2.5149,2.4496,2.4296,2.3828,2.297,2.2207,2.2081,2.2774,2.2158,2.2081,2.2774,2.2812,2.2812,2.2812,2.2812,2.2812,2.2812,2.2939,2.2898,2.2615,2.2725,2.2989,4.5597,4.5438,4.4929,4.3148,3.9249,3.5408,3.3506,2.9494,2.586,2.4713,2.4339,2.419,2.419,2.4282,2.5331,2.8419,2.8586,3.0678,3.7364,3.8652,4.021,4.3761,4.5009,4.5547,4.5393,4.397,4.3047,4.2854,0.0,0.0,3.8046,3.7084,3.6584,3.6584,3.5892,3.5493,3.5493,3.543,3.543,3.5493,3.5353,3.5315,3.5391,3.5315,3.5276,3.5238,3.443,0.0,0.0,3.3237,3.2891,3.2891,3.2814,3.2776,3.2699,3.1891,3.2111,3.2628,3.1022,3.1057,3.1616,3.0897,3.0078,2.9219,2.8516,2.875,2.9101,2.8398,2.8125,2.8086,2.8164,2.8164,2.8398,2.9258,3.0078,3.0664,3.0664,3.0039,2.9492,2.9492,2.8203,2.7383,2.8164,2.7531,2.6927,2.6891,2.6775,2.6396,2.5511,2.5413,2.5337,2.5196,2.4571,2.3762,2.2868,2.2744,2.2697,2.2774,2.2735,2.2735,2.2812,2.2812,2.2812,2.2812,2.2812,2.2812,2.2812,2.3416,2.3683,2.3686,2.4084,2.4404,4.3929,4.4735,4.4904,4.3413,3.9246,3.5032,3.313,2.9147,2.551,2.4505,2.4266,2.419,2.419,2.419,2.4983,2.7355,2.7158,2.8558,3.396,3.523,3.7203,4.1338,4.3043,4.4115,4.4739,0.0,4.3393,0.0,0.0,0.0,3.9508,3.7738,3.6469,3.6007,3.5661,3.5493,3.5493,3.5493,3.5738,3.6238,3.6238,3.6507,3.7007,3.7007,3.6738,3.6199,3.5853,0.0,0.0,3.4851,3.4809,3.5195,3.4152,3.3727,3.365,3.2849,3.2774,3.3003,3.2411,3.2147,3.197,3.1757,3.1094,3.0312,2.9961,2.9375,2.8867,2.9023,2.8711,2.8437,2.8945,2.9453,2.9961,3.0312,3.0664,3.0898,3.0898,3.0625,3.0391,3.0391,2.9805,2.9413,2.9718,2.9042,2.8431,2.8279,2.7841,2.7195,2.6253,2.612,2.5909,2.5351,2.5005,2.4697,2.4351,2.3851,2.3774,2.4274,2.3851,2.3812,2.4274,2.4312,2.4312,2.4312,2.4312,2.4312,2.4312,2.4561,2.4651,2.4522,2.4615,2.4654,4.1282,4.2881,4.3669,4.2128,3.8161,3.4105,3.2022,2.8334,2.5112,2.4357,2.419,2.419,2.419,2.419,2.4726,2.6265,2.6263,2.7416,3.1298,3.307,3.5305,3.888,4.0941,4.2526,4.3729,4.3897,4.3355,0.0,0.0,0.0,0.0,3.843,3.7084,3.6276,3.5776,3.5493,3.5493,3.5738,3.6161,3.6699,3.6969,3.742,3.8053,3.8053,3.7706,3.7141,0.0,0.0,0.0,3.6317,3.6367,3.6753,3.5282,3.4719,3.4602,3.3805,3.3713,3.3867,3.3466,3.3066,3.2764,3.2616,3.1992,3.1289,3.1289,3.0234,2.9219,2.9805,2.9531,2.9258,3.0156,3.082,3.1289,3.1289,3.1289,3.1211,3.0976,3.0898,3.0898,3.0898,3.0663,3.0541,3.0679,2.9987,2.9347,2.9226,2.8702,2.7913,2.6746,2.6621,2.6274,2.538,2.5303,2.5303,2.5303,2.4774,2.4697,2.5264,2.4774,2.4697,2.5264,2.5303,2.5303,2.5303,2.5303,2.5303,2.5303,2.5234,2.5099,2.4956,2.4766,2.4591,3.736,3.9313,4.0561,3.8138,3.5209,3.2228,2.9632,2.6686,2.4462,2.4247,2.419,2.419,2.419,2.419,2.4523,2.554,2.6376,2.7829,3.0638,3.3346,3.5623,3.7048,3.9179,4.1097,4.2584,4.2982,4.2739,0.0,0.0,0.0,0.0,3.9277,3.8854,3.8007,3.6353,3.5493,3.5493,3.6315,3.6699,3.6699,3.7584,3.8067,3.8197,3.8197,3.8197,0.0,0.0,0.0,0.0,3.7277,3.6953,3.6841,3.5998,3.5684,3.5606,3.4795,3.5076,3.5627,3.3916,3.3898,3.4531,3.3672,3.2851,3.2187,3.2187,3.1562,3.0859,3.0898,3.0898,3.1055,3.1953,3.2187,3.2187,3.2187,3.2187,3.1953,3.1094,3.0898,3.0898,3.0898,3.0147,2.9776,3.056,2.9868,2.9193,2.9201,2.9139,2.8467,2.6813,2.6621,2.6274,2.538,2.5303,2.5303,2.5303,2.5303,2.5303,2.5303,2.5303,2.5303,2.5303,2.5303,2.5303,2.5303,2.5303,2.5303,2.5303,2.5099,2.4943,2.4804,2.4591,2.4393,3.3623,3.5128,3.5789,3.4468,3.2169,2.9863,2.8507,2.616,2.4284,2.4209,2.419,2.419,2.419,2.419,2.4726,2.6265,2.673,2.7867,3.06,3.2711,3.4965,3.7683,4.1355,4.3905,0.0,0.0,0.0,0.0,0.0,0.0,0.0,3.9585,3.8623,3.7161,3.6622,3.61,3.5554,3.6416,3.7168,3.7793,3.8695,3.9383,3.9993,3.9993,0.0,0.0,0.0,0.0,0.0,3.765,3.743,3.773,3.6356,3.5836,3.5802,3.5568,3.5654,3.5828,3.5306,3.496,3.4648,3.4375,3.3711,3.3008,3.3008,3.2031,3.1016,3.1601,3.2187,3.2656,3.2969,3.3008,3.2891,3.2344,3.2187,3.1953,3.1094,3.0817,3.0769,3.0769,3.0505,3.0331,3.051,3.0288,3.0056,3.0045,2.999,2.9583,2.8429,2.7813,2.7159,2.6274,2.5649,2.5303,2.5303,2.5303,2.5303,2.5303,2.5303,2.5303,2.5303,2.5303,2.5303,2.5303,2.5303,2.5303,2.5303,2.5224,2.508,2.479,2.4591,2.4393,3.0136,3.1825,3.2632,3.1531,2.9879,2.8264,2.7126,2.5511,2.4228,2.4321,2.4303,2.4303,2.4303,2.4375,2.4871,2.6227,2.6764,2.7809,3.0039,3.2203,3.485,3.8308,4.1663,0.0,0.0,0.0,0.0,0.0,0.0,0.0,0.0,3.9546,3.8507,3.6776,3.7007,3.682,3.6105,3.7267,3.8152,3.8797,3.9613,4.0299,4.087,4.0836,0.0,0.0,0.0,0.0,0.0,3.8701,3.828,3.8221,3.6921,3.6235,3.5923,3.5923,3.5923,3.5927,3.5976,3.5625,3.5195,3.5195,3.4609,3.3828,3.3516,3.2656,3.1875,3.2148,3.2773,3.3476,3.3828,3.3633,3.3281,3.2773,3.2422,3.1953,3.1094,3.0774,3.0716,3.0716,3.0614,3.0559,3.0496,3.0482,3.0451,3.0402,3.0379,3.0083,2.9198,2.8659,2.789,2.6736,2.612,2.5649,2.5341,2.5303,2.5303,2.5303,2.5303,2.5303,2.5303,2.5303,2.5303,2.5303,2.5303,2.5303,2.5303,2.5171,2.4981,2.4685,2.4497,2.4303,0.0,2.9205,3.054,2.9035,2.8117,2.7126,2.5678,2.474,0.0,2.4445,2.4497,2.4497,2.4534,2.4676,2.5001,2.5725,2.6647,2.7804,2.9282,3.2221,3.5474,3.8908,4.0651,0.0,4.1767,0.0,0.0,0.0,0.0,0.0,0.0,3.9392,3.8623,3.693,3.7738,3.7758,3.6929,3.8507,3.9432,3.9614,4.0364,4.0827,4.1012,4.0877,0.0,0.0,0.0,0.0,0.0,4.0142,3.9289,3.8323,3.7575,3.6758,3.6016,3.6016,3.6016,3.6016,3.6016,3.6016,3.6016,3.6016,3.5469,3.4648,3.375,3.3476,3.3359,3.2578,3.2969,3.3789,3.457,3.418,3.3555,3.3437,3.2812,3.2031,3.1094,3.0771,3.071,3.0707,3.0568,3.0509,3.0509,3.0441,3.0379,3.0379,3.0379,3.0121,2.9313,2.9121,2.8506,2.6928,2.6736,2.6351,2.5457,2.5341,2.5303,2.5303,2.5303,2.5303,2.5303,2.5303,2.5303,2.5303,2.5303,2.5303,2.5293,2.5006,2.4776,2.4588,2.445,2.4373,2.5079,0.0,2.5805,2.5438,2.5181,2.4961,0.0,2.4337,2.4209,2.4266,2.4284,2.4469,2.5095,2.4854,2.5184,2.6995,2.762,2.8746,3.1167,3.5354,3.8537,3.9499,4.1518,4.2496,4.159,0.0,0.0,0.0,0.0,0.0,0.0,4.02,3.9738,3.87,3.9469,3.894,3.6908,3.7964,3.884,3.9607,4.052,4.095,4.1016,4.1077,0.0,0.0,0.0,0.0,4.0881,4.0086,3.9227,3.8323,3.7575,3.6758,3.6016,3.6016,3.6016,3.6016,3.6016,3.6016,3.6016,3.6016,3.5859,3.5547,3.4648,3.4375,3.4375,3.418,3.4726,3.543,3.5625,3.5547,3.5039,3.3711,3.3242,3.2695,3.1081,3.0693,3.0598,3.0574,3.0482,3.0398,3.0398,3.0414,3.0379,3.0379,3.0379,3.034,3.0121,2.9506,2.8929,2.8544,2.7967,2.7236,2.639,2.5687,2.5303,2.5303,2.5303,2.5303,2.5303,2.5303,2.5303,2.5303,2.5303,2.5224,2.5077,2.5494,2.5609,2.5427,2.5852,2.6025,2.4479,2.4598,2.4779,2.4875,2.4912,2.4838,2.4779,2.4542,2.4321,2.4321,2.4321,2.458,2.5393,2.5419,2.6022,2.8194,2.8764,3.0052,3.3104,3.6482,3.8967,3.9948,4.1223,4.1894,0.0,0.0,0.0,0.0,0.0,0.0,0.0,3.9931,3.9546,3.8738,3.8738,3.8516,3.8031,3.8922,3.9616,4.0151,4.0676,4.095,4.1016,4.1077,4.1129,0.0,0.0,0.0,4.1043,4.0574,3.9871,3.9051,3.8632,3.7734,3.6601,3.6601,3.6328,3.6016,3.6016,3.6016,3.6016,3.6016,3.6016,3.5898,3.543,3.5312,3.5195,3.4805,3.5312,3.6016,3.6016,3.5703,3.5156,3.4219,3.367,3.2996,3.1577,3.1237,3.101,3.0574,3.076,3.1006,3.1006,3.1314,3.1429,3.1044,3.1006,3.0852,3.0456,3.0006,2.9544,2.9121,2.8698,2.8121,2.7274,2.6774,2.6159,2.5341,2.5303,2.5495,2.589,2.5495,2.5495,2.589,2.6274,2.6403,2.6174,2.6564,2.6585,2.6264,2.658,2.67,2.4575,2.5132,2.5652,2.5576,2.5666,2.5651,2.5393,2.491,2.4543,2.4543,2.4655,2.4937,2.5629,2.6269,2.7286,2.9139,3.0196,3.1958,3.5335,3.7031,3.8553,4.0181,4.0521,0.0,0.0,0.0,0.0,0.0,0.0,0.0,0.0,3.9469,3.9123,3.8392,3.7661,3.8028,3.9592,4.006,4.0416,4.077,4.0805,4.0864,4.0964,4.1019,4.1082,0.0,0.0,0.0,4.1211,4.1171,4.0664,3.9883,3.9883,3.8906,3.75,3.75,3.7031,3.6367,3.625,3.6094,3.6016,3.6016,3.6016,3.6016,3.6016,3.6016,3.5859,3.5117,3.543,3.6016,3.6016,3.5469,3.4844,3.4726,3.4088,3.3204,3.2182,3.1884,3.1593,3.0839,3.1251,3.1737,3.1852,3.2468,3.2622,3.1814,3.1814,3.1583,3.0698,3.0609,3.0314,2.9583,2.939,2.8967,2.8159,2.8082,2.739,2.5813,2.5687,2.6043,2.6774,2.6082,2.6043,2.6774,2.7505,2.7785,2.7599,2.7714,2.757,2.7176,2.727,2.7213,2.4866,2.5905,2.658,2.5273,2.5461,2.5762,2.5054,2.4806,2.476,2.476,2.5288,2.58,2.5919,2.7281,2.8713,2.9544,3.2286,3.5432,0.0,0.0,3.9698,3.9819,0.0,0.0,0.0,0.0,0.0,0.0,0.0,0.0,0.0,4.0315,4.0239,4.0123,3.9969,4.0111,4.051,3.9096,3.9143,4.0535,4.0723,4.0828,4.085,4.1077,4.1171,0.0,0.0,4.1082,4.1172,4.108,4.0576,3.9883,3.9883,3.9297,3.8398,3.8398,3.832,3.8086,3.7344,3.6601,3.6016,3.6016,3.6016,3.6016,3.6016,3.6016,3.5976,3.5859,3.5898,3.6016,3.6016,3.5898,3.5585,3.4786,3.4498,3.3925,3.2198,3.1823,3.1719,3.1565,3.1634,3.1929,3.2583,3.2814,3.2622,3.1814,3.2275,3.2429,3.1621,3.1506,3.1468,3.1314,3.066,2.9852,2.8967,2.8929,2.8506,2.7544,2.7505,2.7544,2.7698,2.7582,2.7544,2.7698,2.7813,2.7785,2.7599,2.8273,2.8502,2.8282,2.8926,2.9176,2.4967,2.5907,2.6708,2.5958,2.63,2.6698,2.6216,2.5821,2.5725,2.6095,2.6443,2.6858,2.728,2.854,3.0209,3.2462,3.4986,3.7162,3.8573,3.8856,3.9082,0.0,0.0,0.0,0.0,0.0,0.0,0.0,0.0,0.0,0.0,0.0,4.0085,3.9161,3.9161,3.9167,3.9251,3.8505,3.898,4.0649,4.0828,4.0894,4.0894,4.1125,4.1211,4.1211,0.0,4.1129,4.1211,4.1128,4.0895,4.0586,4.0586,4.0078,3.9258,3.8789,3.8594,3.8555,3.8125,3.7422,3.6719,3.6719,3.6719,3.6719,3.6719,3.7031,3.7383,3.7383,3.6719,3.6016,3.6016,3.6016,3.5898,3.5463,3.5333,3.4944,3.3556,3.3206,3.2996,3.2466,3.2737,3.316,3.3545,3.4007,3.4007,3.316,3.3353,3.3314,3.2468,3.2352,3.2199,3.1737,3.1352,3.0737,2.989,2.9813,2.9275,2.7967,2.8313,2.8352,2.7928,2.8775,2.9044,2.8544,2.9006,2.9202,2.9104,2.9475,2.9535,2.9323,2.9687,3.0011,2.5077,2.5817,2.6621,2.6621,2.7098,2.7586,2.7652,2.747,2.7421,2.7909,2.835,2.8616,2.8624,2.9632,3.1659,3.521,3.7046,3.82,3.8815,3.87,3.8892,0.0,0.0,0.0,0.0,0.0,0.0,0.0,0.0,0.0,0.0,0.0,3.9546,3.8046,3.82,3.8306,3.8348,3.864,3.9364,4.0477,4.0822,4.1016,4.1016,4.1129,4.1211,4.1211,4.1211,4.1211,4.1211,4.1211,4.1211,4.1211,4.1211,4.0781,4.0117,3.9453,3.9062,3.8906,3.8906,3.832,3.7578,3.7383,3.7305,3.7305,3.7305,3.7773,3.8359,3.8555,3.7656,3.6562,3.6367,3.6133,3.6015,3.5975,3.5923,3.5654,3.4697,3.4428,3.4129,3.3373,3.3762,3.4289,3.4481,3.5045,3.5199,3.4314,3.4353,3.4199,3.3314,3.3199,3.2968,3.2352,3.2083,3.1621,3.0775,3.0533,2.9852,2.8582,2.9044,2.9121,2.8506,2.9737,3.0083,2.9429,3.0083,3.0494,3.0698,3.0698,3.0702,3.0682,3.0682,3.0937,2.5293,2.5918,2.6621,2.6621,2.7225,2.8071,2.8791,2.956,3.0136,3.0163,3.1392,3.1789,2.9483,3.0444,3.2686,3.6084,3.7392,3.8815,4.12,0.0,0.0,0.0,0.0,0.0,0.0,0.0,0.0,0.0,0.0,0.0,0.0,0.0,0.0,3.8046,3.8777,3.9248,3.9298,4.0169,4.0256,3.9497,4.0526,4.1016,4.1016,4.1129,4.1211,4.1211,4.1211,4.1211,4.1211,4.1211,4.1211,4.1211,4.1211,4.1172,4.1094,4.1055,4.0508,3.9805,3.9805,3.9258,3.8359,3.7578,3.7305,3.7305,3.7305,3.7344,3.7578,3.8359,3.8516,3.8242,3.7422,3.6601,3.5976,3.5916,3.5903,3.5654,3.4697,3.4484,3.445,3.4255,3.4265,3.4533,3.5303,3.5468,3.5199,3.4314,3.4891,3.5084,3.4199,3.4122,3.4083,3.4007,3.3314,3.2506,3.1698,3.0891,3.034,3.0225,3.0263,3.0263,3.0225,3.034,3.0379,3.0302,3.0379,3.0814,3.1621,3.1621,3.1994,3.2686,3.2686,3.2631,2.5303,2.6351,2.739,2.739,2.8429,2.9698,3.0506,3.0968,3.1506,3.2545,3.3699,3.4045,3.2545,3.2814,3.4007,3.6315,3.7892,3.9315,4.0777,0.0,0.0,0.0,0.0,0.0,0.0,0.0,0.0,0.0,0.0,0.0,0.0,0.0,0.0,3.7238,3.8546,3.9052,3.8543,3.9529,3.9871,3.9527,4.0625,4.1126,4.1128,4.1171,4.1211,4.1211,4.1211,4.1211,4.1211,4.1211,4.1211,4.1211,4.1211,4.1211,4.1211,4.1211,4.0976,4.0703,4.0703,4.0156,3.9336,3.9023,3.8906,3.8906,3.8906,3.9297,3.9805,4.0117,3.9844,3.9219,3.832,3.7461,3.6953,3.7458,3.6752,3.6005,3.6161,3.5758,3.5332,3.5127,3.5126,3.5201,3.5457,3.5493,3.5391,3.5045,3.5276,3.5391,3.5045,3.5007,3.4814,3.4237,3.343,3.2776,3.2468,3.216,3.1737,3.1237,3.0698,3.0379,3.0379,3.0379,3.0379,3.0379,3.0929,3.1391,3.1698,3.2199,3.2583,3.2891,3.2891,3.3173,2.5303,2.639,2.7544,2.7813,2.9159,3.084,3.2506,3.2891,3.3391,3.5045,3.5468,3.5315,3.4737,3.4391,3.4737,0.0,3.8161,3.9585,0.0,0.0,0.0,0.0,0.0,0.0,0.0,0.0,0.0,0.0,0.0,0.0,0.0,0.0,0.0,0.0,3.8007,3.8584,3.8007,3.9306,3.9972,3.9972,4.0806,4.1211,4.1211,4.1211,4.1211,4.1211,4.1211,4.1211,4.1211,4.1211,4.1211,4.1211,4.1211,4.1211,4.1211,4.1211,4.1211,4.1211,4.1211,4.082,4.0273,4.0,3.9883,3.9883,3.9883,4.0312,4.0859,4.1133,4.0781,4.0156,3.957,3.8555,3.7851,3.8476,3.7695,3.6952,3.7474,3.7109,3.6528,3.6106,3.6017,3.5886,3.5572,3.5493,3.5493,3.5493,3.5493,3.5493,3.5493,3.5493,3.5276,3.4661,3.3814,3.3314,3.3314,3.3045,3.266,3.2122,3.1506,3.1083,3.0814,3.0814,3.0929,3.1198,3.1775,3.2199,3.2506,3.3045,3.3468,3.3737,3.3737,3.4045,2.5303,2.5928,2.6813,2.7698,2.9198,3.1302,3.4724,3.5493,3.5968,3.7661,3.6699,3.5493,3.5532,3.4814,3.4776,3.643,3.8161,3.9585,0.0,0.0,0.0,0.0,0.0,0.0,0.0,0.0,0.0,0.0,0.0,0.0,0.0,0.0,0.0,0.0,3.7123,3.8007,3.8007,3.9849,4.0782,4.0782,4.1077,4.1172,4.1211,4.1211,4.1211,4.1211,4.1211,4.1211,4.1211,4.1211,4.1211,4.1211,4.1211,4.1211,4.1211,4.1211,4.1211,4.1211,4.1211,4.1211,4.1055,4.0195,3.9922,3.9922,3.9922,3.9922,4.0078,4.0976,4.1211,4.1211,4.1211,3.9922,3.8633,3.8633,3.8594,3.8553,3.8447,3.8397,3.8088,3.7114,3.6908,3.6582,3.5688,3.5493,3.5507,3.5493,3.5493,3.5493,3.5493,3.5493,3.5493,3.5532,3.4737,3.4199,3.4199,3.343,3.2929,3.2891,3.2891,3.2545,3.1737,3.1698,3.2083,3.2891,3.2891,3.3353,3.4199,3.4199,3.4661,3.5493,3.5493,3.5493,2.5303,2.639,2.7698,2.8544,3.0467,3.2737,3.5007,3.5493,3.6161,3.843,3.7546,3.6546,3.7161,3.6546,3.6315,3.743,3.8546,0.0,0.0,0.0,0.0,0.0,0.0,0.0,0.0,0.0,0.0,0.0,0.0,0.0,0.0,0.0,0.0,0.0,3.743,3.8007,3.8007,3.8675,3.9031,3.9038,3.9908,4.0625,4.1211,4.1211,4.1211,4.1211,4.1211,4.1211,4.1211,4.1211,4.1211,4.1211,4.1211,4.1211,4.1211,4.1211,4.1211,4.1211,4.1211,4.1211,4.1172,4.0898,4.082,4.082,4.082,4.082,4.0859,4.1133,4.1211,4.1211,4.1211,4.082,4.043,4.043,3.9492,3.875,3.9334,3.8461,3.7639,3.7841,3.7356,3.6775,3.6419,3.6353,3.6161,3.5584,3.5493,3.5699,3.6276,3.6353,3.6584,3.7199,3.5968,3.5353,3.593,3.5199,3.4468,3.3853,3.3814,3.343,3.2583,3.2545,3.266,3.2891,3.3506,3.393,3.4199,3.4814,3.5238,3.5493,3.5493,3.5493,2.5303,2.6813,2.8582,2.939,3.1775,3.4391,3.6122,3.7007,3.793,3.9469,3.87,3.7777,3.7969,3.7276,0.0,3.7853,3.843,0.0,0.0,0.0,0.0,0.0,0.0,0.0,0.0,0.0,0.0,0.0,0.0,0.0,0.0,0.0,0.0,0.0,3.7046,3.7469,3.7469,3.8016,3.8291,3.8298,3.94,4.0195,4.0664,4.0664,4.0859,4.1211,4.1211,4.1211,4.1211,4.1211,4.1211,4.1211,4.1211,4.1211,4.1211,4.1211,4.1211,4.1211,4.1211,4.1211,4.1211,4.1211,4.1211,4.1211,4.1211,4.1211,4.1211,4.1211,4.1211,4.1211,4.1211,4.0937,4.0781,4.1133,4.0391,3.9765,4.023,3.9419,3.8578,3.833,3.7771,3.709,3.6367,3.6238,3.6084,3.557,3.5776,3.6161,3.6661,3.7007,3.743,3.793,3.7084,3.6699,3.7199,3.6776,3.6122,3.5238,3.5199,3.4814,3.3968,3.3583,3.3583,3.393,3.4468,3.4737,3.4737,3.5238,3.5493,3.5493,3.5493,3.5493,2.538,2.7159,2.9236,3.0352,3.3276,3.6276,3.7853,3.9392,4.0469,4.0392,3.9815,3.9046,3.8277,3.743,3.7084,3.7853,0.0,0.0,0.0,0.0,0.0,0.0,0.0,0.0,0.0,0.0,0.0,0.0,0.0,0.0,0.0,0.0,0.0,3.5545,3.6199,3.6584,3.6584,3.7541,3.805,0.0,3.9125,3.9648,3.9687,3.9922,4.0469,4.1211,4.1211,4.1211,4.1211,4.1211,4.1211,4.1211,4.1211,4.1211,4.1211,4.1211,4.1211,4.1211,4.1211,4.1211,4.1211,4.1211,4.1211,4.1211,4.1211,4.1211,4.1211,4.1211,4.1211,4.1211,4.1211,4.0625,4.0234,4.1016,4.1133,4.1054,4.0912,4.0772,4.0213,3.8626,3.8196,3.7623,3.6007,3.5815,3.5815,3.5738,3.643,3.693,3.693,3.7623,3.8161,3.8238,3.8084,3.8046,3.8123,3.8046,3.7623,3.6776,3.6699,3.6353,3.5532,3.4737,3.4699,3.5455,3.5493,3.5493,3.5493,3.5493,3.5493,3.5493,3.5493,3.5493,2.612,2.7236,2.8813,3.166,3.5468,3.8738,3.9738,4.0239,4.0315,3.97,3.9431,3.9238,3.9046,3.8315,3.7777,3.7969,0.0,0.0,0.0,0.0,0.0,0.0,0.0,0.0,0.0,0.0,0.0,0.0,0.0,0.0,0.0,0.0,0.0,3.5455,3.5661,3.5776,3.5776,3.6052,3.6229,0.0,3.7297,3.7803,3.793,3.9961,4.1016,4.1211,4.1211,4.1211,4.1211,4.1211,4.1211,4.1211,4.1211,4.1211,4.1211,4.1211,4.1211,4.1211,4.1211,4.1211,4.1211,4.1211,4.1211,4.1211,4.1211,4.1211,4.1211,4.1211,4.1211,4.1211,4.1211,4.1055,4.0976,4.1172,4.0664,4.0156,4.0155,3.9993,3.9731,3.9388,3.9146,3.87,3.7623,3.8046,3.8238,3.7584,3.82,3.8738,3.8738,3.8892,3.9238,3.9892,3.8777,3.8277,3.8969,3.8392,3.7623,3.6776,3.6699,3.6353,3.5532,3.5315,3.5315,3.5507,3.5493,3.5493,3.5493,3.5493,3.5493,3.5493,3.5493,3.5493,2.5851,2.7198,2.939,3.3199,3.6738,3.9392,3.9815,3.9931,3.9815,3.9392,3.9277,3.9046,3.82,3.77,3.7392,0.0,0.0,0.0,0.0,0.0,0.0,0.0,0.0,0.0,0.0,0.0,0.0,0.0,0.0,0.0,0.0,3.3968,3.4391,3.4853,3.5276,3.5493,3.5493,3.5554,3.562,3.5723,3.6738,3.7446,3.7969,3.9766,4.0586,4.0586,4.1016,4.1211,4.1211,4.1211,4.1211,4.1211,4.1211,4.1211,4.1211,4.1211,4.1211,4.1211,4.1211,4.1211,4.1211,4.1211,4.1211,4.1211,4.1211,4.1211,4.1211,4.1211,4.1211,4.1211,4.1211,4.0898,4.0664,4.1094,4.0859,4.0507,4.0423,3.9979,3.9575,3.9509,3.8735,3.8046,3.8007,3.8392,3.8507,3.8084,3.8738,3.9277,3.9277,3.9623,4.0046,4.0469,3.97,3.9392,3.9815,3.9469,3.8854,3.8007,3.793,3.7392,3.6122,3.6084,3.5892,3.5507,3.5493,3.5493,3.5493,3.5493,3.5493,3.5493,3.5892,3.6084,2.5495,2.7505,3.0467,3.4314,3.7084,3.8892,3.9046,3.9084,3.9008,3.8892,3.8854,3.8392,3.6969,3.6584,3.6507,0.0,0.0,0.0,0.0,0.0,0.0,0.0,0.0,0.0,0.0,0.0,0.0,0.0,0.0,0.0,3.2699,3.3391,3.3814,3.3968,3.4699,3.5045,3.5045,3.5106,3.5252,3.5496,3.6512,3.7489,3.8398,3.9101,3.9531,3.9726,4.0586,4.0976,4.0976,4.0976,4.1055,4.1211,4.1211,4.1211,4.1211,4.1211,4.1211,4.1211,4.1211,4.1211,4.1211,4.1211,4.1211,4.1211,4.1211,4.1211,4.1211,4.1211,4.1211,4.1211,4.1211,4.0664,4.0312,4.1016,4.1171,4.1089,4.0828,4.0253,3.9721,3.9458,3.8183,3.743,3.8277,3.8315,3.8277,3.8392,3.9046,3.9508,3.9508,4.0085,4.0508,4.0508,4.0508,4.0508,4.0508,4.0508,4.0162,3.9354,3.9277,3.8507,3.6776,3.6699,3.6392,3.5738,3.557,3.5493,3.5493,3.5661,3.5699,3.5738,3.6546,3.693,2.6236,2.8852,3.1852,3.3853,3.5738,3.7238,3.8007,3.8161,3.7969,3.7199,3.7046,3.6969,3.6738,3.6122,0.0,0.0,0.0,0.0,0.0,0.0,0.0,0.0,0.0,0.0,0.0,0.0,0.0,0.0,0.0,0.0,3.1852,3.1968,3.2352,3.3045,3.3199,3.3237,3.3237,3.3262,3.3731,3.4685,3.5686,3.6601,3.7461,3.7578,3.8047,3.8828,3.9687,4.0078,4.0078,4.0078,4.0508,4.1211,4.1211,4.1211,4.1211,4.1211,4.1211,4.1211,4.1211,4.1211,4.1211,4.1211,4.1211,4.1211,4.1211,4.1211,4.1211,4.1211,4.1211,4.1211,4.1211,4.1094,4.1055,4.1172,4.1125,4.0828,4.004,4.0237,4.0339,3.9569,3.916,3.92,4.0008,3.9585,3.9354,4.0046,4.0277,4.0315,4.0315,4.0431,4.0508,4.0508,4.0508,4.0508,4.0508,4.0508,4.0162,3.9354,3.9277,3.8507,3.6776,3.6699,3.6661,3.6546,3.5853,3.5493,3.5493,3.6199,3.6546,3.6584,3.743,3.7815,2.6351,2.8044,2.9852,3.1044,3.2968,3.4814,3.5661,3.5853,3.6045,3.6584,3.5545,3.4891,3.5853,3.5738,0.0,0.0,0.0,0.0,0.0,0.0,0.0,0.0,0.0,0.0,0.0,0.0,0.0,0.0,0.0,3.0968,3.0968,3.1429,3.1852,3.2237,3.266,3.2891,3.2891,3.2891,3.3439,3.4529,3.5027,3.5742,3.6601,3.707,3.7773,3.8633,3.9023,3.918,3.9219,3.9687,4.0117,4.0508,4.1016,4.1211,4.1211,4.1211,4.1211,4.1211,4.1211,4.1211,4.1211,4.1211,4.1211,4.1211,4.1211,4.1211,4.1211,4.1211,4.1211,4.1211,4.1211,4.1129,4.1082,4.1082,4.0944,4.0719,4.033,4.0092,3.9712,3.8801,3.9336,3.9931,3.9815,3.9892,4.0085,4.0431,4.0508,4.0508,4.0508,4.0508,4.0508,4.0508,4.0508,4.0508,4.0508,4.0508,4.0354,3.9969,3.9969,3.9431,3.82,3.8161,3.793,3.743,3.6622,3.643,3.6892,3.7276,3.743,3.7469,3.8315,3.8738,2.6082,2.6928,2.7775,2.8582,3.039,3.2237,3.3314,3.3545,3.3968,3.543,3.4237,3.3314,3.4622,3.4853,0.0,0.0,0.0,0.0,0.0,0.0,0.0,0.0,0.0,0.0,0.0,0.0,0.0,0.0,0.0,3.0379,3.0379,3.1006,3.1391,3.1391,3.1968,3.2275,3.2275,3.2513,3.3045,3.3868,3.4402,3.5039,3.5703,3.6562,3.7305,3.7969,3.8398,3.8594,3.8672,3.9531,4.0039,4.0273,4.0937,4.1211,4.1211,4.1211,4.1211,4.1211,4.1211,4.1211,4.1211,4.1211,4.1211,4.1211,4.1211,4.1211,4.1211,4.1211,4.1211,4.1211,4.1211,4.1128,4.103,4.1019,4.0875,4.0699,4.0655,4.014,3.9457,3.8768,3.9623,4.0315,3.97,4.0085,4.0508,4.0508,4.0508,4.0508,4.0508,4.0508,4.0508,4.0508,4.0508,4.0508,4.0508,4.0508,4.0508,4.0508,4.0508,4.0123,3.9315,3.9277,3.8969,3.8354,3.77,3.7584,3.8007,3.8238,3.8315,3.8354,3.92,3.9585,2.5341,2.6005,2.689,2.7736,2.8621,2.9737,3.1429,3.1814,3.2083,3.2929,3.3006,3.2929,3.3006,3.3045,0.0,0.0,0.0,0.0,0.0,0.0,0.0,0.0,0.0,0.0,0.0,0.0,0.0,0.0,0.0,3.0379,3.0379,3.0417,3.0456,3.0456,3.0494,3.0533,3.0533,3.146,3.1987,3.2077,3.3856,3.4726,3.4805,3.5664,3.6094,3.6211,3.7891,3.8594,3.8672,3.9531,4.0391,4.1133,4.1172,4.1211,4.1211,4.1211,4.1211,4.1211,4.1211,4.1211,4.1211,4.1211,4.1211,4.1211,4.1211,4.1211,4.1211,4.1211,4.1211,4.1211,4.1211,4.1172,4.117,4.1026,4.0883,4.0752,4.0535,4.0446,4.0408,4.0369,4.0431,4.0469,4.0431,4.0469,4.0508,4.0508,4.0508,4.0508,4.0508,4.0508,4.0508,4.0508,4.0508,4.0508,4.0508,4.0508,4.0508,4.0508,4.0508,4.0123,3.9315,3.9277,3.9277,3.9238,3.92,3.8777,3.8007,3.8815,3.9238,3.9238,4.0046,4.0431,2.5303,2.5534,2.5851,2.6159,2.689,2.7813,2.9006,2.9275,2.966,3.1006,3.0852,3.0621,3.1198,0.0,0.0,0.0,0.0,0.0,0.0,0.0,0.0,0.0,0.0,0.0,0.0,0.0,0.0,0.0,0.0,0.0,3.0379,3.0379,3.0379,3.0379,3.0379,3.0379,3.0379,3.081,3.1591,3.2739,3.3445,3.441,3.5547,3.5859,3.6016,3.6055,3.7266,3.7461,3.7031,3.8476,3.9258,3.9648,4.0742,4.1211,4.1211,4.1211,4.1211,4.1211,4.1211,4.1211,4.1211,4.1211,4.1211,4.1211,4.1211,4.1211,4.1211,4.1211,4.1211,4.1211,4.1211,4.1077,4.0883,4.0703,4.0641,4.0604,4.05,4.0508,4.0508,4.0508,4.0508,4.0508,4.0508,4.0508,4.0508,4.0508,4.0508,4.0508,4.0508,4.0508,4.0508,4.0508,4.0508,4.0508,4.0508,4.0508,4.0508,4.0508,4.0508,4.0354,4.0085,4.0046,4.0046,4.0046,4.0046,3.9931,3.9623,3.9931,4.0046,4.0085,4.0354,4.0508,2.5322,2.5303,2.5303,2.5303,2.5736,2.639,2.7274,2.7467,2.7852,2.9275,2.9083,2.8852,2.9467,0.0,0.0,0.0,0.0,0.0,0.0,0.0,0.0,0.0,0.0,0.0,0.0,0.0,0.0,0.0,0.0,0.0,3.0379,3.0379,3.0379,3.0379,3.0379,3.0379,3.0379,3.05,3.1273,3.2783,3.3132,3.4135,3.5586,3.5859,3.6016,3.6016,3.6601,3.6719,3.6562,3.8008,3.8594,3.875,4.0195,4.0742,4.0781,4.1094,4.1211,4.1211,4.1211,4.1211,4.1211,4.1211,4.1211,4.1211,4.1211,4.1211,4.1211,4.1211,4.1406,4.1601,4.1601,4.1406,4.1216,4.1067,4.0766,4.0585,4.0854,4.07,4.0508,4.0508,4.0508,4.0508,4.0508,4.0739,4.0931,4.0931,4.0931,4.0931,4.0931,4.0662,4.0508,4.0508,4.0508,4.0623,4.0893,4.0931,4.0931,4.0931,4.0931,4.0816,4.0508,4.0508,4.0508,4.0508,4.0508,4.0508,4.0508,4.0508,4.0508,4.0508,4.0508,4.0508,0.0,0.0,0.0,2.5313,2.5313,2.5505,2.639,2.6544,2.6813,2.767,2.7862,2.7852,2.7862,2.7862,0.0,0.0,0.0,0.0,0.0,0.0,0.0,0.0,0.0,0.0,0.0,0.0,0.0,0.0,0.0,3.0352,3.0352,3.039,3.0402,3.0402,3.039,3.039,3.0402,3.0529,3.1053,3.1921,3.2879,3.3828,3.4726,3.5586,3.5976,3.6016,3.6016,3.6484,3.7344,3.8203,3.8555,3.8633,3.9531,3.9883,4.0,4.0859,4.1172,4.1211,4.1211,4.1211,4.1211,4.1211,4.1211,4.1211,4.1211,4.1211,4.1211,4.1211,4.1797,4.2422,4.2422,4.2307,4.2152,4.2144,4.1335,4.0793,4.1623,4.1123,4.0562,4.0562,4.0585,4.0585,4.0585,4.1277,4.1854,4.1854,4.1854,4.1854,4.1854,4.1085,4.0546,4.0546,4.0546,4.0893,4.1739,4.1816,4.1854,4.1854,4.1816,4.1431,4.0546,4.0508,4.0508,4.0508,4.0508,4.0508,4.0508,4.0508,4.0508,4.0508,4.0508,4.0508,2.5434,0.0,0.0,0.0,0.0,0.0,2.564,2.5649,2.5755,2.6047,2.6535,2.6959,2.7005,2.6988,0.0,0.0,0.0,0.0,0.0,0.0,0.0,0.0,0.0,0.0,0.0,0.0,0.0,0.0,2.8512,2.8907,2.9505,3.0203,3.0545,3.0545,3.0509,3.0509,3.0545,3.0537,3.1028,3.1987,3.2243,3.3198,3.4726,3.4961,3.5391,3.6016,3.6016,3.6133,3.6445,3.7305,3.7656,3.7734,3.8633,3.9336,3.9922,4.0156,4.0664,4.1211,4.1211,4.1211,4.1211,4.1211,4.1211,4.1211,4.1211,4.1211,4.1328,4.1914,4.2226,4.2539,4.3112,4.3244,4.3156,4.2956,4.2742,4.2427,4.1917,4.1707,4.1738,4.2271,4.2393,4.2393,4.2393,4.2585,4.2739,4.2739,4.2739,4.2739,4.2739,4.197,4.1431,4.1431,4.1431,4.1546,4.1777,4.2393,4.2739,4.2739,4.2162,4.17,4.147,4.0816,4.0508,4.0508,4.0508,4.0508,4.0508,4.0508,4.0508,4.0508,4.0508,4.0854,2.6476,2.6038,2.5561,2.5912,0.0,0.0,2.5374,2.5348,2.5357,0.0,2.5745,2.6063,2.609,2.6092,0.0,0.0,0.0,0.0,0.0,0.0,0.0,0.0,0.0,0.0,0.0,2.7765,0.0,2.7456,2.8133,2.8907,2.9737,3.029,3.0586,3.0586,3.0574,3.0574,3.0586,3.0574,3.1042,3.2004,3.2057,3.2809,3.418,3.4531,3.4961,3.5469,3.5859,3.6016,3.6055,3.6562,3.6758,3.6875,3.8125,3.8906,3.9453,4.0156,4.0742,4.1211,4.1211,4.1211,4.1211,4.1211,4.1211,4.125,4.1601,4.1719,4.1875,4.2695,4.3203,4.3671,4.4523,4.4429,4.4085,4.395,4.3661,4.3315,4.2988,4.3001,4.295,4.2633,4.2547,4.2662,4.3047,4.3393,4.3585,4.3585,4.3585,4.3585,4.3585,4.2854,4.2354,4.2354,4.2354,4.247,4.2816,4.3316,4.347,4.3124,4.2931,4.2547,4.1816,4.1662,4.1585,4.1585,4.1239,4.0854,4.0508,4.0508,4.0508,4.0508,4.0508,4.0969,2.7913,2.7,2.5979,0.0,0.0,0.0,2.5486,2.5505,2.5522,0.0,2.5341,2.5332,2.5332,2.5313,0.0,0.0,0.0,0.0,0.0,0.0,0.0,0.0,0.0,0.0,2.6712,2.7379,2.7496,2.6723,2.8129,2.9424,3.0297,3.0453,3.0531,3.0647,3.0603,3.0603,3.0647,3.0696,3.1109,3.1895,3.199,3.2539,3.3437,3.4219,3.4648,3.4883,3.5664,3.6016,3.6016,3.6016,3.6055,3.6289,3.7851,3.8555,3.8945,4.0469,4.1133,4.1211,4.1211,4.1211,4.1211,4.1211,4.1211,4.1328,4.2031,4.2344,4.2617,4.3555,4.4453,4.5312,4.6094,4.5696,4.5047,4.5043,4.4343,4.3872,4.4416,4.4536,4.406,4.2433,4.2178,4.247,4.3239,4.397,4.4432,4.4432,4.4432,4.4432,4.4432,4.3739,4.3239,4.3239,4.3239,4.3508,4.4239,4.4393,4.4124,4.3431,4.397,4.3624,4.2162,4.2739,4.3085,4.3085,4.2239,4.147,4.0777,4.0777,4.0739,4.0662,4.0739,4.1239,0.0,0.0,0.0,0.0,0.0,0.0,2.58,2.6023,2.6329,0.0,2.5434,2.5376,2.5368,2.533,0.0,0.0,0.0,0.0,0.0,0.0,0.0,0.0,0.0,0.0,2.5756,2.5917,2.5955,2.5761,2.6739,2.7789,2.8705,2.941,3.0113,3.0816,3.0757,3.0718,3.0855,3.0762,3.0845,3.1092,3.1133,3.1953,3.3398,3.3594,3.4414,3.5742,3.5937,3.6016,3.6016,3.6016,3.6406,3.707,3.7422,3.8398,3.9687,4.0039,4.0586,4.1211,4.1211,4.1211,4.1211,4.1211,4.1211,4.1211,4.1406,4.1875,4.2734,4.4297,4.5351,4.6094,4.625,4.6171,4.6012,4.5906,4.5802,4.5526,4.4806,4.4646,4.453,4.406,4.4446,4.4893,4.5086,4.524,4.5355,4.5355,4.5355,4.5355,4.5355,4.4586,4.4085,4.4085,4.4085,4.4124,4.4278,4.4932,4.5278,4.5124,4.4586,4.4162,4.3816,4.3355,4.3085,4.3085,4.2239,4.2047,4.2585,4.2585,4.2239,4.1546,4.2277,4.3047,0.0,0.0,0.0,2.8278,0.0,0.0,0.0,2.6552,2.6584,2.5693,2.5463,2.5421,2.5413,2.536,2.5348,0.0,0.0,0.0,0.0,0.0,0.0,0.0,0.0,0.0,2.5595,2.5584,2.5736,2.6225,2.7098,2.8005,2.8906,2.9766,3.0469,3.0898,3.0818,3.0817,3.0898,3.0818,3.0818,3.0898,3.0898,3.1562,3.2812,3.3203,3.4101,3.5391,3.582,3.6016,3.6016,3.6016,3.6523,3.7305,3.7305,3.8359,3.9883,3.9883,4.0469,4.1211,4.1211,4.1211,4.1211,4.1211,4.1211,4.1289,4.168,4.2695,4.3984,4.5273,4.5976,4.6289,4.6289,4.6289,4.6289,4.6204,4.6247,4.613,4.5518,4.5417,4.5351,4.523,4.5491,4.5722,4.5637,4.5688,4.5722,4.562,4.5648,4.568,4.5603,4.5263,4.5055,4.5055,4.5065,4.5092,4.507,4.5441,4.5472,4.4987,4.4932,4.4739,4.4316,4.4316,4.4124,4.3701,4.3701,4.3508,4.3085,4.3932,4.3701,4.247,4.2893,4.3547,0.0,0.0,0.0,0.0,0.0,2.8711,0.0,0.0,0.0,2.6225,2.5901,2.5766,2.5693,0.0,0.0,0.0,0.0,0.0,0.0,0.0,0.0,0.0,0.0,0.0,0.0,2.5657,2.593,2.668,2.7383,2.8242,2.9297,3.0039,3.0547,3.0898,3.0898,3.0898,3.0898,3.0898,3.0898,3.0898,3.1055,3.1601,3.2461,3.3281,3.4141,3.5,3.5703,3.6016,3.6016,3.6016,3.6601,3.7539,3.7383,3.8359,3.9883,3.9883,4.0469,4.1211,4.1211,4.1211,4.1211,4.1211,4.1211,4.1367,4.2344,4.3633,4.4961,4.6016,4.6289,4.6289,4.6289,4.6289,4.6289,4.6289,4.6289,4.6288,4.615,4.6136,4.6075,4.5967,4.5952,4.5881,4.5703,4.5774,4.5852,4.5688,4.5736,4.5777,4.5658,4.5736,4.5828,4.5828,4.5862,4.5881,4.5801,4.5828,4.5479,4.463,4.523,4.5291,4.4586,4.524,4.5278,4.4547,4.5086,4.4778,4.3585,4.4778,4.4662,4.3355,4.3508,4.3932,0.0,0.0,0.0,0.0,3.125,0.0,0.0,0.0,2.9022,2.8103,0.0,0.0,0.0,0.0,0.0,0.0,0.0,0.0,0.0,0.0,0.0,0.0,0.0,0.0,0.0,2.566,2.5742,2.5859,2.5937,2.6719,2.8359,2.8555,2.9297,3.0859,3.0898,3.0898,3.0898,3.0898,3.0898,3.0898,3.168,3.2461,3.3281,3.4141,3.5039,3.5859,3.5976,3.6016,3.6016,3.6016,3.6953,3.8398,3.7617,3.8359,3.9883,3.9883,4.0469,4.1211,4.1211,4.1211,4.1211,4.1211,4.1211,4.1484,4.3086,4.3672,4.418,4.5859,4.6289,4.6289,4.6289,4.6289,4.6289,4.6289,4.6289,4.6289,4.6289,4.6195,4.6089,4.608,4.608,4.6014,4.59,4.5861,4.587,4.5881,4.5891,4.5891,4.5881,4.5891,4.59,4.59,4.5909,4.5918,4.59,4.59,4.5802,4.5647,4.5711,4.5679,4.5449,4.5547,4.5547,4.5432,4.4778,4.4739,4.5316,4.4739,4.4355,4.4162,4.497,4.5355,0.0,0.0,0.0,0.0,0.0,0.0,2.9414,0.0,2.9336,0.0,0.0,0.0,0.0,0.0,0.0,0.0,2.5473,0.0,0.0,0.0,0.0,0.0,0.0,0.0,0.0,0.0,0.0,0.0,2.6172,2.6758,2.75,2.8516,2.9375,3.0117,3.0625,3.0898,3.0898,3.0898,3.0898,3.0898,3.1797,3.2617,3.3437,3.4297,3.5195,3.6016,3.6016,3.6016,3.6055,3.6562,3.6875,3.7148,3.7812,3.9101,4.0586,4.0078,4.0469,4.1211,4.1211,4.1211,4.1211,4.1211,4.1211,4.1523,4.3203,4.3711,4.4062,4.582,4.6289,4.6289,4.6289,4.6289,4.6289,4.6289,4.6289,4.6289,4.6289,4.6248,4.6204,4.6204,4.6204,4.62,4.6144,4.614,4.608,4.5896,4.5974,4.5988,4.5927,4.5974,4.6008,4.6008,4.6084,4.6089,4.6008,4.6008,4.5967,4.5852,4.584,4.579,4.5776,4.5658,4.5654,4.5703,4.5269,4.524,4.5586,4.524,4.5047,4.5047,4.5432,4.5586,3.3633,0.0,0.0,0.0,0.0,0.0,0.0,0.0,0.0,0.0,0.0,0.0,0.0,0.0,0.0,0.0,0.0,2.5531,0.0,0.0,0.0,0.0,0.0,0.0,0.0,0.0,0.0,2.5703,2.6289,2.6758,2.6992,2.8437,2.9336,2.9609,3.0469,3.0898,3.0898,3.1133,3.125,3.1289,3.2344,3.3203,3.3789,3.4648,3.5391,3.6016,3.6016,3.6016,3.6055,3.6953,3.707,3.6875,3.8359,3.9883,4.1094,4.0234,4.0469,4.1211,4.1211,4.1211,4.1211,4.1211,4.1367,4.1797,4.3242,4.3867,4.4375,4.5898,4.6289,4.6289,4.6289,4.6289,4.6289,4.6289,4.6289,4.6289,4.6289,4.6289,4.6289,4.6289,4.6289,4.6289,4.6289,4.6289,4.6245,4.6059,4.6084,4.6136,4.6008,4.6089,4.615,4.615,4.6246,4.6248,4.615,4.615,4.6089,4.5967,4.5852,4.5859,4.5918,4.575,4.5712,4.5815,4.5665,4.5586,4.5586,4.5586,4.5586,4.5586,4.5586,4.5586,0.0,0.0,0.0,3.3555,0.0,0.0,0.0,0.0,3.1875,0.0,0.0,0.0,0.0,0.0,0.0,2.6856,0.0,0.0,0.0,0.0,0.0,0.0,0.0,0.0,0.0,0.0,0.0,2.5703,2.5742,2.6094,2.6953,2.7851,2.8711,2.957,3.0469,3.0898,3.0898,3.1758,3.2148,3.2187,3.3828,3.4648,3.4687,3.5547,3.5976,3.6016,3.6016,3.6016,3.6055,3.6953,3.7773,3.8594,3.9492,4.0391,4.1094,4.0234,4.0469,4.1211,4.1211,4.1211,4.1211,4.1211,4.1719,4.2539,4.3437,4.4297,4.5156,4.6055,4.6289,4.6289,4.6289,4.6289,4.6289,4.6289,4.6289,4.6289,4.6289,4.6289,4.6289,4.6289,4.6289,4.6289,4.6289,4.6289,4.6289,4.6289,4.6289,4.6289,4.6289,4.6289,4.6289,4.6289,4.6289,4.6289,4.6289,4.6289,4.6246,4.6089,4.5974,4.5918,4.5879,4.5825,4.5815,4.5815,4.5665,4.5586,4.5586,4.5586,4.5586,4.5586,4.5586,4.5586,0.0,0.0,3.3086,3.3359,0.0,0.0,0.0,0.0,0.0,0.0,0.0,0.0,0.0,0.0,0.0,2.7068,0.0,0.0,0.0,0.0,0.0,0.0,0.0,0.0,0.0,0.0,0.0,2.5703,2.5703,2.582,2.6133,2.75,2.8437,2.8711,3.0156,3.0898,3.0898,3.1172,3.1641,3.2226,3.332,3.4141,3.4726,3.5586,3.6016,3.6016,3.6016,3.6016,3.6055,3.6953,3.7461,3.7891,3.9336,4.0078,4.0351,4.0664,4.0937,4.1211,4.1211,4.1211,4.1211,4.1211,4.1758,4.2578,4.3437,4.4297,4.5195,4.6055,4.6289,4.6289,4.6289,4.6289,4.6289,4.6289,4.6289,4.6289,4.6289,4.6289,4.6289,4.6289,4.6289,4.6289,4.6289,4.6289,4.6289,4.6289,4.6289,4.6289,4.6289,4.6289,4.6289,4.6289,4.6289,4.6289,4.6289,4.6289,4.6289,4.6246,4.6093,4.6075,4.615,4.593,4.5828,4.5852,4.5703,4.5586,4.5586,4.5586,4.5586,4.5586,4.5586,4.5586,3.332,3.3008,0.0,3.3281,3.3008,0.0,3.2617,0.0,0.0,0.0,0.0,0.0,0.0,0.0,0.0,0.0,0.0,0.0,0.0,2.5703,0.0,0.0,0.0,0.0,0.0,0.0,2.5703,2.5703,2.5703,2.5703,0.0,0.0,2.8281,2.8281,3.0,3.0898,3.0898,3.1484,3.207,3.2656,3.3789,3.4609,3.5195,3.5742,3.6016,3.6016,3.6328,3.6445,3.6562,3.7734,3.8203,3.8359,3.9805,4.0351,4.043,4.0976,4.1211,4.1211,4.1211,4.1406,4.1641,4.1641,4.2383,4.3437,4.3984,4.4766,4.5586,4.6133,4.6289,4.6289,4.6289,4.6289,4.6289,4.6289,4.6289,4.6289,4.6289,4.6289,4.6289,4.6289,4.6289,4.6289,4.6289,4.6289,4.6289,4.6289,4.6289,4.6289,4.6289,4.6289,4.6289,4.6289,4.6289,4.6289,4.6245,4.6245,4.6245,4.6245,4.6147,4.6144,4.6245,4.599,4.6119,4.6735,4.5997,4.5893,4.6471,4.5893,4.5586,4.5586,4.5586,4.5586]}]]